<?xml version="1.0" encoding="UTF-8" standalone="no" ?>
<gpx xmlns="http://www.topografix.com/GPX/1/1" xmlns:xsi="http://www.w3.org/2001/XMLSchema-instance" xsi:schemaLocation="http://www.topografix.com/GPX/1/1 http://www.topografix.com/GPX/1/1/gpx.xsd" version="1.1" creator="VisuGPX - https://www.visugpx.com">
  <metadata>
    <name>ubac-le plan</name>
    <desc><![CDATA[Entre Claviers et Bargemon

]]></desc>
  </metadata>
  <trk>
    <name><![CDATA[ubac-le plan_1]]></name>
    <trkseg>
      <trkpt lat="43.60508" lon="6.56889">
        <ele>491.3</ele>
        <time>2020-05-31T12:20:05Z</time>
      </trkpt>
      <trkpt lat="43.60511" lon="6.56885">
        <ele>492.6</ele>
        <time>2020-05-31T12:20:10Z</time>
      </trkpt>
      <trkpt lat="43.60517" lon="6.56881">
        <ele>493.3</ele>
        <time>2020-05-31T12:20:14Z</time>
      </trkpt>
      <trkpt lat="43.60524" lon="6.56879">
        <ele>493.8</ele>
        <time>2020-05-31T12:20:18Z</time>
      </trkpt>
      <trkpt lat="43.60529" lon="6.56878">
        <ele>494</ele>
        <time>2020-05-31T12:20:22Z</time>
      </trkpt>
      <trkpt lat="43.60533" lon="6.56873">
        <ele>494</ele>
        <time>2020-05-31T12:20:26Z</time>
      </trkpt>
      <trkpt lat="43.60538" lon="6.5687">
        <ele>494.3</ele>
        <time>2020-05-31T12:20:30Z</time>
      </trkpt>
      <trkpt lat="43.60542" lon="6.56866">
        <ele>494.8</ele>
        <time>2020-05-31T12:20:34Z</time>
      </trkpt>
      <trkpt lat="43.60546" lon="6.5686">
        <ele>495.2</ele>
        <time>2020-05-31T12:20:38Z</time>
      </trkpt>
      <trkpt lat="43.6055" lon="6.56856">
        <ele>495.6</ele>
        <time>2020-05-31T12:20:43Z</time>
      </trkpt>
      <trkpt lat="43.60555" lon="6.5685">
        <ele>495.8</ele>
        <time>2020-05-31T12:20:47Z</time>
      </trkpt>
      <trkpt lat="43.60558" lon="6.56845">
        <ele>496.2</ele>
        <time>2020-05-31T12:20:53Z</time>
      </trkpt>
      <trkpt lat="43.6056" lon="6.5684">
        <ele>496.5</ele>
        <time>2020-05-31T12:20:57Z</time>
      </trkpt>
      <trkpt lat="43.60565" lon="6.56836">
        <ele>497.1</ele>
        <time>2020-05-31T12:21:02Z</time>
      </trkpt>
      <trkpt lat="43.60569" lon="6.56829">
        <ele>497.4</ele>
        <time>2020-05-31T12:21:06Z</time>
      </trkpt>
      <trkpt lat="43.60574" lon="6.56822">
        <ele>497.6</ele>
        <time>2020-05-31T12:21:10Z</time>
      </trkpt>
      <trkpt lat="43.60578" lon="6.56819">
        <ele>497.7</ele>
        <time>2020-05-31T12:21:15Z</time>
      </trkpt>
      <trkpt lat="43.60584" lon="6.56812">
        <ele>497.7</ele>
        <time>2020-05-31T12:21:19Z</time>
      </trkpt>
      <trkpt lat="43.60587" lon="6.56809">
        <ele>497.9</ele>
        <time>2020-05-31T12:21:23Z</time>
      </trkpt>
      <trkpt lat="43.60591" lon="6.56803">
        <ele>498.1</ele>
        <time>2020-05-31T12:21:27Z</time>
      </trkpt>
      <trkpt lat="43.60596" lon="6.56796">
        <ele>498.3</ele>
        <time>2020-05-31T12:21:31Z</time>
      </trkpt>
      <trkpt lat="43.60599" lon="6.5679">
        <ele>498.6</ele>
        <time>2020-05-31T12:21:37Z</time>
      </trkpt>
      <trkpt lat="43.60603" lon="6.56785">
        <ele>498.8</ele>
        <time>2020-05-31T12:21:41Z</time>
      </trkpt>
      <trkpt lat="43.60606" lon="6.5678">
        <ele>498.9</ele>
        <time>2020-05-31T12:21:45Z</time>
      </trkpt>
      <trkpt lat="43.6061" lon="6.56776">
        <ele>499.3</ele>
        <time>2020-05-31T12:21:49Z</time>
      </trkpt>
      <trkpt lat="43.60616" lon="6.56771">
        <ele>499.6</ele>
        <time>2020-05-31T12:21:53Z</time>
      </trkpt>
      <trkpt lat="43.60619" lon="6.56766">
        <ele>500</ele>
        <time>2020-05-31T12:21:57Z</time>
      </trkpt>
      <trkpt lat="43.60625" lon="6.56761">
        <ele>500.3</ele>
        <time>2020-05-31T12:22:01Z</time>
      </trkpt>
      <trkpt lat="43.6063" lon="6.56756">
        <ele>500.7</ele>
        <time>2020-05-31T12:22:05Z</time>
      </trkpt>
      <trkpt lat="43.60635" lon="6.56752">
        <ele>501.4</ele>
        <time>2020-05-31T12:22:10Z</time>
      </trkpt>
      <trkpt lat="43.60641" lon="6.56746">
        <ele>501.9</ele>
        <time>2020-05-31T12:22:14Z</time>
      </trkpt>
      <trkpt lat="43.60645" lon="6.56742">
        <ele>502.8</ele>
        <time>2020-05-31T12:22:18Z</time>
      </trkpt>
      <trkpt lat="43.60649" lon="6.56739">
        <ele>503.2</ele>
        <time>2020-05-31T12:22:22Z</time>
      </trkpt>
      <trkpt lat="43.60654" lon="6.56732">
        <ele>503.5</ele>
        <time>2020-05-31T12:22:26Z</time>
      </trkpt>
      <trkpt lat="43.60659" lon="6.56727">
        <ele>503.8</ele>
        <time>2020-05-31T12:22:30Z</time>
      </trkpt>
      <trkpt lat="43.60662" lon="6.56723">
        <ele>504.1</ele>
        <time>2020-05-31T12:22:35Z</time>
      </trkpt>
      <trkpt lat="43.60668" lon="6.56716">
        <ele>504.6</ele>
        <time>2020-05-31T12:22:39Z</time>
      </trkpt>
      <trkpt lat="43.60674" lon="6.56713">
        <ele>505.3</ele>
        <time>2020-05-31T12:22:43Z</time>
      </trkpt>
      <trkpt lat="43.60677" lon="6.56708">
        <ele>506</ele>
        <time>2020-05-31T12:22:48Z</time>
      </trkpt>
      <trkpt lat="43.60681" lon="6.56704">
        <ele>506.5</ele>
        <time>2020-05-31T12:22:52Z</time>
      </trkpt>
      <trkpt lat="43.60686" lon="6.56699">
        <ele>506.9</ele>
        <time>2020-05-31T12:22:56Z</time>
      </trkpt>
      <trkpt lat="43.60691" lon="6.56695">
        <ele>507.4</ele>
        <time>2020-05-31T12:23:01Z</time>
      </trkpt>
      <trkpt lat="43.60697" lon="6.56689">
        <ele>507.8</ele>
        <time>2020-05-31T12:23:05Z</time>
      </trkpt>
      <trkpt lat="43.60701" lon="6.56685">
        <ele>508.1</ele>
        <time>2020-05-31T12:23:09Z</time>
      </trkpt>
      <trkpt lat="43.60705" lon="6.56681">
        <ele>508.4</ele>
        <time>2020-05-31T12:23:14Z</time>
      </trkpt>
      <trkpt lat="43.60711" lon="6.56676">
        <ele>509</ele>
        <time>2020-05-31T12:23:18Z</time>
      </trkpt>
      <trkpt lat="43.60715" lon="6.56671">
        <ele>510</ele>
        <time>2020-05-31T12:23:22Z</time>
      </trkpt>
      <trkpt lat="43.60719" lon="6.56668">
        <ele>511</ele>
        <time>2020-05-31T12:23:26Z</time>
      </trkpt>
      <trkpt lat="43.60725" lon="6.56661">
        <ele>511.8</ele>
        <time>2020-05-31T12:23:30Z</time>
      </trkpt>
      <trkpt lat="43.60729" lon="6.56656">
        <ele>512.7</ele>
        <time>2020-05-31T12:23:35Z</time>
      </trkpt>
      <trkpt lat="43.60733" lon="6.56652">
        <ele>513.4</ele>
        <time>2020-05-31T12:23:39Z</time>
      </trkpt>
      <trkpt lat="43.60737" lon="6.56647">
        <ele>514.1</ele>
        <time>2020-05-31T12:23:43Z</time>
      </trkpt>
      <trkpt lat="43.60742" lon="6.56643">
        <ele>515.2</ele>
        <time>2020-05-31T12:23:47Z</time>
      </trkpt>
      <trkpt lat="43.60746" lon="6.56638">
        <ele>516</ele>
        <time>2020-05-31T12:23:51Z</time>
      </trkpt>
      <trkpt lat="43.6075" lon="6.56635">
        <ele>516.6</ele>
        <time>2020-05-31T12:23:55Z</time>
      </trkpt>
      <trkpt lat="43.60755" lon="6.56631">
        <ele>516.8</ele>
        <time>2020-05-31T12:24:00Z</time>
      </trkpt>
      <trkpt lat="43.60761" lon="6.56627">
        <ele>516.9</ele>
        <time>2020-05-31T12:24:04Z</time>
      </trkpt>
      <trkpt lat="43.60766" lon="6.56627">
        <ele>517.4</ele>
        <time>2020-05-31T12:24:10Z</time>
      </trkpt>
      <trkpt lat="43.60771" lon="6.56624">
        <ele>517.9</ele>
        <time>2020-05-31T12:24:14Z</time>
      </trkpt>
      <trkpt lat="43.60776" lon="6.56622">
        <ele>518.5</ele>
        <time>2020-05-31T12:24:18Z</time>
      </trkpt>
      <trkpt lat="43.6078" lon="6.56619">
        <ele>519.1</ele>
        <time>2020-05-31T12:24:22Z</time>
      </trkpt>
      <trkpt lat="43.60786" lon="6.56615">
        <ele>519.7</ele>
        <time>2020-05-31T12:24:26Z</time>
      </trkpt>
      <trkpt lat="43.60791" lon="6.56612">
        <ele>520.7</ele>
        <time>2020-05-31T12:24:30Z</time>
      </trkpt>
      <trkpt lat="43.60795" lon="6.56609">
        <ele>521.6</ele>
        <time>2020-05-31T12:24:34Z</time>
      </trkpt>
      <trkpt lat="43.60802" lon="6.56607">
        <ele>522.3</ele>
        <time>2020-05-31T12:24:38Z</time>
      </trkpt>
      <trkpt lat="43.60806" lon="6.56604">
        <ele>523.1</ele>
        <time>2020-05-31T12:24:42Z</time>
      </trkpt>
      <trkpt lat="43.60811" lon="6.56599">
        <ele>523.6</ele>
        <time>2020-05-31T12:24:46Z</time>
      </trkpt>
      <trkpt lat="43.60817" lon="6.56595">
        <ele>523.9</ele>
        <time>2020-05-31T12:24:50Z</time>
      </trkpt>
      <trkpt lat="43.60822" lon="6.56591">
        <ele>524.3</ele>
        <time>2020-05-31T12:24:54Z</time>
      </trkpt>
      <trkpt lat="43.60826" lon="6.56586">
        <ele>524.9</ele>
        <time>2020-05-31T12:24:59Z</time>
      </trkpt>
      <trkpt lat="43.60831" lon="6.56583">
        <ele>525.3</ele>
        <time>2020-05-31T12:25:03Z</time>
      </trkpt>
      <trkpt lat="43.60836" lon="6.56578">
        <ele>525.5</ele>
        <time>2020-05-31T12:25:07Z</time>
      </trkpt>
      <trkpt lat="43.60839" lon="6.56573">
        <ele>525.7</ele>
        <time>2020-05-31T12:25:11Z</time>
      </trkpt>
      <trkpt lat="43.60843" lon="6.56567">
        <ele>525.7</ele>
        <time>2020-05-31T12:25:16Z</time>
      </trkpt>
      <trkpt lat="43.60848" lon="6.5656">
        <ele>525.5</ele>
        <time>2020-05-31T12:25:20Z</time>
      </trkpt>
      <trkpt lat="43.60853" lon="6.56553">
        <ele>525.5</ele>
        <time>2020-05-31T12:25:24Z</time>
      </trkpt>
      <trkpt lat="43.60856" lon="6.56549">
        <ele>525.8</ele>
        <time>2020-05-31T12:25:28Z</time>
      </trkpt>
      <trkpt lat="43.6086" lon="6.56546">
        <ele>525.9</ele>
        <time>2020-05-31T12:25:32Z</time>
      </trkpt>
      <trkpt lat="43.60865" lon="6.56541">
        <ele>525.9</ele>
        <time>2020-05-31T12:25:36Z</time>
      </trkpt>
      <trkpt lat="43.6087" lon="6.56533">
        <ele>525.9</ele>
        <time>2020-05-31T12:25:40Z</time>
      </trkpt>
      <trkpt lat="43.60875" lon="6.56528">
        <ele>526</ele>
        <time>2020-05-31T12:25:44Z</time>
      </trkpt>
      <trkpt lat="43.6088" lon="6.56525">
        <ele>525.9</ele>
        <time>2020-05-31T12:25:48Z</time>
      </trkpt>
      <trkpt lat="43.60884" lon="6.56522">
        <ele>525.2</ele>
        <time>2020-05-31T12:25:52Z</time>
      </trkpt>
      <trkpt lat="43.6089" lon="6.56517">
        <ele>524.4</ele>
        <time>2020-05-31T12:25:56Z</time>
      </trkpt>
      <trkpt lat="43.60894" lon="6.56509">
        <ele>523.8</ele>
        <time>2020-05-31T12:26:00Z</time>
      </trkpt>
      <trkpt lat="43.60898" lon="6.56504">
        <ele>523.4</ele>
        <time>2020-05-31T12:26:04Z</time>
      </trkpt>
      <trkpt lat="43.60902" lon="6.56501">
        <ele>522.5</ele>
        <time>2020-05-31T12:26:09Z</time>
      </trkpt>
      <trkpt lat="43.60907" lon="6.56498">
        <ele>521.9</ele>
        <time>2020-05-31T12:26:14Z</time>
      </trkpt>
      <trkpt lat="43.60912" lon="6.56496">
        <ele>521.5</ele>
        <time>2020-05-31T12:26:18Z</time>
      </trkpt>
      <trkpt lat="43.60918" lon="6.56494">
        <ele>521.1</ele>
        <time>2020-05-31T12:26:22Z</time>
      </trkpt>
      <trkpt lat="43.60923" lon="6.56491">
        <ele>520.8</ele>
        <time>2020-05-31T12:26:26Z</time>
      </trkpt>
      <trkpt lat="43.60928" lon="6.56485">
        <ele>520.5</ele>
        <time>2020-05-31T12:26:30Z</time>
      </trkpt>
      <trkpt lat="43.60934" lon="6.56481">
        <ele>520.3</ele>
        <time>2020-05-31T12:26:34Z</time>
      </trkpt>
      <trkpt lat="43.60938" lon="6.56476">
        <ele>520</ele>
        <time>2020-05-31T12:26:39Z</time>
      </trkpt>
      <trkpt lat="43.60944" lon="6.56472">
        <ele>519.7</ele>
        <time>2020-05-31T12:26:43Z</time>
      </trkpt>
      <trkpt lat="43.6095" lon="6.56468">
        <ele>519.4</ele>
        <time>2020-05-31T12:26:47Z</time>
      </trkpt>
      <trkpt lat="43.60954" lon="6.56464">
        <ele>519</ele>
        <time>2020-05-31T12:26:51Z</time>
      </trkpt>
      <trkpt lat="43.60959" lon="6.5646">
        <ele>518.5</ele>
        <time>2020-05-31T12:26:55Z</time>
      </trkpt>
      <trkpt lat="43.60966" lon="6.56457">
        <ele>518.2</ele>
        <time>2020-05-31T12:26:59Z</time>
      </trkpt>
      <trkpt lat="43.60973" lon="6.56452">
        <ele>517.9</ele>
        <time>2020-05-31T12:27:03Z</time>
      </trkpt>
      <trkpt lat="43.60976" lon="6.56447">
        <ele>517.8</ele>
        <time>2020-05-31T12:27:07Z</time>
      </trkpt>
      <trkpt lat="43.60981" lon="6.56443">
        <ele>517.3</ele>
        <time>2020-05-31T12:27:12Z</time>
      </trkpt>
      <trkpt lat="43.60985" lon="6.5644">
        <ele>516.8</ele>
        <time>2020-05-31T12:27:16Z</time>
      </trkpt>
      <trkpt lat="43.60991" lon="6.56436">
        <ele>516.6</ele>
        <time>2020-05-31T12:27:20Z</time>
      </trkpt>
      <trkpt lat="43.60996" lon="6.56433">
        <ele>516.5</ele>
        <time>2020-05-31T12:27:24Z</time>
      </trkpt>
      <trkpt lat="43.61003" lon="6.5643">
        <ele>516.3</ele>
        <time>2020-05-31T12:27:28Z</time>
      </trkpt>
      <trkpt lat="43.61011" lon="6.56431">
        <ele>516.3</ele>
        <time>2020-05-31T12:27:32Z</time>
      </trkpt>
      <trkpt lat="43.61016" lon="6.56431">
        <ele>516.3</ele>
        <time>2020-05-31T12:27:37Z</time>
      </trkpt>
      <trkpt lat="43.61021" lon="6.56431">
        <ele>516.1</ele>
        <time>2020-05-31T12:27:42Z</time>
      </trkpt>
      <trkpt lat="43.61027" lon="6.56434">
        <ele>516.1</ele>
        <time>2020-05-31T12:27:46Z</time>
      </trkpt>
      <trkpt lat="43.61031" lon="6.56437">
        <ele>516.4</ele>
        <time>2020-05-31T12:27:50Z</time>
      </trkpt>
      <trkpt lat="43.61036" lon="6.56441">
        <ele>517.3</ele>
        <time>2020-05-31T12:27:57Z</time>
      </trkpt>
      <trkpt lat="43.6104" lon="6.56445">
        <ele>518.2</ele>
        <time>2020-05-31T12:28:01Z</time>
      </trkpt>
      <trkpt lat="43.61045" lon="6.56451">
        <ele>519.5</ele>
        <time>2020-05-31T12:28:05Z</time>
      </trkpt>
      <trkpt lat="43.6105" lon="6.56454">
        <ele>521.1</ele>
        <time>2020-05-31T12:28:10Z</time>
      </trkpt>
      <trkpt lat="43.61053" lon="6.56459">
        <ele>522.6</ele>
        <time>2020-05-31T12:28:15Z</time>
      </trkpt>
      <trkpt lat="43.61056" lon="6.56468">
        <ele>523.3</ele>
        <time>2020-05-31T12:28:19Z</time>
      </trkpt>
      <trkpt lat="43.61061" lon="6.56478">
        <ele>524</ele>
        <time>2020-05-31T12:28:23Z</time>
      </trkpt>
      <trkpt lat="43.61065" lon="6.56484">
        <ele>524.5</ele>
        <time>2020-05-31T12:28:27Z</time>
      </trkpt>
      <trkpt lat="43.61068" lon="6.5649">
        <ele>525</ele>
        <time>2020-05-31T12:28:32Z</time>
      </trkpt>
      <trkpt lat="43.6107" lon="6.56497">
        <ele>525.2</ele>
        <time>2020-05-31T12:28:36Z</time>
      </trkpt>
      <trkpt lat="43.61071" lon="6.56507">
        <ele>525.5</ele>
        <time>2020-05-31T12:28:40Z</time>
      </trkpt>
      <trkpt lat="43.61076" lon="6.56516">
        <ele>526.2</ele>
        <time>2020-05-31T12:28:44Z</time>
      </trkpt>
      <trkpt lat="43.61081" lon="6.56522">
        <ele>526.9</ele>
        <time>2020-05-31T12:28:48Z</time>
      </trkpt>
      <trkpt lat="43.61084" lon="6.56527">
        <ele>527.4</ele>
        <time>2020-05-31T12:28:53Z</time>
      </trkpt>
      <trkpt lat="43.61087" lon="6.56534">
        <ele>527.6</ele>
        <time>2020-05-31T12:28:57Z</time>
      </trkpt>
      <trkpt lat="43.61092" lon="6.56542">
        <ele>528</ele>
        <time>2020-05-31T12:29:01Z</time>
      </trkpt>
      <trkpt lat="43.61098" lon="6.56551">
        <ele>528.5</ele>
        <time>2020-05-31T12:29:05Z</time>
      </trkpt>
      <trkpt lat="43.611" lon="6.56557">
        <ele>529</ele>
        <time>2020-05-31T12:29:09Z</time>
      </trkpt>
      <trkpt lat="43.61102" lon="6.56563">
        <ele>529.4</ele>
        <time>2020-05-31T12:29:15Z</time>
      </trkpt>
      <trkpt lat="43.61103" lon="6.5657">
        <ele>529.5</ele>
        <time>2020-05-31T12:29:19Z</time>
      </trkpt>
      <trkpt lat="43.61103" lon="6.56576">
        <ele>529.8</ele>
        <time>2020-05-31T12:29:23Z</time>
      </trkpt>
      <trkpt lat="43.61104" lon="6.56583">
        <ele>530.4</ele>
        <time>2020-05-31T12:29:29Z</time>
      </trkpt>
      <trkpt lat="43.61107" lon="6.56589">
        <ele>530.9</ele>
        <time>2020-05-31T12:29:33Z</time>
      </trkpt>
      <trkpt lat="43.6111" lon="6.56597">
        <ele>531.5</ele>
        <time>2020-05-31T12:29:37Z</time>
      </trkpt>
      <trkpt lat="43.61113" lon="6.56607">
        <ele>532.3</ele>
        <time>2020-05-31T12:29:41Z</time>
      </trkpt>
      <trkpt lat="43.61116" lon="6.56612">
        <ele>532.9</ele>
        <time>2020-05-31T12:29:45Z</time>
      </trkpt>
      <trkpt lat="43.6112" lon="6.56617">
        <ele>533.3</ele>
        <time>2020-05-31T12:29:50Z</time>
      </trkpt>
      <trkpt lat="43.61123" lon="6.56626">
        <ele>533.7</ele>
        <time>2020-05-31T12:29:54Z</time>
      </trkpt>
      <trkpt lat="43.61128" lon="6.56634">
        <ele>534</ele>
        <time>2020-05-31T12:29:58Z</time>
      </trkpt>
      <trkpt lat="43.61133" lon="6.5664">
        <ele>534.2</ele>
        <time>2020-05-31T12:30:02Z</time>
      </trkpt>
      <trkpt lat="43.61136" lon="6.56646">
        <ele>534.2</ele>
        <time>2020-05-31T12:30:06Z</time>
      </trkpt>
      <trkpt lat="43.61139" lon="6.56654">
        <ele>534.1</ele>
        <time>2020-05-31T12:30:10Z</time>
      </trkpt>
      <trkpt lat="43.61142" lon="6.56661">
        <ele>534.1</ele>
        <time>2020-05-31T12:30:14Z</time>
      </trkpt>
      <trkpt lat="43.61143" lon="6.56667">
        <ele>534.1</ele>
        <time>2020-05-31T12:30:19Z</time>
      </trkpt>
      <trkpt lat="43.61145" lon="6.56676">
        <ele>534</ele>
        <time>2020-05-31T12:30:23Z</time>
      </trkpt>
      <trkpt lat="43.6115" lon="6.56686">
        <ele>533.9</ele>
        <time>2020-05-31T12:30:27Z</time>
      </trkpt>
      <trkpt lat="43.61154" lon="6.56695">
        <ele>533.9</ele>
        <time>2020-05-31T12:30:31Z</time>
      </trkpt>
      <trkpt lat="43.61157" lon="6.56701">
        <ele>533.6</ele>
        <time>2020-05-31T12:30:36Z</time>
      </trkpt>
      <trkpt lat="43.61159" lon="6.56707">
        <ele>533.2</ele>
        <time>2020-05-31T12:30:40Z</time>
      </trkpt>
      <trkpt lat="43.61161" lon="6.56715">
        <ele>532.9</ele>
        <time>2020-05-31T12:30:44Z</time>
      </trkpt>
      <trkpt lat="43.61162" lon="6.56724">
        <ele>532.5</ele>
        <time>2020-05-31T12:30:48Z</time>
      </trkpt>
      <trkpt lat="43.61163" lon="6.56731">
        <ele>532.2</ele>
        <time>2020-05-31T12:30:52Z</time>
      </trkpt>
      <trkpt lat="43.61164" lon="6.56738">
        <ele>532</ele>
        <time>2020-05-31T12:30:56Z</time>
      </trkpt>
      <trkpt lat="43.61167" lon="6.56747">
        <ele>531.6</ele>
        <time>2020-05-31T12:31:00Z</time>
      </trkpt>
      <trkpt lat="43.6117" lon="6.56757">
        <ele>531.1</ele>
        <time>2020-05-31T12:31:04Z</time>
      </trkpt>
      <trkpt lat="43.61173" lon="6.56767">
        <ele>530.7</ele>
        <time>2020-05-31T12:31:08Z</time>
      </trkpt>
      <trkpt lat="43.61177" lon="6.56772">
        <ele>530.4</ele>
        <time>2020-05-31T12:31:12Z</time>
      </trkpt>
      <trkpt lat="43.61181" lon="6.56778">
        <ele>529.8</ele>
        <time>2020-05-31T12:31:16Z</time>
      </trkpt>
      <trkpt lat="43.61183" lon="6.56789">
        <ele>528.9</ele>
        <time>2020-05-31T12:31:20Z</time>
      </trkpt>
      <trkpt lat="43.61186" lon="6.568">
        <ele>527.8</ele>
        <time>2020-05-31T12:31:24Z</time>
      </trkpt>
      <trkpt lat="43.61187" lon="6.56808">
        <ele>526.7</ele>
        <time>2020-05-31T12:31:28Z</time>
      </trkpt>
      <trkpt lat="43.61188" lon="6.56815">
        <ele>525.2</ele>
        <time>2020-05-31T12:31:34Z</time>
      </trkpt>
      <trkpt lat="43.6119" lon="6.56821">
        <ele>524.4</ele>
        <time>2020-05-31T12:31:38Z</time>
      </trkpt>
      <trkpt lat="43.61194" lon="6.56827">
        <ele>523.8</ele>
        <time>2020-05-31T12:31:42Z</time>
      </trkpt>
      <trkpt lat="43.61197" lon="6.56835">
        <ele>523.4</ele>
        <time>2020-05-31T12:31:46Z</time>
      </trkpt>
      <trkpt lat="43.61198" lon="6.56842">
        <ele>522.7</ele>
        <time>2020-05-31T12:31:51Z</time>
      </trkpt>
      <trkpt lat="43.61201" lon="6.56848">
        <ele>522.1</ele>
        <time>2020-05-31T12:31:55Z</time>
      </trkpt>
      <trkpt lat="43.61204" lon="6.56857">
        <ele>521.1</ele>
        <time>2020-05-31T12:31:59Z</time>
      </trkpt>
      <trkpt lat="43.61205" lon="6.56864">
        <ele>520.4</ele>
        <time>2020-05-31T12:32:03Z</time>
      </trkpt>
      <trkpt lat="43.61206" lon="6.56871">
        <ele>520.2</ele>
        <time>2020-05-31T12:32:08Z</time>
      </trkpt>
      <trkpt lat="43.61209" lon="6.56881">
        <ele>520.5</ele>
        <time>2020-05-31T12:32:12Z</time>
      </trkpt>
      <trkpt lat="43.61212" lon="6.56888">
        <ele>520.8</ele>
        <time>2020-05-31T12:32:16Z</time>
      </trkpt>
      <trkpt lat="43.61214" lon="6.56895">
        <ele>520.9</ele>
        <time>2020-05-31T12:32:21Z</time>
      </trkpt>
      <trkpt lat="43.61216" lon="6.56904">
        <ele>520.7</ele>
        <time>2020-05-31T12:32:25Z</time>
      </trkpt>
      <trkpt lat="43.61217" lon="6.56911">
        <ele>520.4</ele>
        <time>2020-05-31T12:32:29Z</time>
      </trkpt>
      <trkpt lat="43.61222" lon="6.56911">
        <ele>519.9</ele>
        <time>2020-05-31T12:32:34Z</time>
      </trkpt>
      <trkpt lat="43.61226" lon="6.56904">
        <ele>519</ele>
        <time>2020-05-31T12:32:38Z</time>
      </trkpt>
      <trkpt lat="43.61225" lon="6.56898">
        <ele>518</ele>
        <time>2020-05-31T12:32:42Z</time>
      </trkpt>
      <trkpt lat="43.61222" lon="6.56891">
        <ele>516.9</ele>
        <time>2020-05-31T12:32:47Z</time>
      </trkpt>
      <trkpt lat="43.61224" lon="6.56883">
        <ele>515.7</ele>
        <time>2020-05-31T12:32:51Z</time>
      </trkpt>
      <trkpt lat="43.61225" lon="6.56875">
        <ele>514.3</ele>
        <time>2020-05-31T12:32:56Z</time>
      </trkpt>
      <trkpt lat="43.61226" lon="6.56869">
        <ele>513.3</ele>
        <time>2020-05-31T12:33:00Z</time>
      </trkpt>
      <trkpt lat="43.61227" lon="6.56862">
        <ele>512</ele>
        <time>2020-05-31T12:33:05Z</time>
      </trkpt>
      <trkpt lat="43.61227" lon="6.56855">
        <ele>510.9</ele>
        <time>2020-05-31T12:33:09Z</time>
      </trkpt>
      <trkpt lat="43.61226" lon="6.56848">
        <ele>509.8</ele>
        <time>2020-05-31T12:33:13Z</time>
      </trkpt>
      <trkpt lat="43.61228" lon="6.56841">
        <ele>508.9</ele>
        <time>2020-05-31T12:33:17Z</time>
      </trkpt>
      <trkpt lat="43.61229" lon="6.56832">
        <ele>508</ele>
        <time>2020-05-31T12:33:21Z</time>
      </trkpt>
      <trkpt lat="43.61226" lon="6.56823">
        <ele>506.7</ele>
        <time>2020-05-31T12:33:25Z</time>
      </trkpt>
      <trkpt lat="43.61222" lon="6.56816">
        <ele>505.2</ele>
        <time>2020-05-31T12:33:29Z</time>
      </trkpt>
      <trkpt lat="43.61218" lon="6.56809">
        <ele>503.6</ele>
        <time>2020-05-31T12:33:33Z</time>
      </trkpt>
      <trkpt lat="43.61217" lon="6.56803">
        <ele>502.1</ele>
        <time>2020-05-31T12:33:37Z</time>
      </trkpt>
      <trkpt lat="43.61219" lon="6.56795">
        <ele>500.3</ele>
        <time>2020-05-31T12:33:41Z</time>
      </trkpt>
      <trkpt lat="43.61221" lon="6.56789">
        <ele>498.5</ele>
        <time>2020-05-31T12:33:45Z</time>
      </trkpt>
      <trkpt lat="43.61218" lon="6.5678">
        <ele>496.4</ele>
        <time>2020-05-31T12:33:49Z</time>
      </trkpt>
      <trkpt lat="43.61217" lon="6.56771">
        <ele>494.3</ele>
        <time>2020-05-31T12:33:53Z</time>
      </trkpt>
      <trkpt lat="43.61215" lon="6.56763">
        <ele>492.1</ele>
        <time>2020-05-31T12:33:57Z</time>
      </trkpt>
      <trkpt lat="43.61212" lon="6.56757">
        <ele>489.7</ele>
        <time>2020-05-31T12:34:01Z</time>
      </trkpt>
      <trkpt lat="43.61213" lon="6.56749">
        <ele>487.2</ele>
        <time>2020-05-31T12:34:05Z</time>
      </trkpt>
      <trkpt lat="43.61215" lon="6.56741">
        <ele>484.6</ele>
        <time>2020-05-31T12:34:09Z</time>
      </trkpt>
      <trkpt lat="43.61216" lon="6.56734">
        <ele>481.8</ele>
        <time>2020-05-31T12:34:13Z</time>
      </trkpt>
      <trkpt lat="43.61219" lon="6.56728">
        <ele>478.9</ele>
        <time>2020-05-31T12:34:17Z</time>
      </trkpt>
      <trkpt lat="43.61223" lon="6.56722">
        <ele>476.3</ele>
        <time>2020-05-31T12:34:21Z</time>
      </trkpt>
      <trkpt lat="43.61228" lon="6.56714">
        <ele>474</ele>
        <time>2020-05-31T12:34:25Z</time>
      </trkpt>
      <trkpt lat="43.6123" lon="6.56708">
        <ele>470.8</ele>
        <time>2020-05-31T12:34:31Z</time>
      </trkpt>
      <trkpt lat="43.61229" lon="6.56701">
        <ele>469.4</ele>
        <time>2020-05-31T12:34:36Z</time>
      </trkpt>
      <trkpt lat="43.6123" lon="6.56693">
        <ele>468.1</ele>
        <time>2020-05-31T12:34:41Z</time>
      </trkpt>
      <trkpt lat="43.61231" lon="6.56686">
        <ele>466.6</ele>
        <time>2020-05-31T12:34:46Z</time>
      </trkpt>
      <trkpt lat="43.61231" lon="6.5668">
        <ele>464.8</ele>
        <time>2020-05-31T12:34:51Z</time>
      </trkpt>
      <trkpt lat="43.6123" lon="6.56671">
        <ele>463.2</ele>
        <time>2020-05-31T12:34:55Z</time>
      </trkpt>
      <trkpt lat="43.6123" lon="6.56665">
        <ele>461.5</ele>
        <time>2020-05-31T12:34:59Z</time>
      </trkpt>
      <trkpt lat="43.61229" lon="6.56658">
        <ele>459.6</ele>
        <time>2020-05-31T12:35:04Z</time>
      </trkpt>
      <trkpt lat="43.61228" lon="6.56651">
        <ele>458.4</ele>
        <time>2020-05-31T12:35:08Z</time>
      </trkpt>
      <trkpt lat="43.61226" lon="6.56643">
        <ele>457.7</ele>
        <time>2020-05-31T12:35:12Z</time>
      </trkpt>
      <trkpt lat="43.61223" lon="6.56634">
        <ele>457.4</ele>
        <time>2020-05-31T12:35:16Z</time>
      </trkpt>
      <trkpt lat="43.61222" lon="6.56627">
        <ele>457.1</ele>
        <time>2020-05-31T12:35:20Z</time>
      </trkpt>
      <trkpt lat="43.6122" lon="6.56621">
        <ele>456.8</ele>
        <time>2020-05-31T12:35:24Z</time>
      </trkpt>
      <trkpt lat="43.61218" lon="6.56614">
        <ele>456.3</ele>
        <time>2020-05-31T12:35:29Z</time>
      </trkpt>
      <trkpt lat="43.61217" lon="6.56608">
        <ele>455.9</ele>
        <time>2020-05-31T12:35:33Z</time>
      </trkpt>
      <trkpt lat="43.61216" lon="6.56601">
        <ele>455.3</ele>
        <time>2020-05-31T12:35:38Z</time>
      </trkpt>
      <trkpt lat="43.61215" lon="6.56595">
        <ele>454.7</ele>
        <time>2020-05-31T12:35:42Z</time>
      </trkpt>
      <trkpt lat="43.61215" lon="6.56588">
        <ele>454.2</ele>
        <time>2020-05-31T12:35:46Z</time>
      </trkpt>
      <trkpt lat="43.61213" lon="6.5658">
        <ele>453.8</ele>
        <time>2020-05-31T12:35:50Z</time>
      </trkpt>
      <trkpt lat="43.6121" lon="6.56574">
        <ele>453.1</ele>
        <time>2020-05-31T12:35:54Z</time>
      </trkpt>
      <trkpt lat="43.61208" lon="6.56565">
        <ele>452.7</ele>
        <time>2020-05-31T12:35:58Z</time>
      </trkpt>
      <trkpt lat="43.61207" lon="6.56558">
        <ele>452.2</ele>
        <time>2020-05-31T12:36:02Z</time>
      </trkpt>
      <trkpt lat="43.61207" lon="6.56551">
        <ele>451.7</ele>
        <time>2020-05-31T12:36:06Z</time>
      </trkpt>
      <trkpt lat="43.61206" lon="6.56545">
        <ele>451.2</ele>
        <time>2020-05-31T12:36:10Z</time>
      </trkpt>
      <trkpt lat="43.61204" lon="6.56539">
        <ele>450.7</ele>
        <time>2020-05-31T12:36:14Z</time>
      </trkpt>
      <trkpt lat="43.61201" lon="6.56533">
        <ele>450.2</ele>
        <time>2020-05-31T12:36:19Z</time>
      </trkpt>
      <trkpt lat="43.61197" lon="6.5653">
        <ele>449.9</ele>
        <time>2020-05-31T12:36:23Z</time>
      </trkpt>
      <trkpt lat="43.61196" lon="6.56524">
        <ele>449.5</ele>
        <time>2020-05-31T12:36:28Z</time>
      </trkpt>
      <trkpt lat="43.61198" lon="6.56516">
        <ele>449.3</ele>
        <time>2020-05-31T12:36:32Z</time>
      </trkpt>
      <trkpt lat="43.61201" lon="6.56508">
        <ele>449.2</ele>
        <time>2020-05-31T12:36:36Z</time>
      </trkpt>
      <trkpt lat="43.61202" lon="6.56499">
        <ele>449.1</ele>
        <time>2020-05-31T12:36:40Z</time>
      </trkpt>
      <trkpt lat="43.61201" lon="6.56491">
        <ele>448.8</ele>
        <time>2020-05-31T12:36:44Z</time>
      </trkpt>
      <trkpt lat="43.61198" lon="6.56485">
        <ele>448</ele>
        <time>2020-05-31T12:36:49Z</time>
      </trkpt>
      <trkpt lat="43.61193" lon="6.56481">
        <ele>447.2</ele>
        <time>2020-05-31T12:36:53Z</time>
      </trkpt>
      <trkpt lat="43.6119" lon="6.56476">
        <ele>446.6</ele>
        <time>2020-05-31T12:36:57Z</time>
      </trkpt>
      <trkpt lat="43.61192" lon="6.56469">
        <ele>444.9</ele>
        <time>2020-05-31T12:37:05Z</time>
      </trkpt>
      <trkpt lat="43.61195" lon="6.56464">
        <ele>441.6</ele>
        <time>2020-05-31T12:37:20Z</time>
      </trkpt>
      <trkpt lat="43.6119" lon="6.56465">
        <ele>433.7</ele>
        <time>2020-05-31T12:37:38Z</time>
      </trkpt>
      <trkpt lat="43.6119" lon="6.56459">
        <ele>432.5</ele>
        <time>2020-05-31T12:37:44Z</time>
      </trkpt>
      <trkpt lat="43.61188" lon="6.56453">
        <ele>431.9</ele>
        <time>2020-05-31T12:37:49Z</time>
      </trkpt>
      <trkpt lat="43.61186" lon="6.56445">
        <ele>431.8</ele>
        <time>2020-05-31T12:37:54Z</time>
      </trkpt>
      <trkpt lat="43.61183" lon="6.56436">
        <ele>431.9</ele>
        <time>2020-05-31T12:37:58Z</time>
      </trkpt>
      <trkpt lat="43.61179" lon="6.56429">
        <ele>432.1</ele>
        <time>2020-05-31T12:38:02Z</time>
      </trkpt>
      <trkpt lat="43.61178" lon="6.56422">
        <ele>432.5</ele>
        <time>2020-05-31T12:38:06Z</time>
      </trkpt>
      <trkpt lat="43.61179" lon="6.56415">
        <ele>433.2</ele>
        <time>2020-05-31T12:38:10Z</time>
      </trkpt>
      <trkpt lat="43.61179" lon="6.56407">
        <ele>433.9</ele>
        <time>2020-05-31T12:38:14Z</time>
      </trkpt>
      <trkpt lat="43.61178" lon="6.564">
        <ele>434.3</ele>
        <time>2020-05-31T12:38:18Z</time>
      </trkpt>
      <trkpt lat="43.61177" lon="6.56391">
        <ele>434.6</ele>
        <time>2020-05-31T12:38:22Z</time>
      </trkpt>
      <trkpt lat="43.61179" lon="6.56382">
        <ele>434.7</ele>
        <time>2020-05-31T12:38:26Z</time>
      </trkpt>
      <trkpt lat="43.61181" lon="6.56375">
        <ele>434.7</ele>
        <time>2020-05-31T12:38:30Z</time>
      </trkpt>
      <trkpt lat="43.61182" lon="6.56368">
        <ele>434.6</ele>
        <time>2020-05-31T12:38:34Z</time>
      </trkpt>
      <trkpt lat="43.61184" lon="6.5636">
        <ele>434.4</ele>
        <time>2020-05-31T12:38:38Z</time>
      </trkpt>
      <trkpt lat="43.61186" lon="6.56351">
        <ele>434.2</ele>
        <time>2020-05-31T12:38:42Z</time>
      </trkpt>
      <trkpt lat="43.61186" lon="6.56342">
        <ele>434.1</ele>
        <time>2020-05-31T12:38:46Z</time>
      </trkpt>
      <trkpt lat="43.61186" lon="6.56332">
        <ele>433.4</ele>
        <time>2020-05-31T12:38:50Z</time>
      </trkpt>
      <trkpt lat="43.61186" lon="6.56325">
        <ele>432.3</ele>
        <time>2020-05-31T12:38:54Z</time>
      </trkpt>
      <trkpt lat="43.61185" lon="6.56319">
        <ele>431.4</ele>
        <time>2020-05-31T12:38:58Z</time>
      </trkpt>
      <trkpt lat="43.61185" lon="6.5631">
        <ele>430</ele>
        <time>2020-05-31T12:39:02Z</time>
      </trkpt>
      <trkpt lat="43.61185" lon="6.56298">
        <ele>428</ele>
        <time>2020-05-31T12:39:06Z</time>
      </trkpt>
      <trkpt lat="43.61184" lon="6.56288">
        <ele>426</ele>
        <time>2020-05-31T12:39:10Z</time>
      </trkpt>
      <trkpt lat="43.61183" lon="6.56281">
        <ele>424</ele>
        <time>2020-05-31T12:39:15Z</time>
      </trkpt>
      <trkpt lat="43.61184" lon="6.56274">
        <ele>421.7</ele>
        <time>2020-05-31T12:39:22Z</time>
      </trkpt>
      <trkpt lat="43.61183" lon="6.56266">
        <ele>420.4</ele>
        <time>2020-05-31T12:39:26Z</time>
      </trkpt>
      <trkpt lat="43.61185" lon="6.56258">
        <ele>419</ele>
        <time>2020-05-31T12:39:30Z</time>
      </trkpt>
      <trkpt lat="43.61186" lon="6.56249">
        <ele>417</ele>
        <time>2020-05-31T12:39:34Z</time>
      </trkpt>
      <trkpt lat="43.61185" lon="6.56242">
        <ele>415</ele>
        <time>2020-05-31T12:39:38Z</time>
      </trkpt>
      <trkpt lat="43.61184" lon="6.56236">
        <ele>413.3</ele>
        <time>2020-05-31T12:39:42Z</time>
      </trkpt>
      <trkpt lat="43.61184" lon="6.56229">
        <ele>412.2</ele>
        <time>2020-05-31T12:39:46Z</time>
      </trkpt>
      <trkpt lat="43.61183" lon="6.56223">
        <ele>410.6</ele>
        <time>2020-05-31T12:39:51Z</time>
      </trkpt>
      <trkpt lat="43.61181" lon="6.56216">
        <ele>409</ele>
        <time>2020-05-31T12:39:55Z</time>
      </trkpt>
      <trkpt lat="43.61181" lon="6.56206">
        <ele>406.7</ele>
        <time>2020-05-31T12:39:59Z</time>
      </trkpt>
      <trkpt lat="43.61181" lon="6.56196">
        <ele>404.6</ele>
        <time>2020-05-31T12:40:03Z</time>
      </trkpt>
      <trkpt lat="43.6118" lon="6.56187">
        <ele>402.8</ele>
        <time>2020-05-31T12:40:07Z</time>
      </trkpt>
      <trkpt lat="43.61179" lon="6.5618">
        <ele>400.6</ele>
        <time>2020-05-31T12:40:12Z</time>
      </trkpt>
      <trkpt lat="43.6118" lon="6.56173">
        <ele>399</ele>
        <time>2020-05-31T12:40:16Z</time>
      </trkpt>
      <trkpt lat="43.6118" lon="6.56164">
        <ele>397.3</ele>
        <time>2020-05-31T12:40:20Z</time>
      </trkpt>
      <trkpt lat="43.61179" lon="6.56156">
        <ele>395.5</ele>
        <time>2020-05-31T12:40:24Z</time>
      </trkpt>
      <trkpt lat="43.61177" lon="6.56149">
        <ele>393.2</ele>
        <time>2020-05-31T12:40:30Z</time>
      </trkpt>
      <trkpt lat="43.61177" lon="6.56142">
        <ele>391.9</ele>
        <time>2020-05-31T12:40:34Z</time>
      </trkpt>
      <trkpt lat="43.61177" lon="6.56135">
        <ele>390.3</ele>
        <time>2020-05-31T12:40:38Z</time>
      </trkpt>
      <trkpt lat="43.61175" lon="6.56127">
        <ele>388.7</ele>
        <time>2020-05-31T12:40:42Z</time>
      </trkpt>
      <trkpt lat="43.61173" lon="6.56119">
        <ele>387.4</ele>
        <time>2020-05-31T12:40:46Z</time>
      </trkpt>
      <trkpt lat="43.61171" lon="6.56112">
        <ele>386.2</ele>
        <time>2020-05-31T12:40:51Z</time>
      </trkpt>
      <trkpt lat="43.61171" lon="6.56103">
        <ele>385.2</ele>
        <time>2020-05-31T12:40:55Z</time>
      </trkpt>
      <trkpt lat="43.61169" lon="6.56091">
        <ele>383.8</ele>
        <time>2020-05-31T12:40:59Z</time>
      </trkpt>
      <trkpt lat="43.61168" lon="6.56083">
        <ele>382.3</ele>
        <time>2020-05-31T12:41:03Z</time>
      </trkpt>
      <trkpt lat="43.61166" lon="6.56074">
        <ele>380.9</ele>
        <time>2020-05-31T12:41:07Z</time>
      </trkpt>
      <trkpt lat="43.61161" lon="6.56066">
        <ele>379.4</ele>
        <time>2020-05-31T12:41:11Z</time>
      </trkpt>
      <trkpt lat="43.61157" lon="6.56059">
        <ele>378.1</ele>
        <time>2020-05-31T12:41:15Z</time>
      </trkpt>
      <trkpt lat="43.61153" lon="6.56053">
        <ele>376.8</ele>
        <time>2020-05-31T12:41:19Z</time>
      </trkpt>
      <trkpt lat="43.61149" lon="6.56048">
        <ele>375.5</ele>
        <time>2020-05-31T12:41:23Z</time>
      </trkpt>
      <trkpt lat="43.61145" lon="6.56043">
        <ele>374.3</ele>
        <time>2020-05-31T12:41:27Z</time>
      </trkpt>
      <trkpt lat="43.6114" lon="6.56041">
        <ele>373.2</ele>
        <time>2020-05-31T12:41:31Z</time>
      </trkpt>
      <trkpt lat="43.61136" lon="6.56038">
        <ele>371.6</ele>
        <time>2020-05-31T12:41:36Z</time>
      </trkpt>
      <trkpt lat="43.61131" lon="6.56035">
        <ele>369.3</ele>
        <time>2020-05-31T12:41:42Z</time>
      </trkpt>
      <trkpt lat="43.61125" lon="6.56034">
        <ele>367.7</ele>
        <time>2020-05-31T12:41:46Z</time>
      </trkpt>
      <trkpt lat="43.6112" lon="6.56033">
        <ele>366</ele>
        <time>2020-05-31T12:41:51Z</time>
      </trkpt>
      <trkpt lat="43.61116" lon="6.5603">
        <ele>364.9</ele>
        <time>2020-05-31T12:41:55Z</time>
      </trkpt>
      <trkpt lat="43.61112" lon="6.56027">
        <ele>363.9</ele>
        <time>2020-05-31T12:41:59Z</time>
      </trkpt>
      <trkpt lat="43.61107" lon="6.56023">
        <ele>362.7</ele>
        <time>2020-05-31T12:42:03Z</time>
      </trkpt>
      <trkpt lat="43.61101" lon="6.5602">
        <ele>361.7</ele>
        <time>2020-05-31T12:42:07Z</time>
      </trkpt>
      <trkpt lat="43.61094" lon="6.56014">
        <ele>360.8</ele>
        <time>2020-05-31T12:42:11Z</time>
      </trkpt>
      <trkpt lat="43.61088" lon="6.56009">
        <ele>359.9</ele>
        <time>2020-05-31T12:42:15Z</time>
      </trkpt>
      <trkpt lat="43.61084" lon="6.56005">
        <ele>358.9</ele>
        <time>2020-05-31T12:42:20Z</time>
      </trkpt>
      <trkpt lat="43.61083" lon="6.55998">
        <ele>358</ele>
        <time>2020-05-31T12:42:26Z</time>
      </trkpt>
      <trkpt lat="43.61086" lon="6.55993">
        <ele>357.3</ele>
        <time>2020-05-31T12:42:30Z</time>
      </trkpt>
      <trkpt lat="43.6109" lon="6.5599">
        <ele>356.7</ele>
        <time>2020-05-31T12:42:34Z</time>
      </trkpt>
      <trkpt lat="43.61097" lon="6.5599">
        <ele>356.4</ele>
        <time>2020-05-31T12:42:38Z</time>
      </trkpt>
      <trkpt lat="43.61103" lon="6.55993">
        <ele>356.1</ele>
        <time>2020-05-31T12:42:42Z</time>
      </trkpt>
      <trkpt lat="43.61109" lon="6.55994">
        <ele>355.5</ele>
        <time>2020-05-31T12:42:46Z</time>
      </trkpt>
      <trkpt lat="43.61115" lon="6.55995">
        <ele>354.7</ele>
        <time>2020-05-31T12:42:50Z</time>
      </trkpt>
      <trkpt lat="43.61122" lon="6.55997">
        <ele>353.9</ele>
        <time>2020-05-31T12:42:54Z</time>
      </trkpt>
      <trkpt lat="43.61129" lon="6.55999">
        <ele>353</ele>
        <time>2020-05-31T12:42:58Z</time>
      </trkpt>
      <trkpt lat="43.61138" lon="6.56003">
        <ele>352.2</ele>
        <time>2020-05-31T12:43:02Z</time>
      </trkpt>
      <trkpt lat="43.61145" lon="6.56006">
        <ele>351.7</ele>
        <time>2020-05-31T12:43:06Z</time>
      </trkpt>
      <trkpt lat="43.61153" lon="6.56008">
        <ele>351.3</ele>
        <time>2020-05-31T12:43:10Z</time>
      </trkpt>
      <trkpt lat="43.61159" lon="6.5601">
        <ele>351</ele>
        <time>2020-05-31T12:43:14Z</time>
      </trkpt>
      <trkpt lat="43.61164" lon="6.56013">
        <ele>350.6</ele>
        <time>2020-05-31T12:43:18Z</time>
      </trkpt>
      <trkpt lat="43.61168" lon="6.56016">
        <ele>350.2</ele>
        <time>2020-05-31T12:43:22Z</time>
      </trkpt>
      <trkpt lat="43.61173" lon="6.56018">
        <ele>349.8</ele>
        <time>2020-05-31T12:43:27Z</time>
      </trkpt>
      <trkpt lat="43.61177" lon="6.56021">
        <ele>349.5</ele>
        <time>2020-05-31T12:43:32Z</time>
      </trkpt>
      <trkpt lat="43.61182" lon="6.56022">
        <ele>349.2</ele>
        <time>2020-05-31T12:43:36Z</time>
      </trkpt>
      <trkpt lat="43.61188" lon="6.56023">
        <ele>349</ele>
        <time>2020-05-31T12:43:40Z</time>
      </trkpt>
      <trkpt lat="43.61194" lon="6.56023">
        <ele>348.8</ele>
        <time>2020-05-31T12:43:44Z</time>
      </trkpt>
      <trkpt lat="43.61199" lon="6.56025">
        <ele>349</ele>
        <time>2020-05-31T12:43:48Z</time>
      </trkpt>
      <trkpt lat="43.61204" lon="6.56028">
        <ele>349.2</ele>
        <time>2020-05-31T12:43:52Z</time>
      </trkpt>
      <trkpt lat="43.61212" lon="6.5603">
        <ele>349.4</ele>
        <time>2020-05-31T12:43:56Z</time>
      </trkpt>
      <trkpt lat="43.61218" lon="6.56032">
        <ele>349.6</ele>
        <time>2020-05-31T12:44:00Z</time>
      </trkpt>
      <trkpt lat="43.61223" lon="6.56035">
        <ele>350.1</ele>
        <time>2020-05-31T12:44:05Z</time>
      </trkpt>
      <trkpt lat="43.61228" lon="6.56039">
        <ele>350.4</ele>
        <time>2020-05-31T12:44:09Z</time>
      </trkpt>
      <trkpt lat="43.61233" lon="6.56044">
        <ele>350.7</ele>
        <time>2020-05-31T12:44:13Z</time>
      </trkpt>
      <trkpt lat="43.61238" lon="6.56048">
        <ele>351.1</ele>
        <time>2020-05-31T12:44:17Z</time>
      </trkpt>
      <trkpt lat="43.61241" lon="6.56053">
        <ele>351.4</ele>
        <time>2020-05-31T12:44:21Z</time>
      </trkpt>
      <trkpt lat="43.61245" lon="6.56057">
        <ele>351.7</ele>
        <time>2020-05-31T12:44:25Z</time>
      </trkpt>
      <trkpt lat="43.61249" lon="6.56062">
        <ele>352.3</ele>
        <time>2020-05-31T12:44:30Z</time>
      </trkpt>
      <trkpt lat="43.61254" lon="6.56067">
        <ele>352.8</ele>
        <time>2020-05-31T12:44:34Z</time>
      </trkpt>
      <trkpt lat="43.61259" lon="6.5607">
        <ele>353.3</ele>
        <time>2020-05-31T12:44:38Z</time>
      </trkpt>
      <trkpt lat="43.61266" lon="6.56073">
        <ele>353.8</ele>
        <time>2020-05-31T12:44:42Z</time>
      </trkpt>
      <trkpt lat="43.61272" lon="6.56076">
        <ele>354.3</ele>
        <time>2020-05-31T12:44:46Z</time>
      </trkpt>
      <trkpt lat="43.6128" lon="6.56079">
        <ele>354.9</ele>
        <time>2020-05-31T12:44:50Z</time>
      </trkpt>
      <trkpt lat="43.61287" lon="6.56084">
        <ele>355.4</ele>
        <time>2020-05-31T12:44:54Z</time>
      </trkpt>
      <trkpt lat="43.61294" lon="6.56087">
        <ele>355.9</ele>
        <time>2020-05-31T12:44:58Z</time>
      </trkpt>
      <trkpt lat="43.61301" lon="6.56092">
        <ele>356.5</ele>
        <time>2020-05-31T12:45:02Z</time>
      </trkpt>
      <trkpt lat="43.61307" lon="6.56095">
        <ele>357</ele>
        <time>2020-05-31T12:45:06Z</time>
      </trkpt>
      <trkpt lat="43.61312" lon="6.56099">
        <ele>357.5</ele>
        <time>2020-05-31T12:45:10Z</time>
      </trkpt>
      <trkpt lat="43.61317" lon="6.56104">
        <ele>358.1</ele>
        <time>2020-05-31T12:45:15Z</time>
      </trkpt>
      <trkpt lat="43.61321" lon="6.56108">
        <ele>358.6</ele>
        <time>2020-05-31T12:45:19Z</time>
      </trkpt>
      <trkpt lat="43.61326" lon="6.56111">
        <ele>359.3</ele>
        <time>2020-05-31T12:45:24Z</time>
      </trkpt>
      <trkpt lat="43.6133" lon="6.56116">
        <ele>359.8</ele>
        <time>2020-05-31T12:45:28Z</time>
      </trkpt>
      <trkpt lat="43.61334" lon="6.5612">
        <ele>360.2</ele>
        <time>2020-05-31T12:45:32Z</time>
      </trkpt>
      <trkpt lat="43.6134" lon="6.56125">
        <ele>360.6</ele>
        <time>2020-05-31T12:45:36Z</time>
      </trkpt>
      <trkpt lat="43.61344" lon="6.56132">
        <ele>361</ele>
        <time>2020-05-31T12:45:40Z</time>
      </trkpt>
      <trkpt lat="43.61348" lon="6.56142">
        <ele>361.5</ele>
        <time>2020-05-31T12:45:44Z</time>
      </trkpt>
      <trkpt lat="43.61349" lon="6.56148">
        <ele>362</ele>
        <time>2020-05-31T12:45:49Z</time>
      </trkpt>
      <trkpt lat="43.61353" lon="6.56152">
        <ele>362.5</ele>
        <time>2020-05-31T12:45:55Z</time>
      </trkpt>
      <trkpt lat="43.61357" lon="6.56155">
        <ele>363</ele>
        <time>2020-05-31T12:45:59Z</time>
      </trkpt>
      <trkpt lat="43.61362" lon="6.56162">
        <ele>363.7</ele>
        <time>2020-05-31T12:46:03Z</time>
      </trkpt>
      <trkpt lat="43.61367" lon="6.56169">
        <ele>364.4</ele>
        <time>2020-05-31T12:46:07Z</time>
      </trkpt>
      <trkpt lat="43.61372" lon="6.56177">
        <ele>364.9</ele>
        <time>2020-05-31T12:46:11Z</time>
      </trkpt>
      <trkpt lat="43.61374" lon="6.56184">
        <ele>364.5</ele>
        <time>2020-05-31T12:46:16Z</time>
      </trkpt>
      <trkpt lat="43.61376" lon="6.56191">
        <ele>363.6</ele>
        <time>2020-05-31T12:46:20Z</time>
      </trkpt>
      <trkpt lat="43.61373" lon="6.56195">
        <ele>362.7</ele>
        <time>2020-05-31T12:46:25Z</time>
      </trkpt>
      <trkpt lat="43.61377" lon="6.562">
        <ele>362.3</ele>
        <time>2020-05-31T12:46:33Z</time>
      </trkpt>
      <trkpt lat="43.61387" lon="6.56207">
        <ele>362.3</ele>
        <time>2020-05-31T12:46:37Z</time>
      </trkpt>
      <trkpt lat="43.61397" lon="6.56218">
        <ele>362.2</ele>
        <time>2020-05-31T12:46:41Z</time>
      </trkpt>
      <trkpt lat="43.61404" lon="6.56229">
        <ele>362.3</ele>
        <time>2020-05-31T12:46:45Z</time>
      </trkpt>
      <trkpt lat="43.61407" lon="6.56236">
        <ele>362.4</ele>
        <time>2020-05-31T12:46:49Z</time>
      </trkpt>
      <trkpt lat="43.61413" lon="6.56244">
        <ele>362.8</ele>
        <time>2020-05-31T12:46:53Z</time>
      </trkpt>
      <trkpt lat="43.61419" lon="6.56251">
        <ele>363.4</ele>
        <time>2020-05-31T12:46:57Z</time>
      </trkpt>
      <trkpt lat="43.61422" lon="6.56256">
        <ele>364.7</ele>
        <time>2020-05-31T12:47:02Z</time>
      </trkpt>
      <trkpt lat="43.61422" lon="6.56263">
        <ele>366.6</ele>
        <time>2020-05-31T12:47:09Z</time>
      </trkpt>
      <trkpt lat="43.61426" lon="6.56269">
        <ele>367.1</ele>
        <time>2020-05-31T12:47:13Z</time>
      </trkpt>
      <trkpt lat="43.61431" lon="6.56276">
        <ele>367.2</ele>
        <time>2020-05-31T12:47:17Z</time>
      </trkpt>
      <trkpt lat="43.61436" lon="6.56283">
        <ele>367.2</ele>
        <time>2020-05-31T12:47:21Z</time>
      </trkpt>
      <trkpt lat="43.61439" lon="6.56291">
        <ele>366.7</ele>
        <time>2020-05-31T12:47:25Z</time>
      </trkpt>
      <trkpt lat="43.61444" lon="6.56298">
        <ele>366.8</ele>
        <time>2020-05-31T12:47:29Z</time>
      </trkpt>
      <trkpt lat="43.6145" lon="6.56305">
        <ele>367</ele>
        <time>2020-05-31T12:47:33Z</time>
      </trkpt>
      <trkpt lat="43.61452" lon="6.56311">
        <ele>366.5</ele>
        <time>2020-05-31T12:47:37Z</time>
      </trkpt>
      <trkpt lat="43.6145" lon="6.56318">
        <ele>365.2</ele>
        <time>2020-05-31T12:47:42Z</time>
      </trkpt>
      <trkpt lat="43.61455" lon="6.56325">
        <ele>364.2</ele>
        <time>2020-05-31T12:47:46Z</time>
      </trkpt>
      <trkpt lat="43.61462" lon="6.56332">
        <ele>363.3</ele>
        <time>2020-05-31T12:47:50Z</time>
      </trkpt>
      <trkpt lat="43.6147" lon="6.56339">
        <ele>362.6</ele>
        <time>2020-05-31T12:47:54Z</time>
      </trkpt>
      <trkpt lat="43.61473" lon="6.56347">
        <ele>362.6</ele>
        <time>2020-05-31T12:47:58Z</time>
      </trkpt>
      <trkpt lat="43.61476" lon="6.56354">
        <ele>362.9</ele>
        <time>2020-05-31T12:48:02Z</time>
      </trkpt>
      <trkpt lat="43.6148" lon="6.5636">
        <ele>363.3</ele>
        <time>2020-05-31T12:48:08Z</time>
      </trkpt>
      <trkpt lat="43.61482" lon="6.56368">
        <ele>363.5</ele>
        <time>2020-05-31T12:48:13Z</time>
      </trkpt>
      <trkpt lat="43.61485" lon="6.56378">
        <ele>362.7</ele>
        <time>2020-05-31T12:48:17Z</time>
      </trkpt>
      <trkpt lat="43.6149" lon="6.56389">
        <ele>361.8</ele>
        <time>2020-05-31T12:48:21Z</time>
      </trkpt>
      <trkpt lat="43.61493" lon="6.56398">
        <ele>361.2</ele>
        <time>2020-05-31T12:48:25Z</time>
      </trkpt>
      <trkpt lat="43.61493" lon="6.56405">
        <ele>360.5</ele>
        <time>2020-05-31T12:48:29Z</time>
      </trkpt>
      <trkpt lat="43.61496" lon="6.56411">
        <ele>360.1</ele>
        <time>2020-05-31T12:48:34Z</time>
      </trkpt>
      <trkpt lat="43.61499" lon="6.56418">
        <ele>360</ele>
        <time>2020-05-31T12:48:38Z</time>
      </trkpt>
      <trkpt lat="43.61502" lon="6.56426">
        <ele>360.1</ele>
        <time>2020-05-31T12:48:42Z</time>
      </trkpt>
      <trkpt lat="43.61503" lon="6.56433">
        <ele>360.3</ele>
        <time>2020-05-31T12:48:46Z</time>
      </trkpt>
      <trkpt lat="43.61502" lon="6.5644">
        <ele>360.2</ele>
        <time>2020-05-31T12:48:50Z</time>
      </trkpt>
      <trkpt lat="43.61502" lon="6.56447">
        <ele>359.4</ele>
        <time>2020-05-31T12:48:55Z</time>
      </trkpt>
      <trkpt lat="43.61503" lon="6.56455">
        <ele>358.8</ele>
        <time>2020-05-31T12:48:59Z</time>
      </trkpt>
      <trkpt lat="43.61505" lon="6.56461">
        <ele>358.2</ele>
        <time>2020-05-31T12:49:03Z</time>
      </trkpt>
      <trkpt lat="43.61508" lon="6.56469">
        <ele>357.6</ele>
        <time>2020-05-31T12:49:07Z</time>
      </trkpt>
      <trkpt lat="43.61507" lon="6.56476">
        <ele>356.7</ele>
        <time>2020-05-31T12:49:11Z</time>
      </trkpt>
      <trkpt lat="43.61505" lon="6.56482">
        <ele>355.9</ele>
        <time>2020-05-31T12:49:15Z</time>
      </trkpt>
      <trkpt lat="43.61505" lon="6.56488">
        <ele>354.7</ele>
        <time>2020-05-31T12:49:21Z</time>
      </trkpt>
      <trkpt lat="43.61508" lon="6.56495">
        <ele>354.1</ele>
        <time>2020-05-31T12:49:25Z</time>
      </trkpt>
      <trkpt lat="43.61512" lon="6.56504">
        <ele>353.8</ele>
        <time>2020-05-31T12:49:29Z</time>
      </trkpt>
      <trkpt lat="43.61514" lon="6.56512">
        <ele>353.6</ele>
        <time>2020-05-31T12:49:33Z</time>
      </trkpt>
      <trkpt lat="43.61515" lon="6.56522">
        <ele>353.4</ele>
        <time>2020-05-31T12:49:37Z</time>
      </trkpt>
      <trkpt lat="43.61518" lon="6.56533">
        <ele>353.2</ele>
        <time>2020-05-31T12:49:41Z</time>
      </trkpt>
      <trkpt lat="43.61522" lon="6.56543">
        <ele>353</ele>
        <time>2020-05-31T12:49:45Z</time>
      </trkpt>
      <trkpt lat="43.61523" lon="6.56551">
        <ele>352.8</ele>
        <time>2020-05-31T12:49:49Z</time>
      </trkpt>
      <trkpt lat="43.61525" lon="6.56558">
        <ele>352.5</ele>
        <time>2020-05-31T12:49:54Z</time>
      </trkpt>
      <trkpt lat="43.61527" lon="6.56564">
        <ele>352.3</ele>
        <time>2020-05-31T12:49:58Z</time>
      </trkpt>
      <trkpt lat="43.61529" lon="6.56574">
        <ele>352.4</ele>
        <time>2020-05-31T12:50:02Z</time>
      </trkpt>
      <trkpt lat="43.61534" lon="6.56597">
        <ele>353.5</ele>
        <time>2020-05-31T12:50:12Z</time>
      </trkpt>
      <trkpt lat="43.61531" lon="6.56602">
        <ele>354</ele>
        <time>2020-05-31T12:50:19Z</time>
      </trkpt>
      <trkpt lat="43.61532" lon="6.56609">
        <ele>354.5</ele>
        <time>2020-05-31T12:50:24Z</time>
      </trkpt>
      <trkpt lat="43.61539" lon="6.5662">
        <ele>354.7</ele>
        <time>2020-05-31T12:50:28Z</time>
      </trkpt>
      <trkpt lat="43.61544" lon="6.5663">
        <ele>354.9</ele>
        <time>2020-05-31T12:50:32Z</time>
      </trkpt>
      <trkpt lat="43.61548" lon="6.5664">
        <ele>354.8</ele>
        <time>2020-05-31T12:50:36Z</time>
      </trkpt>
      <trkpt lat="43.61549" lon="6.56646">
        <ele>354.3</ele>
        <time>2020-05-31T12:50:40Z</time>
      </trkpt>
      <trkpt lat="43.61548" lon="6.56653">
        <ele>353.8</ele>
        <time>2020-05-31T12:50:45Z</time>
      </trkpt>
      <trkpt lat="43.61546" lon="6.56659">
        <ele>353.3</ele>
        <time>2020-05-31T12:50:50Z</time>
      </trkpt>
      <trkpt lat="43.61548" lon="6.56664">
        <ele>352.6</ele>
        <time>2020-05-31T12:50:54Z</time>
      </trkpt>
      <trkpt lat="43.61553" lon="6.56671">
        <ele>351.8</ele>
        <time>2020-05-31T12:50:58Z</time>
      </trkpt>
      <trkpt lat="43.61559" lon="6.56679">
        <ele>351.3</ele>
        <time>2020-05-31T12:51:02Z</time>
      </trkpt>
      <trkpt lat="43.61567" lon="6.56686">
        <ele>351.2</ele>
        <time>2020-05-31T12:51:06Z</time>
      </trkpt>
      <trkpt lat="43.61573" lon="6.56691">
        <ele>351.3</ele>
        <time>2020-05-31T12:51:10Z</time>
      </trkpt>
      <trkpt lat="43.61578" lon="6.56697">
        <ele>351.4</ele>
        <time>2020-05-31T12:51:14Z</time>
      </trkpt>
      <trkpt lat="43.61584" lon="6.56702">
        <ele>351.7</ele>
        <time>2020-05-31T12:51:18Z</time>
      </trkpt>
      <trkpt lat="43.61588" lon="6.56706">
        <ele>351.6</ele>
        <time>2020-05-31T12:51:23Z</time>
      </trkpt>
      <trkpt lat="43.61591" lon="6.5671">
        <ele>351.3</ele>
        <time>2020-05-31T12:51:28Z</time>
      </trkpt>
      <trkpt lat="43.61597" lon="6.56714">
        <ele>351</ele>
        <time>2020-05-31T12:51:32Z</time>
      </trkpt>
      <trkpt lat="43.61603" lon="6.56718">
        <ele>350.7</ele>
        <time>2020-05-31T12:51:36Z</time>
      </trkpt>
      <trkpt lat="43.6161" lon="6.56721">
        <ele>350.5</ele>
        <time>2020-05-31T12:51:40Z</time>
      </trkpt>
      <trkpt lat="43.61618" lon="6.56727">
        <ele>350.4</ele>
        <time>2020-05-31T12:51:44Z</time>
      </trkpt>
      <trkpt lat="43.61624" lon="6.5673">
        <ele>350.3</ele>
        <time>2020-05-31T12:51:48Z</time>
      </trkpt>
      <trkpt lat="43.61629" lon="6.56732">
        <ele>350.3</ele>
        <time>2020-05-31T12:51:53Z</time>
      </trkpt>
      <trkpt lat="43.61634" lon="6.56734">
        <ele>349.8</ele>
        <time>2020-05-31T12:51:57Z</time>
      </trkpt>
      <trkpt lat="43.6164" lon="6.56738">
        <ele>348.3</ele>
        <time>2020-05-31T12:52:01Z</time>
      </trkpt>
      <trkpt lat="43.61646" lon="6.5674">
        <ele>346.8</ele>
        <time>2020-05-31T12:52:05Z</time>
      </trkpt>
      <trkpt lat="43.61652" lon="6.56741">
        <ele>345.6</ele>
        <time>2020-05-31T12:52:09Z</time>
      </trkpt>
      <trkpt lat="43.61658" lon="6.56741">
        <ele>344.8</ele>
        <time>2020-05-31T12:52:13Z</time>
      </trkpt>
      <trkpt lat="43.61664" lon="6.56741">
        <ele>344</ele>
        <time>2020-05-31T12:52:17Z</time>
      </trkpt>
      <trkpt lat="43.61671" lon="6.56741">
        <ele>343.2</ele>
        <time>2020-05-31T12:52:21Z</time>
      </trkpt>
      <trkpt lat="43.61676" lon="6.56742">
        <ele>342.2</ele>
        <time>2020-05-31T12:52:27Z</time>
      </trkpt>
      <trkpt lat="43.6168" lon="6.56741">
        <ele>342.5</ele>
        <time>2020-05-31T12:52:32Z</time>
      </trkpt>
      <trkpt lat="43.61685" lon="6.5674">
        <ele>342.8</ele>
        <time>2020-05-31T12:52:36Z</time>
      </trkpt>
      <trkpt lat="43.61691" lon="6.56738">
        <ele>343</ele>
        <time>2020-05-31T12:52:40Z</time>
      </trkpt>
      <trkpt lat="43.61696" lon="6.56735">
        <ele>342.8</ele>
        <time>2020-05-31T12:52:44Z</time>
      </trkpt>
      <trkpt lat="43.61701" lon="6.56733">
        <ele>342.4</ele>
        <time>2020-05-31T12:52:48Z</time>
      </trkpt>
      <trkpt lat="43.61706" lon="6.56731">
        <ele>341.8</ele>
        <time>2020-05-31T12:52:52Z</time>
      </trkpt>
      <trkpt lat="43.61712" lon="6.56729">
        <ele>341.2</ele>
        <time>2020-05-31T12:52:56Z</time>
      </trkpt>
      <trkpt lat="43.61718" lon="6.56727">
        <ele>340.6</ele>
        <time>2020-05-31T12:53:00Z</time>
      </trkpt>
      <trkpt lat="43.61724" lon="6.56724">
        <ele>339.8</ele>
        <time>2020-05-31T12:53:04Z</time>
      </trkpt>
      <trkpt lat="43.61732" lon="6.5672">
        <ele>339.2</ele>
        <time>2020-05-31T12:53:08Z</time>
      </trkpt>
      <trkpt lat="43.61739" lon="6.56716">
        <ele>338.6</ele>
        <time>2020-05-31T12:53:12Z</time>
      </trkpt>
      <trkpt lat="43.61744" lon="6.56712">
        <ele>338</ele>
        <time>2020-05-31T12:53:16Z</time>
      </trkpt>
      <trkpt lat="43.61748" lon="6.56707">
        <ele>337.4</ele>
        <time>2020-05-31T12:53:21Z</time>
      </trkpt>
      <trkpt lat="43.61751" lon="6.56702">
        <ele>336.6</ele>
        <time>2020-05-31T12:53:26Z</time>
      </trkpt>
      <trkpt lat="43.61756" lon="6.56698">
        <ele>336.1</ele>
        <time>2020-05-31T12:53:30Z</time>
      </trkpt>
      <trkpt lat="43.61761" lon="6.56691">
        <ele>335.5</ele>
        <time>2020-05-31T12:53:34Z</time>
      </trkpt>
      <trkpt lat="43.61768" lon="6.56686">
        <ele>334.9</ele>
        <time>2020-05-31T12:53:38Z</time>
      </trkpt>
      <trkpt lat="43.61772" lon="6.56681">
        <ele>334.3</ele>
        <time>2020-05-31T12:53:42Z</time>
      </trkpt>
      <trkpt lat="43.61776" lon="6.56672">
        <ele>334</ele>
        <time>2020-05-31T12:53:46Z</time>
      </trkpt>
      <trkpt lat="43.6178" lon="6.56665">
        <ele>333.7</ele>
        <time>2020-05-31T12:53:50Z</time>
      </trkpt>
      <trkpt lat="43.61784" lon="6.56661">
        <ele>333.5</ele>
        <time>2020-05-31T12:53:54Z</time>
      </trkpt>
      <trkpt lat="43.61787" lon="6.56656">
        <ele>333.6</ele>
        <time>2020-05-31T12:53:58Z</time>
      </trkpt>
      <trkpt lat="43.6179" lon="6.5665">
        <ele>334</ele>
        <time>2020-05-31T12:54:02Z</time>
      </trkpt>
      <trkpt lat="43.61795" lon="6.56644">
        <ele>334</ele>
        <time>2020-05-31T12:54:06Z</time>
      </trkpt>
      <trkpt lat="43.618" lon="6.56637">
        <ele>333.7</ele>
        <time>2020-05-31T12:54:10Z</time>
      </trkpt>
      <trkpt lat="43.61804" lon="6.56628">
        <ele>333.4</ele>
        <time>2020-05-31T12:54:14Z</time>
      </trkpt>
      <trkpt lat="43.61807" lon="6.5662">
        <ele>333.5</ele>
        <time>2020-05-31T12:54:18Z</time>
      </trkpt>
      <trkpt lat="43.61808" lon="6.56614">
        <ele>334.1</ele>
        <time>2020-05-31T12:54:23Z</time>
      </trkpt>
      <trkpt lat="43.61811" lon="6.56608">
        <ele>335.1</ele>
        <time>2020-05-31T12:54:28Z</time>
      </trkpt>
      <trkpt lat="43.61814" lon="6.56603">
        <ele>335.5</ele>
        <time>2020-05-31T12:54:32Z</time>
      </trkpt>
      <trkpt lat="43.61819" lon="6.56595">
        <ele>335.7</ele>
        <time>2020-05-31T12:54:36Z</time>
      </trkpt>
      <trkpt lat="43.61824" lon="6.56589">
        <ele>335.8</ele>
        <time>2020-05-31T12:54:40Z</time>
      </trkpt>
      <trkpt lat="43.61827" lon="6.56584">
        <ele>336</ele>
        <time>2020-05-31T12:54:45Z</time>
      </trkpt>
      <trkpt lat="43.61831" lon="6.56582">
        <ele>336.3</ele>
        <time>2020-05-31T12:54:49Z</time>
      </trkpt>
      <trkpt lat="43.61838" lon="6.56582">
        <ele>336.2</ele>
        <time>2020-05-31T12:54:53Z</time>
      </trkpt>
      <trkpt lat="43.61844" lon="6.56587">
        <ele>335.9</ele>
        <time>2020-05-31T12:54:57Z</time>
      </trkpt>
      <trkpt lat="43.61849" lon="6.56595">
        <ele>335.8</ele>
        <time>2020-05-31T12:55:01Z</time>
      </trkpt>
      <trkpt lat="43.61854" lon="6.56603">
        <ele>336.2</ele>
        <time>2020-05-31T12:55:05Z</time>
      </trkpt>
      <trkpt lat="43.61856" lon="6.5661">
        <ele>337.5</ele>
        <time>2020-05-31T12:55:09Z</time>
      </trkpt>
      <trkpt lat="43.61858" lon="6.56618">
        <ele>338.5</ele>
        <time>2020-05-31T12:55:13Z</time>
      </trkpt>
      <trkpt lat="43.6186" lon="6.56626">
        <ele>339.4</ele>
        <time>2020-05-31T12:55:17Z</time>
      </trkpt>
      <trkpt lat="43.61862" lon="6.56632">
        <ele>340.6</ele>
        <time>2020-05-31T12:55:23Z</time>
      </trkpt>
      <trkpt lat="43.61866" lon="6.56638">
        <ele>341.3</ele>
        <time>2020-05-31T12:55:28Z</time>
      </trkpt>
      <trkpt lat="43.61869" lon="6.56644">
        <ele>341.7</ele>
        <time>2020-05-31T12:55:32Z</time>
      </trkpt>
      <trkpt lat="43.61873" lon="6.56651">
        <ele>342.5</ele>
        <time>2020-05-31T12:55:36Z</time>
      </trkpt>
      <trkpt lat="43.61877" lon="6.56656">
        <ele>343.6</ele>
        <time>2020-05-31T12:55:42Z</time>
      </trkpt>
      <trkpt lat="43.6188" lon="6.56664">
        <ele>344.4</ele>
        <time>2020-05-31T12:55:46Z</time>
      </trkpt>
      <trkpt lat="43.61883" lon="6.56672">
        <ele>345.4</ele>
        <time>2020-05-31T12:55:50Z</time>
      </trkpt>
      <trkpt lat="43.61889" lon="6.5668">
        <ele>346.7</ele>
        <time>2020-05-31T12:55:54Z</time>
      </trkpt>
      <trkpt lat="43.61893" lon="6.56686">
        <ele>347.6</ele>
        <time>2020-05-31T12:55:58Z</time>
      </trkpt>
      <trkpt lat="43.61897" lon="6.56692">
        <ele>346.9</ele>
        <time>2020-05-31T12:56:02Z</time>
      </trkpt>
      <trkpt lat="43.619" lon="6.56699">
        <ele>346</ele>
        <time>2020-05-31T12:56:06Z</time>
      </trkpt>
      <trkpt lat="43.61903" lon="6.56706">
        <ele>345</ele>
        <time>2020-05-31T12:56:10Z</time>
      </trkpt>
      <trkpt lat="43.61904" lon="6.56713">
        <ele>344.1</ele>
        <time>2020-05-31T12:56:14Z</time>
      </trkpt>
      <trkpt lat="43.61906" lon="6.5672">
        <ele>343.3</ele>
        <time>2020-05-31T12:56:18Z</time>
      </trkpt>
      <trkpt lat="43.61909" lon="6.56727">
        <ele>342.8</ele>
        <time>2020-05-31T12:56:22Z</time>
      </trkpt>
      <trkpt lat="43.61912" lon="6.56734">
        <ele>341.8</ele>
        <time>2020-05-31T12:56:26Z</time>
      </trkpt>
      <trkpt lat="43.61915" lon="6.56739">
        <ele>340.5</ele>
        <time>2020-05-31T12:56:31Z</time>
      </trkpt>
      <trkpt lat="43.61919" lon="6.56743">
        <ele>339.2</ele>
        <time>2020-05-31T12:56:36Z</time>
      </trkpt>
      <trkpt lat="43.61923" lon="6.56748">
        <ele>338.5</ele>
        <time>2020-05-31T12:56:40Z</time>
      </trkpt>
      <trkpt lat="43.61927" lon="6.56756">
        <ele>338.2</ele>
        <time>2020-05-31T12:56:44Z</time>
      </trkpt>
      <trkpt lat="43.61931" lon="6.56765">
        <ele>338</ele>
        <time>2020-05-31T12:56:48Z</time>
      </trkpt>
      <trkpt lat="43.61935" lon="6.56772">
        <ele>337.8</ele>
        <time>2020-05-31T12:56:52Z</time>
      </trkpt>
      <trkpt lat="43.61938" lon="6.56777">
        <ele>337.3</ele>
        <time>2020-05-31T12:56:56Z</time>
      </trkpt>
      <trkpt lat="43.61941" lon="6.56783">
        <ele>337</ele>
        <time>2020-05-31T12:57:01Z</time>
      </trkpt>
      <trkpt lat="43.61945" lon="6.56786">
        <ele>337</ele>
        <time>2020-05-31T12:57:05Z</time>
      </trkpt>
      <trkpt lat="43.61948" lon="6.56791">
        <ele>337.4</ele>
        <time>2020-05-31T12:57:10Z</time>
      </trkpt>
      <trkpt lat="43.61951" lon="6.568">
        <ele>337.7</ele>
        <time>2020-05-31T12:57:14Z</time>
      </trkpt>
      <trkpt lat="43.61954" lon="6.5681">
        <ele>338.1</ele>
        <time>2020-05-31T12:57:18Z</time>
      </trkpt>
      <trkpt lat="43.61955" lon="6.56821">
        <ele>338.6</ele>
        <time>2020-05-31T12:57:22Z</time>
      </trkpt>
      <trkpt lat="43.61949" lon="6.56828">
        <ele>338.8</ele>
        <time>2020-05-31T12:57:26Z</time>
      </trkpt>
      <trkpt lat="43.61943" lon="6.56832">
        <ele>338.6</ele>
        <time>2020-05-31T12:57:30Z</time>
      </trkpt>
      <trkpt lat="43.61939" lon="6.56837">
        <ele>338.3</ele>
        <time>2020-05-31T12:57:34Z</time>
      </trkpt>
      <trkpt lat="43.61934" lon="6.56844">
        <ele>338.3</ele>
        <time>2020-05-31T12:57:38Z</time>
      </trkpt>
      <trkpt lat="43.61932" lon="6.56853">
        <ele>338.2</ele>
        <time>2020-05-31T12:57:42Z</time>
      </trkpt>
      <trkpt lat="43.61932" lon="6.5686">
        <ele>338.3</ele>
        <time>2020-05-31T12:57:46Z</time>
      </trkpt>
      <trkpt lat="43.61932" lon="6.56867">
        <ele>338.8</ele>
        <time>2020-05-31T12:57:50Z</time>
      </trkpt>
      <trkpt lat="43.61929" lon="6.56872">
        <ele>339.1</ele>
        <time>2020-05-31T12:57:54Z</time>
      </trkpt>
      <trkpt lat="43.61924" lon="6.56879">
        <ele>339.6</ele>
        <time>2020-05-31T12:57:58Z</time>
      </trkpt>
      <trkpt lat="43.61921" lon="6.56884">
        <ele>339.9</ele>
        <time>2020-05-31T12:58:02Z</time>
      </trkpt>
      <trkpt lat="43.61917" lon="6.56889">
        <ele>340.2</ele>
        <time>2020-05-31T12:58:06Z</time>
      </trkpt>
      <trkpt lat="43.61914" lon="6.56895">
        <ele>340.5</ele>
        <time>2020-05-31T12:58:10Z</time>
      </trkpt>
      <trkpt lat="43.61911" lon="6.56902">
        <ele>340.7</ele>
        <time>2020-05-31T12:58:14Z</time>
      </trkpt>
      <trkpt lat="43.61909" lon="6.56909">
        <ele>340.8</ele>
        <time>2020-05-31T12:58:18Z</time>
      </trkpt>
      <trkpt lat="43.61908" lon="6.56916">
        <ele>340.7</ele>
        <time>2020-05-31T12:58:23Z</time>
      </trkpt>
      <trkpt lat="43.61907" lon="6.56923">
        <ele>340.8</ele>
        <time>2020-05-31T12:58:27Z</time>
      </trkpt>
      <trkpt lat="43.61906" lon="6.56931">
        <ele>341</ele>
        <time>2020-05-31T12:58:31Z</time>
      </trkpt>
      <trkpt lat="43.61908" lon="6.5694">
        <ele>341.3</ele>
        <time>2020-05-31T12:58:35Z</time>
      </trkpt>
      <trkpt lat="43.6191" lon="6.56948">
        <ele>341.9</ele>
        <time>2020-05-31T12:58:39Z</time>
      </trkpt>
      <trkpt lat="43.61908" lon="6.56956">
        <ele>342.8</ele>
        <time>2020-05-31T12:58:43Z</time>
      </trkpt>
      <trkpt lat="43.61904" lon="6.56963">
        <ele>344.1</ele>
        <time>2020-05-31T12:58:47Z</time>
      </trkpt>
      <trkpt lat="43.619" lon="6.56971">
        <ele>345.4</ele>
        <time>2020-05-31T12:58:51Z</time>
      </trkpt>
      <trkpt lat="43.61897" lon="6.56976">
        <ele>346.2</ele>
        <time>2020-05-31T12:58:56Z</time>
      </trkpt>
      <trkpt lat="43.61895" lon="6.56983">
        <ele>346.8</ele>
        <time>2020-05-31T12:59:02Z</time>
      </trkpt>
      <trkpt lat="43.61895" lon="6.56991">
        <ele>347.1</ele>
        <time>2020-05-31T12:59:06Z</time>
      </trkpt>
      <trkpt lat="43.61893" lon="6.57001">
        <ele>347.3</ele>
        <time>2020-05-31T12:59:10Z</time>
      </trkpt>
      <trkpt lat="43.61891" lon="6.57008">
        <ele>347.4</ele>
        <time>2020-05-31T12:59:14Z</time>
      </trkpt>
      <trkpt lat="43.61892" lon="6.57017">
        <ele>347.3</ele>
        <time>2020-05-31T12:59:18Z</time>
      </trkpt>
      <trkpt lat="43.61893" lon="6.57026">
        <ele>347.3</ele>
        <time>2020-05-31T12:59:22Z</time>
      </trkpt>
      <trkpt lat="43.61892" lon="6.57036">
        <ele>347.5</ele>
        <time>2020-05-31T12:59:26Z</time>
      </trkpt>
      <trkpt lat="43.61892" lon="6.57043">
        <ele>347.7</ele>
        <time>2020-05-31T12:59:30Z</time>
      </trkpt>
      <trkpt lat="43.61892" lon="6.5705">
        <ele>347.5</ele>
        <time>2020-05-31T12:59:35Z</time>
      </trkpt>
      <trkpt lat="43.61893" lon="6.57058">
        <ele>347.1</ele>
        <time>2020-05-31T12:59:39Z</time>
      </trkpt>
      <trkpt lat="43.61893" lon="6.57069">
        <ele>346.9</ele>
        <time>2020-05-31T12:59:43Z</time>
      </trkpt>
      <trkpt lat="43.61893" lon="6.5708">
        <ele>346.8</ele>
        <time>2020-05-31T12:59:47Z</time>
      </trkpt>
      <trkpt lat="43.61892" lon="6.57087">
        <ele>346.6</ele>
        <time>2020-05-31T12:59:53Z</time>
      </trkpt>
      <trkpt lat="43.61891" lon="6.57095">
        <ele>346.5</ele>
        <time>2020-05-31T12:59:57Z</time>
      </trkpt>
      <trkpt lat="43.61888" lon="6.57106">
        <ele>346.9</ele>
        <time>2020-05-31T13:00:01Z</time>
      </trkpt>
      <trkpt lat="43.61886" lon="6.57114">
        <ele>347.7</ele>
        <time>2020-05-31T13:00:05Z</time>
      </trkpt>
      <trkpt lat="43.61883" lon="6.5712">
        <ele>349</ele>
        <time>2020-05-31T13:00:10Z</time>
      </trkpt>
      <trkpt lat="43.6188" lon="6.57128">
        <ele>349.7</ele>
        <time>2020-05-31T13:00:14Z</time>
      </trkpt>
      <trkpt lat="43.61879" lon="6.57138">
        <ele>350.1</ele>
        <time>2020-05-31T13:00:18Z</time>
      </trkpt>
      <trkpt lat="43.61877" lon="6.57144">
        <ele>350.5</ele>
        <time>2020-05-31T13:00:22Z</time>
      </trkpt>
      <trkpt lat="43.61876" lon="6.57152">
        <ele>351</ele>
        <time>2020-05-31T13:00:27Z</time>
      </trkpt>
      <trkpt lat="43.61875" lon="6.57163">
        <ele>351.3</ele>
        <time>2020-05-31T13:00:31Z</time>
      </trkpt>
      <trkpt lat="43.61874" lon="6.57171">
        <ele>351.9</ele>
        <time>2020-05-31T13:00:35Z</time>
      </trkpt>
      <trkpt lat="43.61874" lon="6.57178">
        <ele>352.9</ele>
        <time>2020-05-31T13:00:41Z</time>
      </trkpt>
      <trkpt lat="43.61874" lon="6.57186">
        <ele>353.4</ele>
        <time>2020-05-31T13:00:45Z</time>
      </trkpt>
      <trkpt lat="43.61874" lon="6.57198">
        <ele>353.6</ele>
        <time>2020-05-31T13:00:49Z</time>
      </trkpt>
      <trkpt lat="43.61873" lon="6.57205">
        <ele>353.8</ele>
        <time>2020-05-31T13:00:53Z</time>
      </trkpt>
      <trkpt lat="43.61873" lon="6.57211">
        <ele>354</ele>
        <time>2020-05-31T13:00:57Z</time>
      </trkpt>
      <trkpt lat="43.61874" lon="6.5722">
        <ele>354</ele>
        <time>2020-05-31T13:01:01Z</time>
      </trkpt>
      <trkpt lat="43.61876" lon="6.5723">
        <ele>353.8</ele>
        <time>2020-05-31T13:01:05Z</time>
      </trkpt>
      <trkpt lat="43.61877" lon="6.57239">
        <ele>353.7</ele>
        <time>2020-05-31T13:01:09Z</time>
      </trkpt>
      <trkpt lat="43.61878" lon="6.57247">
        <ele>353.5</ele>
        <time>2020-05-31T13:01:13Z</time>
      </trkpt>
      <trkpt lat="43.61877" lon="6.57253">
        <ele>353.2</ele>
        <time>2020-05-31T13:01:17Z</time>
      </trkpt>
      <trkpt lat="43.61877" lon="6.5726">
        <ele>353.1</ele>
        <time>2020-05-31T13:01:21Z</time>
      </trkpt>
      <trkpt lat="43.61878" lon="6.57268">
        <ele>353.3</ele>
        <time>2020-05-31T13:01:25Z</time>
      </trkpt>
      <trkpt lat="43.6188" lon="6.57275">
        <ele>353.7</ele>
        <time>2020-05-31T13:01:29Z</time>
      </trkpt>
      <trkpt lat="43.61881" lon="6.57282">
        <ele>354.8</ele>
        <time>2020-05-31T13:01:34Z</time>
      </trkpt>
      <trkpt lat="43.61882" lon="6.57292">
        <ele>355.9</ele>
        <time>2020-05-31T13:01:38Z</time>
      </trkpt>
      <trkpt lat="43.61883" lon="6.57302">
        <ele>356.9</ele>
        <time>2020-05-31T13:01:42Z</time>
      </trkpt>
      <trkpt lat="43.61885" lon="6.57307">
        <ele>358.4</ele>
        <time>2020-05-31T13:01:48Z</time>
      </trkpt>
      <trkpt lat="43.61885" lon="6.57315">
        <ele>359.8</ele>
        <time>2020-05-31T13:01:53Z</time>
      </trkpt>
      <trkpt lat="43.61884" lon="6.57323">
        <ele>361</ele>
        <time>2020-05-31T13:01:57Z</time>
      </trkpt>
      <trkpt lat="43.61885" lon="6.57331">
        <ele>362.2</ele>
        <time>2020-05-31T13:02:01Z</time>
      </trkpt>
      <trkpt lat="43.61888" lon="6.57336">
        <ele>363.4</ele>
        <time>2020-05-31T13:02:06Z</time>
      </trkpt>
      <trkpt lat="43.6189" lon="6.57343">
        <ele>364.2</ele>
        <time>2020-05-31T13:02:10Z</time>
      </trkpt>
      <trkpt lat="43.61893" lon="6.57352">
        <ele>365.1</ele>
        <time>2020-05-31T13:02:14Z</time>
      </trkpt>
      <trkpt lat="43.61894" lon="6.5736">
        <ele>365.5</ele>
        <time>2020-05-31T13:02:18Z</time>
      </trkpt>
      <trkpt lat="43.61897" lon="6.57369">
        <ele>365.6</ele>
        <time>2020-05-31T13:02:22Z</time>
      </trkpt>
      <trkpt lat="43.61899" lon="6.57379">
        <ele>365.6</ele>
        <time>2020-05-31T13:02:26Z</time>
      </trkpt>
      <trkpt lat="43.61899" lon="6.57386">
        <ele>365.7</ele>
        <time>2020-05-31T13:02:30Z</time>
      </trkpt>
      <trkpt lat="43.61904" lon="6.57392">
        <ele>365.8</ele>
        <time>2020-05-31T13:02:34Z</time>
      </trkpt>
      <trkpt lat="43.61907" lon="6.57399">
        <ele>366</ele>
        <time>2020-05-31T13:02:38Z</time>
      </trkpt>
      <trkpt lat="43.6191" lon="6.57404">
        <ele>365.9</ele>
        <time>2020-05-31T13:02:44Z</time>
      </trkpt>
      <trkpt lat="43.61912" lon="6.57409">
        <ele>364</ele>
        <time>2020-05-31T13:03:07Z</time>
      </trkpt>
      <trkpt lat="43.61912" lon="6.57416">
        <ele>364.1</ele>
        <time>2020-05-31T13:03:15Z</time>
      </trkpt>
      <trkpt lat="43.61906" lon="6.57418">
        <ele>364.2</ele>
        <time>2020-05-31T13:03:21Z</time>
      </trkpt>
      <trkpt lat="43.61911" lon="6.57424">
        <ele>363.9</ele>
        <time>2020-05-31T13:03:36Z</time>
      </trkpt>
      <trkpt lat="43.61913" lon="6.5743">
        <ele>363.7</ele>
        <time>2020-05-31T13:03:40Z</time>
      </trkpt>
      <trkpt lat="43.61917" lon="6.5744">
        <ele>363.5</ele>
        <time>2020-05-31T13:03:44Z</time>
      </trkpt>
      <trkpt lat="43.6192" lon="6.57447">
        <ele>363.4</ele>
        <time>2020-05-31T13:03:48Z</time>
      </trkpt>
      <trkpt lat="43.61922" lon="6.57452">
        <ele>363.4</ele>
        <time>2020-05-31T13:03:52Z</time>
      </trkpt>
      <trkpt lat="43.61925" lon="6.57458">
        <ele>363.4</ele>
        <time>2020-05-31T13:03:56Z</time>
      </trkpt>
      <trkpt lat="43.61928" lon="6.57464">
        <ele>363.5</ele>
        <time>2020-05-31T13:04:01Z</time>
      </trkpt>
      <trkpt lat="43.61929" lon="6.57471">
        <ele>363.5</ele>
        <time>2020-05-31T13:04:07Z</time>
      </trkpt>
      <trkpt lat="43.61932" lon="6.57479">
        <ele>363.5</ele>
        <time>2020-05-31T13:04:11Z</time>
      </trkpt>
      <trkpt lat="43.61933" lon="6.57487">
        <ele>363.5</ele>
        <time>2020-05-31T13:04:15Z</time>
      </trkpt>
      <trkpt lat="43.61935" lon="6.57494">
        <ele>363.5</ele>
        <time>2020-05-31T13:04:19Z</time>
      </trkpt>
      <trkpt lat="43.61937" lon="6.575">
        <ele>363.5</ele>
        <time>2020-05-31T13:04:23Z</time>
      </trkpt>
      <trkpt lat="43.61939" lon="6.57508">
        <ele>363.4</ele>
        <time>2020-05-31T13:04:27Z</time>
      </trkpt>
      <trkpt lat="43.61939" lon="6.57515">
        <ele>363.4</ele>
        <time>2020-05-31T13:04:31Z</time>
      </trkpt>
      <trkpt lat="43.6194" lon="6.57522">
        <ele>363.5</ele>
        <time>2020-05-31T13:04:36Z</time>
      </trkpt>
      <trkpt lat="43.6194" lon="6.57529">
        <ele>363.6</ele>
        <time>2020-05-31T13:04:40Z</time>
      </trkpt>
      <trkpt lat="43.61941" lon="6.57535">
        <ele>363.7</ele>
        <time>2020-05-31T13:04:44Z</time>
      </trkpt>
      <trkpt lat="43.61944" lon="6.57542">
        <ele>363.7</ele>
        <time>2020-05-31T13:04:49Z</time>
      </trkpt>
      <trkpt lat="43.61947" lon="6.57551">
        <ele>363.8</ele>
        <time>2020-05-31T13:04:53Z</time>
      </trkpt>
      <trkpt lat="43.61952" lon="6.57561">
        <ele>363.9</ele>
        <time>2020-05-31T13:04:57Z</time>
      </trkpt>
      <trkpt lat="43.61955" lon="6.57568">
        <ele>364</ele>
        <time>2020-05-31T13:05:01Z</time>
      </trkpt>
      <trkpt lat="43.61959" lon="6.57574">
        <ele>364.2</ele>
        <time>2020-05-31T13:05:05Z</time>
      </trkpt>
      <trkpt lat="43.61963" lon="6.57583">
        <ele>364.2</ele>
        <time>2020-05-31T13:05:09Z</time>
      </trkpt>
      <trkpt lat="43.61966" lon="6.57592">
        <ele>364.2</ele>
        <time>2020-05-31T13:05:13Z</time>
      </trkpt>
      <trkpt lat="43.6197" lon="6.576">
        <ele>364.2</ele>
        <time>2020-05-31T13:05:17Z</time>
      </trkpt>
      <trkpt lat="43.61971" lon="6.57606">
        <ele>364.2</ele>
        <time>2020-05-31T13:05:23Z</time>
      </trkpt>
      <trkpt lat="43.61974" lon="6.57613">
        <ele>364.5</ele>
        <time>2020-05-31T13:05:28Z</time>
      </trkpt>
      <trkpt lat="43.61978" lon="6.5762">
        <ele>364.6</ele>
        <time>2020-05-31T13:05:32Z</time>
      </trkpt>
      <trkpt lat="43.61981" lon="6.57627">
        <ele>364.9</ele>
        <time>2020-05-31T13:05:36Z</time>
      </trkpt>
      <trkpt lat="43.61983" lon="6.57633">
        <ele>365.2</ele>
        <time>2020-05-31T13:05:40Z</time>
      </trkpt>
      <trkpt lat="43.61986" lon="6.57643">
        <ele>365.5</ele>
        <time>2020-05-31T13:05:44Z</time>
      </trkpt>
      <trkpt lat="43.61989" lon="6.57652">
        <ele>365.7</ele>
        <time>2020-05-31T13:05:48Z</time>
      </trkpt>
      <trkpt lat="43.61991" lon="6.57658">
        <ele>365.9</ele>
        <time>2020-05-31T13:05:52Z</time>
      </trkpt>
      <trkpt lat="43.61991" lon="6.57666">
        <ele>366.1</ele>
        <time>2020-05-31T13:05:56Z</time>
      </trkpt>
      <trkpt lat="43.61992" lon="6.57673">
        <ele>366.2</ele>
        <time>2020-05-31T13:06:03Z</time>
      </trkpt>
      <trkpt lat="43.61994" lon="6.57682">
        <ele>366.2</ele>
        <time>2020-05-31T13:06:07Z</time>
      </trkpt>
      <trkpt lat="43.61998" lon="6.5769">
        <ele>366.3</ele>
        <time>2020-05-31T13:06:11Z</time>
      </trkpt>
      <trkpt lat="43.61999" lon="6.57698">
        <ele>366.5</ele>
        <time>2020-05-31T13:06:16Z</time>
      </trkpt>
      <trkpt lat="43.62001" lon="6.57704">
        <ele>366.7</ele>
        <time>2020-05-31T13:06:20Z</time>
      </trkpt>
      <trkpt lat="43.62004" lon="6.57709">
        <ele>367</ele>
        <time>2020-05-31T13:06:25Z</time>
      </trkpt>
      <trkpt lat="43.62007" lon="6.57716">
        <ele>367.6</ele>
        <time>2020-05-31T13:06:30Z</time>
      </trkpt>
      <trkpt lat="43.62011" lon="6.57722">
        <ele>367.9</ele>
        <time>2020-05-31T13:06:34Z</time>
      </trkpt>
      <trkpt lat="43.62015" lon="6.57728">
        <ele>368.1</ele>
        <time>2020-05-31T13:06:38Z</time>
      </trkpt>
      <trkpt lat="43.62018" lon="6.57734">
        <ele>368.4</ele>
        <time>2020-05-31T13:06:43Z</time>
      </trkpt>
      <trkpt lat="43.62021" lon="6.5774">
        <ele>368.8</ele>
        <time>2020-05-31T13:06:47Z</time>
      </trkpt>
      <trkpt lat="43.62022" lon="6.57745">
        <ele>369.1</ele>
        <time>2020-05-31T13:06:52Z</time>
      </trkpt>
      <trkpt lat="43.62024" lon="6.57752">
        <ele>369.7</ele>
        <time>2020-05-31T13:06:58Z</time>
      </trkpt>
      <trkpt lat="43.62026" lon="6.57758">
        <ele>370.4</ele>
        <time>2020-05-31T13:07:04Z</time>
      </trkpt>
      <trkpt lat="43.62027" lon="6.57765">
        <ele>370.9</ele>
        <time>2020-05-31T13:07:08Z</time>
      </trkpt>
      <trkpt lat="43.6203" lon="6.5777">
        <ele>371.4</ele>
        <time>2020-05-31T13:07:12Z</time>
      </trkpt>
      <trkpt lat="43.62032" lon="6.57777">
        <ele>372</ele>
        <time>2020-05-31T13:07:16Z</time>
      </trkpt>
      <trkpt lat="43.62034" lon="6.57783">
        <ele>372.7</ele>
        <time>2020-05-31T13:07:20Z</time>
      </trkpt>
      <trkpt lat="43.62036" lon="6.57789">
        <ele>373.5</ele>
        <time>2020-05-31T13:07:24Z</time>
      </trkpt>
      <trkpt lat="43.62036" lon="6.57796">
        <ele>375</ele>
        <time>2020-05-31T13:07:32Z</time>
      </trkpt>
      <trkpt lat="43.62038" lon="6.57803">
        <ele>375.7</ele>
        <time>2020-05-31T13:07:37Z</time>
      </trkpt>
      <trkpt lat="43.62039" lon="6.57809">
        <ele>376.3</ele>
        <time>2020-05-31T13:07:41Z</time>
      </trkpt>
      <trkpt lat="43.62041" lon="6.57815">
        <ele>377</ele>
        <time>2020-05-31T13:07:45Z</time>
      </trkpt>
      <trkpt lat="43.62041" lon="6.57823">
        <ele>377.9</ele>
        <time>2020-05-31T13:07:50Z</time>
      </trkpt>
      <trkpt lat="43.62043" lon="6.57829">
        <ele>378.9</ele>
        <time>2020-05-31T13:07:55Z</time>
      </trkpt>
      <trkpt lat="43.62044" lon="6.57835">
        <ele>380.5</ele>
        <time>2020-05-31T13:08:02Z</time>
      </trkpt>
      <trkpt lat="43.62042" lon="6.57842">
        <ele>381.4</ele>
        <time>2020-05-31T13:08:07Z</time>
      </trkpt>
      <trkpt lat="43.62039" lon="6.57847">
        <ele>382.1</ele>
        <time>2020-05-31T13:08:12Z</time>
      </trkpt>
      <trkpt lat="43.62036" lon="6.57853">
        <ele>382.5</ele>
        <time>2020-05-31T13:08:17Z</time>
      </trkpt>
      <trkpt lat="43.62034" lon="6.57859">
        <ele>382.5</ele>
        <time>2020-05-31T13:08:21Z</time>
      </trkpt>
      <trkpt lat="43.62035" lon="6.57865">
        <ele>382.6</ele>
        <time>2020-05-31T13:08:25Z</time>
      </trkpt>
      <trkpt lat="43.62036" lon="6.57872">
        <ele>382.4</ele>
        <time>2020-05-31T13:08:29Z</time>
      </trkpt>
      <trkpt lat="43.62034" lon="6.57877">
        <ele>382.1</ele>
        <time>2020-05-31T13:08:33Z</time>
      </trkpt>
      <trkpt lat="43.62031" lon="6.57884">
        <ele>381.7</ele>
        <time>2020-05-31T13:08:38Z</time>
      </trkpt>
      <trkpt lat="43.62031" lon="6.57891">
        <ele>381.7</ele>
        <time>2020-05-31T13:08:43Z</time>
      </trkpt>
      <trkpt lat="43.62033" lon="6.579">
        <ele>382</ele>
        <time>2020-05-31T13:08:47Z</time>
      </trkpt>
      <trkpt lat="43.62035" lon="6.57906">
        <ele>382.3</ele>
        <time>2020-05-31T13:08:51Z</time>
      </trkpt>
      <trkpt lat="43.62036" lon="6.57913">
        <ele>383</ele>
        <time>2020-05-31T13:08:55Z</time>
      </trkpt>
      <trkpt lat="43.62038" lon="6.5792">
        <ele>383.9</ele>
        <time>2020-05-31T13:09:00Z</time>
      </trkpt>
      <trkpt lat="43.6204" lon="6.57927">
        <ele>385.1</ele>
        <time>2020-05-31T13:09:05Z</time>
      </trkpt>
      <trkpt lat="43.62041" lon="6.57934">
        <ele>386.6</ele>
        <time>2020-05-31T13:09:11Z</time>
      </trkpt>
      <trkpt lat="43.62042" lon="6.5794">
        <ele>387.8</ele>
        <time>2020-05-31T13:09:15Z</time>
      </trkpt>
      <trkpt lat="43.62045" lon="6.57946">
        <ele>389.5</ele>
        <time>2020-05-31T13:09:21Z</time>
      </trkpt>
      <trkpt lat="43.62047" lon="6.57951">
        <ele>391.3</ele>
        <time>2020-05-31T13:09:28Z</time>
      </trkpt>
      <trkpt lat="43.6205" lon="6.57957">
        <ele>392.6</ele>
        <time>2020-05-31T13:09:34Z</time>
      </trkpt>
      <trkpt lat="43.62054" lon="6.57962">
        <ele>393.5</ele>
        <time>2020-05-31T13:09:39Z</time>
      </trkpt>
      <trkpt lat="43.62057" lon="6.57968">
        <ele>394.1</ele>
        <time>2020-05-31T13:09:43Z</time>
      </trkpt>
      <trkpt lat="43.62059" lon="6.57974">
        <ele>395.1</ele>
        <time>2020-05-31T13:09:49Z</time>
      </trkpt>
      <trkpt lat="43.62063" lon="6.57978">
        <ele>395.7</ele>
        <time>2020-05-31T13:09:53Z</time>
      </trkpt>
      <trkpt lat="43.62066" lon="6.57983">
        <ele>396.3</ele>
        <time>2020-05-31T13:09:58Z</time>
      </trkpt>
      <trkpt lat="43.6207" lon="6.5799">
        <ele>396.9</ele>
        <time>2020-05-31T13:10:04Z</time>
      </trkpt>
      <trkpt lat="43.62072" lon="6.57996">
        <ele>397.6</ele>
        <time>2020-05-31T13:10:10Z</time>
      </trkpt>
      <trkpt lat="43.62076" lon="6.58">
        <ele>398.2</ele>
        <time>2020-05-31T13:10:16Z</time>
      </trkpt>
      <trkpt lat="43.62076" lon="6.58006">
        <ele>399.1</ele>
        <time>2020-05-31T13:10:25Z</time>
      </trkpt>
      <trkpt lat="43.62079" lon="6.58012">
        <ele>399.6</ele>
        <time>2020-05-31T13:10:30Z</time>
      </trkpt>
      <trkpt lat="43.62082" lon="6.58017">
        <ele>400.3</ele>
        <time>2020-05-31T13:10:38Z</time>
      </trkpt>
      <trkpt lat="43.62084" lon="6.58022">
        <ele>400.6</ele>
        <time>2020-05-31T13:10:42Z</time>
      </trkpt>
      <trkpt lat="43.62085" lon="6.58029">
        <ele>401</ele>
        <time>2020-05-31T13:10:47Z</time>
      </trkpt>
      <trkpt lat="43.62083" lon="6.58036">
        <ele>401.4</ele>
        <time>2020-05-31T13:10:52Z</time>
      </trkpt>
      <trkpt lat="43.62083" lon="6.58042">
        <ele>401.8</ele>
        <time>2020-05-31T13:10:57Z</time>
      </trkpt>
      <trkpt lat="43.62084" lon="6.58048">
        <ele>402.3</ele>
        <time>2020-05-31T13:11:02Z</time>
      </trkpt>
      <trkpt lat="43.62084" lon="6.58055">
        <ele>402.8</ele>
        <time>2020-05-31T13:11:07Z</time>
      </trkpt>
      <trkpt lat="43.62084" lon="6.58063">
        <ele>403.3</ele>
        <time>2020-05-31T13:11:12Z</time>
      </trkpt>
      <trkpt lat="43.62083" lon="6.5807">
        <ele>403.8</ele>
        <time>2020-05-31T13:11:16Z</time>
      </trkpt>
      <trkpt lat="43.62081" lon="6.58076">
        <ele>404.3</ele>
        <time>2020-05-31T13:11:20Z</time>
      </trkpt>
      <trkpt lat="43.62081" lon="6.58083">
        <ele>405.1</ele>
        <time>2020-05-31T13:11:25Z</time>
      </trkpt>
      <trkpt lat="43.62081" lon="6.5809">
        <ele>405.8</ele>
        <time>2020-05-31T13:11:30Z</time>
      </trkpt>
      <trkpt lat="43.62081" lon="6.58097">
        <ele>406.5</ele>
        <time>2020-05-31T13:11:35Z</time>
      </trkpt>
      <trkpt lat="43.62081" lon="6.58104">
        <ele>407.1</ele>
        <time>2020-05-31T13:11:40Z</time>
      </trkpt>
      <trkpt lat="43.62084" lon="6.5811">
        <ele>407.7</ele>
        <time>2020-05-31T13:11:45Z</time>
      </trkpt>
      <trkpt lat="43.62087" lon="6.58116">
        <ele>408.3</ele>
        <time>2020-05-31T13:11:50Z</time>
      </trkpt>
      <trkpt lat="43.62088" lon="6.58123">
        <ele>409</ele>
        <time>2020-05-31T13:11:56Z</time>
      </trkpt>
      <trkpt lat="43.62091" lon="6.58128">
        <ele>409.8</ele>
        <time>2020-05-31T13:12:02Z</time>
      </trkpt>
      <trkpt lat="43.62094" lon="6.58133">
        <ele>410.3</ele>
        <time>2020-05-31T13:12:06Z</time>
      </trkpt>
      <trkpt lat="43.62098" lon="6.58137">
        <ele>411</ele>
        <time>2020-05-31T13:12:11Z</time>
      </trkpt>
      <trkpt lat="43.62102" lon="6.58142">
        <ele>412</ele>
        <time>2020-05-31T13:12:17Z</time>
      </trkpt>
      <trkpt lat="43.62102" lon="6.58148">
        <ele>413.1</ele>
        <time>2020-05-31T13:12:24Z</time>
      </trkpt>
      <trkpt lat="43.62103" lon="6.58155">
        <ele>413.8</ele>
        <time>2020-05-31T13:12:29Z</time>
      </trkpt>
      <trkpt lat="43.62104" lon="6.58162">
        <ele>414.4</ele>
        <time>2020-05-31T13:12:33Z</time>
      </trkpt>
      <trkpt lat="43.62107" lon="6.58167">
        <ele>414.9</ele>
        <time>2020-05-31T13:12:37Z</time>
      </trkpt>
      <trkpt lat="43.6211" lon="6.58173">
        <ele>415.6</ele>
        <time>2020-05-31T13:12:42Z</time>
      </trkpt>
      <trkpt lat="43.62105" lon="6.58177">
        <ele>416.9</ele>
        <time>2020-05-31T13:12:51Z</time>
      </trkpt>
      <trkpt lat="43.621" lon="6.58177">
        <ele>417.4</ele>
        <time>2020-05-31T13:12:55Z</time>
      </trkpt>
      <trkpt lat="43.62095" lon="6.58178">
        <ele>417.9</ele>
        <time>2020-05-31T13:12:59Z</time>
      </trkpt>
      <trkpt lat="43.6209" lon="6.58181">
        <ele>418.4</ele>
        <time>2020-05-31T13:13:04Z</time>
      </trkpt>
      <trkpt lat="43.62086" lon="6.58186">
        <ele>418.9</ele>
        <time>2020-05-31T13:13:09Z</time>
      </trkpt>
      <trkpt lat="43.62084" lon="6.58192">
        <ele>419.5</ele>
        <time>2020-05-31T13:13:13Z</time>
      </trkpt>
      <trkpt lat="43.62084" lon="6.58199">
        <ele>420.1</ele>
        <time>2020-05-31T13:13:17Z</time>
      </trkpt>
      <trkpt lat="43.62085" lon="6.58206">
        <ele>420.9</ele>
        <time>2020-05-31T13:13:21Z</time>
      </trkpt>
      <trkpt lat="43.62088" lon="6.58211">
        <ele>421.7</ele>
        <time>2020-05-31T13:13:25Z</time>
      </trkpt>
      <trkpt lat="43.62091" lon="6.58216">
        <ele>422.5</ele>
        <time>2020-05-31T13:13:29Z</time>
      </trkpt>
      <trkpt lat="43.62093" lon="6.58222">
        <ele>423.5</ele>
        <time>2020-05-31T13:13:34Z</time>
      </trkpt>
      <trkpt lat="43.62093" lon="6.58229">
        <ele>424.7</ele>
        <time>2020-05-31T13:13:40Z</time>
      </trkpt>
      <trkpt lat="43.62094" lon="6.58236">
        <ele>426</ele>
        <time>2020-05-31T13:13:46Z</time>
      </trkpt>
      <trkpt lat="43.62096" lon="6.58242">
        <ele>427</ele>
        <time>2020-05-31T13:13:50Z</time>
      </trkpt>
      <trkpt lat="43.62099" lon="6.58249">
        <ele>428</ele>
        <time>2020-05-31T13:13:54Z</time>
      </trkpt>
      <trkpt lat="43.62102" lon="6.58255">
        <ele>429.1</ele>
        <time>2020-05-31T13:13:59Z</time>
      </trkpt>
      <trkpt lat="43.62103" lon="6.58262">
        <ele>430.1</ele>
        <time>2020-05-31T13:14:04Z</time>
      </trkpt>
      <trkpt lat="43.62103" lon="6.58269">
        <ele>431.7</ele>
        <time>2020-05-31T13:14:12Z</time>
      </trkpt>
      <trkpt lat="43.62105" lon="6.58275">
        <ele>432.9</ele>
        <time>2020-05-31T13:14:17Z</time>
      </trkpt>
      <trkpt lat="43.62108" lon="6.58281">
        <ele>434</ele>
        <time>2020-05-31T13:14:22Z</time>
      </trkpt>
      <trkpt lat="43.62111" lon="6.58287">
        <ele>435.3</ele>
        <time>2020-05-31T13:14:27Z</time>
      </trkpt>
      <trkpt lat="43.62114" lon="6.58293">
        <ele>436.6</ele>
        <time>2020-05-31T13:14:32Z</time>
      </trkpt>
      <trkpt lat="43.62116" lon="6.583">
        <ele>437.5</ele>
        <time>2020-05-31T13:14:37Z</time>
      </trkpt>
      <trkpt lat="43.6212" lon="6.58306">
        <ele>438.2</ele>
        <time>2020-05-31T13:14:41Z</time>
      </trkpt>
      <trkpt lat="43.62124" lon="6.58312">
        <ele>439</ele>
        <time>2020-05-31T13:14:45Z</time>
      </trkpt>
      <trkpt lat="43.62126" lon="6.58317">
        <ele>439.7</ele>
        <time>2020-05-31T13:14:49Z</time>
      </trkpt>
      <trkpt lat="43.6213" lon="6.58321">
        <ele>440.5</ele>
        <time>2020-05-31T13:14:53Z</time>
      </trkpt>
      <trkpt lat="43.62134" lon="6.58325">
        <ele>441.4</ele>
        <time>2020-05-31T13:14:57Z</time>
      </trkpt>
      <trkpt lat="43.62137" lon="6.58329">
        <ele>442.3</ele>
        <time>2020-05-31T13:15:01Z</time>
      </trkpt>
      <trkpt lat="43.62139" lon="6.58336">
        <ele>443.1</ele>
        <time>2020-05-31T13:15:05Z</time>
      </trkpt>
      <trkpt lat="43.6214" lon="6.58342">
        <ele>443.7</ele>
        <time>2020-05-31T13:15:09Z</time>
      </trkpt>
      <trkpt lat="43.62141" lon="6.58348">
        <ele>444.3</ele>
        <time>2020-05-31T13:15:13Z</time>
      </trkpt>
      <trkpt lat="43.62142" lon="6.58355">
        <ele>444.9</ele>
        <time>2020-05-31T13:15:17Z</time>
      </trkpt>
      <trkpt lat="43.62144" lon="6.58361">
        <ele>445.5</ele>
        <time>2020-05-31T13:15:21Z</time>
      </trkpt>
      <trkpt lat="43.62143" lon="6.58368">
        <ele>446.3</ele>
        <time>2020-05-31T13:15:26Z</time>
      </trkpt>
      <trkpt lat="43.62144" lon="6.58374">
        <ele>447.1</ele>
        <time>2020-05-31T13:15:30Z</time>
      </trkpt>
      <trkpt lat="43.62145" lon="6.58381">
        <ele>447.9</ele>
        <time>2020-05-31T13:15:35Z</time>
      </trkpt>
      <trkpt lat="43.62145" lon="6.58387">
        <ele>448.8</ele>
        <time>2020-05-31T13:15:41Z</time>
      </trkpt>
      <trkpt lat="43.62145" lon="6.58393">
        <ele>449.7</ele>
        <time>2020-05-31T13:15:47Z</time>
      </trkpt>
      <trkpt lat="43.62147" lon="6.584">
        <ele>450.3</ele>
        <time>2020-05-31T13:15:51Z</time>
      </trkpt>
      <trkpt lat="43.62148" lon="6.58407">
        <ele>451</ele>
        <time>2020-05-31T13:15:56Z</time>
      </trkpt>
      <trkpt lat="43.62151" lon="6.58414">
        <ele>451.8</ele>
        <time>2020-05-31T13:16:01Z</time>
      </trkpt>
      <trkpt lat="43.62153" lon="6.5842">
        <ele>452.6</ele>
        <time>2020-05-31T13:16:05Z</time>
      </trkpt>
      <trkpt lat="43.62155" lon="6.58427">
        <ele>453.6</ele>
        <time>2020-05-31T13:16:10Z</time>
      </trkpt>
      <trkpt lat="43.62157" lon="6.58434">
        <ele>454.3</ele>
        <time>2020-05-31T13:16:14Z</time>
      </trkpt>
      <trkpt lat="43.6216" lon="6.5844">
        <ele>455.1</ele>
        <time>2020-05-31T13:16:18Z</time>
      </trkpt>
      <trkpt lat="43.62162" lon="6.58446">
        <ele>455.9</ele>
        <time>2020-05-31T13:16:22Z</time>
      </trkpt>
      <trkpt lat="43.62161" lon="6.58452">
        <ele>456.8</ele>
        <time>2020-05-31T13:16:27Z</time>
      </trkpt>
      <trkpt lat="43.6216" lon="6.58458">
        <ele>457.5</ele>
        <time>2020-05-31T13:16:31Z</time>
      </trkpt>
      <trkpt lat="43.62159" lon="6.58464">
        <ele>458.3</ele>
        <time>2020-05-31T13:16:36Z</time>
      </trkpt>
      <trkpt lat="43.6216" lon="6.58471">
        <ele>459.2</ele>
        <time>2020-05-31T13:16:41Z</time>
      </trkpt>
      <trkpt lat="43.62161" lon="6.58477">
        <ele>460.1</ele>
        <time>2020-05-31T13:16:45Z</time>
      </trkpt>
      <trkpt lat="43.62162" lon="6.58484">
        <ele>461</ele>
        <time>2020-05-31T13:16:49Z</time>
      </trkpt>
      <trkpt lat="43.62161" lon="6.58491">
        <ele>462.1</ele>
        <time>2020-05-31T13:16:54Z</time>
      </trkpt>
      <trkpt lat="43.62161" lon="6.58497">
        <ele>463.1</ele>
        <time>2020-05-31T13:16:59Z</time>
      </trkpt>
      <trkpt lat="43.62162" lon="6.58505">
        <ele>464.3</ele>
        <time>2020-05-31T13:17:04Z</time>
      </trkpt>
      <trkpt lat="43.62162" lon="6.58512">
        <ele>465.6</ele>
        <time>2020-05-31T13:17:10Z</time>
      </trkpt>
      <trkpt lat="43.62161" lon="6.58519">
        <ele>466.4</ele>
        <time>2020-05-31T13:17:14Z</time>
      </trkpt>
      <trkpt lat="43.62156" lon="6.58524">
        <ele>466.8</ele>
        <time>2020-05-31T13:17:18Z</time>
      </trkpt>
      <trkpt lat="43.62154" lon="6.5853">
        <ele>467.5</ele>
        <time>2020-05-31T13:17:23Z</time>
      </trkpt>
      <trkpt lat="43.62155" lon="6.58537">
        <ele>468.7</ele>
        <time>2020-05-31T13:17:29Z</time>
      </trkpt>
      <trkpt lat="43.62155" lon="6.58543">
        <ele>469.8</ele>
        <time>2020-05-31T13:17:35Z</time>
      </trkpt>
      <trkpt lat="43.62153" lon="6.58549">
        <ele>470.8</ele>
        <time>2020-05-31T13:17:41Z</time>
      </trkpt>
      <trkpt lat="43.62153" lon="6.58556">
        <ele>471.6</ele>
        <time>2020-05-31T13:17:46Z</time>
      </trkpt>
      <trkpt lat="43.62153" lon="6.58564">
        <ele>472.3</ele>
        <time>2020-05-31T13:17:51Z</time>
      </trkpt>
      <trkpt lat="43.62152" lon="6.58571">
        <ele>473.4</ele>
        <time>2020-05-31T13:17:58Z</time>
      </trkpt>
      <trkpt lat="43.62152" lon="6.58578">
        <ele>474</ele>
        <time>2020-05-31T13:18:03Z</time>
      </trkpt>
      <trkpt lat="43.62153" lon="6.58584">
        <ele>474.5</ele>
        <time>2020-05-31T13:18:08Z</time>
      </trkpt>
      <trkpt lat="43.62154" lon="6.5859">
        <ele>475.1</ele>
        <time>2020-05-31T13:18:14Z</time>
      </trkpt>
      <trkpt lat="43.62156" lon="6.58596">
        <ele>475.7</ele>
        <time>2020-05-31T13:18:20Z</time>
      </trkpt>
      <trkpt lat="43.62156" lon="6.58603">
        <ele>476.2</ele>
        <time>2020-05-31T13:18:24Z</time>
      </trkpt>
      <trkpt lat="43.62156" lon="6.58609">
        <ele>476.6</ele>
        <time>2020-05-31T13:18:28Z</time>
      </trkpt>
      <trkpt lat="43.62156" lon="6.58616">
        <ele>477.2</ele>
        <time>2020-05-31T13:18:33Z</time>
      </trkpt>
      <trkpt lat="43.62157" lon="6.58623">
        <ele>478.2</ele>
        <time>2020-05-31T13:18:39Z</time>
      </trkpt>
      <trkpt lat="43.62159" lon="6.5863">
        <ele>479.2</ele>
        <time>2020-05-31T13:18:45Z</time>
      </trkpt>
      <trkpt lat="43.62161" lon="6.58636">
        <ele>479.8</ele>
        <time>2020-05-31T13:18:49Z</time>
      </trkpt>
      <trkpt lat="43.62163" lon="6.58643">
        <ele>480.4</ele>
        <time>2020-05-31T13:18:53Z</time>
      </trkpt>
      <trkpt lat="43.62165" lon="6.5865">
        <ele>481</ele>
        <time>2020-05-31T13:18:57Z</time>
      </trkpt>
      <trkpt lat="43.62168" lon="6.58656">
        <ele>481.6</ele>
        <time>2020-05-31T13:19:02Z</time>
      </trkpt>
      <trkpt lat="43.6217" lon="6.58661">
        <ele>482.1</ele>
        <time>2020-05-31T13:19:06Z</time>
      </trkpt>
      <trkpt lat="43.62173" lon="6.58668">
        <ele>482.5</ele>
        <time>2020-05-31T13:19:10Z</time>
      </trkpt>
      <trkpt lat="43.62176" lon="6.58673">
        <ele>483</ele>
        <time>2020-05-31T13:19:14Z</time>
      </trkpt>
      <trkpt lat="43.62178" lon="6.58679">
        <ele>483.5</ele>
        <time>2020-05-31T13:19:18Z</time>
      </trkpt>
      <trkpt lat="43.62179" lon="6.58685">
        <ele>484.1</ele>
        <time>2020-05-31T13:19:23Z</time>
      </trkpt>
      <trkpt lat="43.6218" lon="6.58691">
        <ele>484.7</ele>
        <time>2020-05-31T13:19:28Z</time>
      </trkpt>
      <trkpt lat="43.62181" lon="6.58699">
        <ele>485.4</ele>
        <time>2020-05-31T13:19:33Z</time>
      </trkpt>
      <trkpt lat="43.62181" lon="6.58705">
        <ele>486</ele>
        <time>2020-05-31T13:19:38Z</time>
      </trkpt>
      <trkpt lat="43.62181" lon="6.58713">
        <ele>486.7</ele>
        <time>2020-05-31T13:19:43Z</time>
      </trkpt>
      <trkpt lat="43.62182" lon="6.5872">
        <ele>487.2</ele>
        <time>2020-05-31T13:19:47Z</time>
      </trkpt>
      <trkpt lat="43.62182" lon="6.58726">
        <ele>487.8</ele>
        <time>2020-05-31T13:19:51Z</time>
      </trkpt>
      <trkpt lat="43.62179" lon="6.58732">
        <ele>488.4</ele>
        <time>2020-05-31T13:19:56Z</time>
      </trkpt>
      <trkpt lat="43.62176" lon="6.58738">
        <ele>489</ele>
        <time>2020-05-31T13:20:01Z</time>
      </trkpt>
      <trkpt lat="43.62175" lon="6.58745">
        <ele>489.7</ele>
        <time>2020-05-31T13:20:06Z</time>
      </trkpt>
      <trkpt lat="43.62177" lon="6.58751">
        <ele>491.2</ele>
        <time>2020-05-31T13:20:16Z</time>
      </trkpt>
      <trkpt lat="43.62181" lon="6.58754">
        <ele>492.6</ele>
        <time>2020-05-31T13:20:26Z</time>
      </trkpt>
      <trkpt lat="43.62185" lon="6.58758">
        <ele>493.3</ele>
        <time>2020-05-31T13:20:31Z</time>
      </trkpt>
      <trkpt lat="43.62188" lon="6.58764">
        <ele>494</ele>
        <time>2020-05-31T13:20:37Z</time>
      </trkpt>
      <trkpt lat="43.62191" lon="6.5877">
        <ele>494.8</ele>
        <time>2020-05-31T13:20:44Z</time>
      </trkpt>
      <trkpt lat="43.62194" lon="6.58776">
        <ele>495.2</ele>
        <time>2020-05-31T13:20:48Z</time>
      </trkpt>
      <trkpt lat="43.62195" lon="6.58783">
        <ele>495.6</ele>
        <time>2020-05-31T13:20:53Z</time>
      </trkpt>
      <trkpt lat="43.62197" lon="6.5879">
        <ele>496</ele>
        <time>2020-05-31T13:20:58Z</time>
      </trkpt>
      <trkpt lat="43.622" lon="6.58797">
        <ele>496.3</ele>
        <time>2020-05-31T13:21:02Z</time>
      </trkpt>
      <trkpt lat="43.62202" lon="6.58804">
        <ele>496.6</ele>
        <time>2020-05-31T13:21:06Z</time>
      </trkpt>
      <trkpt lat="43.62205" lon="6.5881">
        <ele>497</ele>
        <time>2020-05-31T13:21:10Z</time>
      </trkpt>
      <trkpt lat="43.62205" lon="6.58817">
        <ele>497.4</ele>
        <time>2020-05-31T13:21:14Z</time>
      </trkpt>
      <trkpt lat="43.62203" lon="6.58823">
        <ele>497.7</ele>
        <time>2020-05-31T13:21:18Z</time>
      </trkpt>
      <trkpt lat="43.622" lon="6.58827">
        <ele>498.4</ele>
        <time>2020-05-31T13:21:25Z</time>
      </trkpt>
      <trkpt lat="43.62202" lon="6.58834">
        <ele>499.6</ele>
        <time>2020-05-31T13:21:32Z</time>
      </trkpt>
      <trkpt lat="43.62206" lon="6.58841">
        <ele>500.1</ele>
        <time>2020-05-31T13:21:36Z</time>
      </trkpt>
      <trkpt lat="43.6221" lon="6.58846">
        <ele>500.6</ele>
        <time>2020-05-31T13:21:40Z</time>
      </trkpt>
      <trkpt lat="43.62213" lon="6.58851">
        <ele>501.2</ele>
        <time>2020-05-31T13:21:45Z</time>
      </trkpt>
      <trkpt lat="43.62213" lon="6.58858">
        <ele>502</ele>
        <time>2020-05-31T13:21:52Z</time>
      </trkpt>
      <trkpt lat="43.62214" lon="6.58865">
        <ele>502.6</ele>
        <time>2020-05-31T13:21:59Z</time>
      </trkpt>
      <trkpt lat="43.62214" lon="6.58871">
        <ele>502.9</ele>
        <time>2020-05-31T13:22:04Z</time>
      </trkpt>
      <trkpt lat="43.62218" lon="6.58878">
        <ele>503.2</ele>
        <time>2020-05-31T13:22:08Z</time>
      </trkpt>
      <trkpt lat="43.62223" lon="6.58886">
        <ele>503.8</ele>
        <time>2020-05-31T13:22:12Z</time>
      </trkpt>
      <trkpt lat="43.62225" lon="6.58892">
        <ele>505.1</ele>
        <time>2020-05-31T13:22:18Z</time>
      </trkpt>
      <trkpt lat="43.62228" lon="6.58897">
        <ele>505.7</ele>
        <time>2020-05-31T13:22:22Z</time>
      </trkpt>
      <trkpt lat="43.62228" lon="6.58905">
        <ele>506.3</ele>
        <time>2020-05-31T13:22:28Z</time>
      </trkpt>
      <trkpt lat="43.62228" lon="6.58911">
        <ele>506.7</ele>
        <time>2020-05-31T13:22:32Z</time>
      </trkpt>
      <trkpt lat="43.62228" lon="6.58917">
        <ele>507.7</ele>
        <time>2020-05-31T13:22:36Z</time>
      </trkpt>
      <trkpt lat="43.6223" lon="6.58924">
        <ele>508.6</ele>
        <time>2020-05-31T13:22:40Z</time>
      </trkpt>
      <trkpt lat="43.62233" lon="6.5893">
        <ele>509</ele>
        <time>2020-05-31T13:22:44Z</time>
      </trkpt>
      <trkpt lat="43.62228" lon="6.58936">
        <ele>509</ele>
        <time>2020-05-31T13:22:49Z</time>
      </trkpt>
      <trkpt lat="43.62227" lon="6.58943">
        <ele>509.1</ele>
        <time>2020-05-31T13:22:53Z</time>
      </trkpt>
      <trkpt lat="43.62229" lon="6.58949">
        <ele>509.2</ele>
        <time>2020-05-31T13:22:58Z</time>
      </trkpt>
      <trkpt lat="43.6223" lon="6.58956">
        <ele>509.6</ele>
        <time>2020-05-31T13:23:04Z</time>
      </trkpt>
      <trkpt lat="43.62234" lon="6.5896">
        <ele>509.9</ele>
        <time>2020-05-31T13:23:08Z</time>
      </trkpt>
      <trkpt lat="43.62236" lon="6.58967">
        <ele>510.2</ele>
        <time>2020-05-31T13:23:13Z</time>
      </trkpt>
      <trkpt lat="43.62238" lon="6.58973">
        <ele>510.5</ele>
        <time>2020-05-31T13:23:17Z</time>
      </trkpt>
      <trkpt lat="43.62241" lon="6.58979">
        <ele>511.2</ele>
        <time>2020-05-31T13:23:21Z</time>
      </trkpt>
      <trkpt lat="43.62242" lon="6.58986">
        <ele>512</ele>
        <time>2020-05-31T13:23:25Z</time>
      </trkpt>
      <trkpt lat="43.62243" lon="6.58994">
        <ele>513.6</ele>
        <time>2020-05-31T13:23:29Z</time>
      </trkpt>
      <trkpt lat="43.62246" lon="6.59001">
        <ele>515.1</ele>
        <time>2020-05-31T13:23:33Z</time>
      </trkpt>
      <trkpt lat="43.62248" lon="6.59007">
        <ele>516.1</ele>
        <time>2020-05-31T13:23:37Z</time>
      </trkpt>
      <trkpt lat="43.6225" lon="6.59013">
        <ele>517.1</ele>
        <time>2020-05-31T13:23:43Z</time>
      </trkpt>
      <trkpt lat="43.62251" lon="6.59019">
        <ele>517.6</ele>
        <time>2020-05-31T13:23:47Z</time>
      </trkpt>
      <trkpt lat="43.62251" lon="6.59026">
        <ele>518</ele>
        <time>2020-05-31T13:23:51Z</time>
      </trkpt>
      <trkpt lat="43.62252" lon="6.59032">
        <ele>518.4</ele>
        <time>2020-05-31T13:23:56Z</time>
      </trkpt>
      <trkpt lat="43.62253" lon="6.59039">
        <ele>518.9</ele>
        <time>2020-05-31T13:24:02Z</time>
      </trkpt>
      <trkpt lat="43.62253" lon="6.59047">
        <ele>519.7</ele>
        <time>2020-05-31T13:24:07Z</time>
      </trkpt>
      <trkpt lat="43.62254" lon="6.59053">
        <ele>520.1</ele>
        <time>2020-05-31T13:24:11Z</time>
      </trkpt>
      <trkpt lat="43.62254" lon="6.5906">
        <ele>520.4</ele>
        <time>2020-05-31T13:24:15Z</time>
      </trkpt>
      <trkpt lat="43.62251" lon="6.59068">
        <ele>520.6</ele>
        <time>2020-05-31T13:24:19Z</time>
      </trkpt>
      <trkpt lat="43.62251" lon="6.59074">
        <ele>520.7</ele>
        <time>2020-05-31T13:24:23Z</time>
      </trkpt>
      <trkpt lat="43.62251" lon="6.59081">
        <ele>520.6</ele>
        <time>2020-05-31T13:24:27Z</time>
      </trkpt>
      <trkpt lat="43.62252" lon="6.59088">
        <ele>520.6</ele>
        <time>2020-05-31T13:24:32Z</time>
      </trkpt>
      <trkpt lat="43.62251" lon="6.59094">
        <ele>520.7</ele>
        <time>2020-05-31T13:24:37Z</time>
      </trkpt>
      <trkpt lat="43.62251" lon="6.59101">
        <ele>520.7</ele>
        <time>2020-05-31T13:24:43Z</time>
      </trkpt>
      <trkpt lat="43.6225" lon="6.59108">
        <ele>520.9</ele>
        <time>2020-05-31T13:24:50Z</time>
      </trkpt>
      <trkpt lat="43.6225" lon="6.59115">
        <ele>521.1</ele>
        <time>2020-05-31T13:24:55Z</time>
      </trkpt>
      <trkpt lat="43.62251" lon="6.59123">
        <ele>521.2</ele>
        <time>2020-05-31T13:25:00Z</time>
      </trkpt>
      <trkpt lat="43.6225" lon="6.59129">
        <ele>521.2</ele>
        <time>2020-05-31T13:25:04Z</time>
      </trkpt>
      <trkpt lat="43.62252" lon="6.59136">
        <ele>521.3</ele>
        <time>2020-05-31T13:25:09Z</time>
      </trkpt>
      <trkpt lat="43.62254" lon="6.59142">
        <ele>521.4</ele>
        <time>2020-05-31T13:25:13Z</time>
      </trkpt>
      <trkpt lat="43.62256" lon="6.59148">
        <ele>521.5</ele>
        <time>2020-05-31T13:25:18Z</time>
      </trkpt>
      <trkpt lat="43.62255" lon="6.59155">
        <ele>521.6</ele>
        <time>2020-05-31T13:25:23Z</time>
      </trkpt>
      <trkpt lat="43.62254" lon="6.59161">
        <ele>521.7</ele>
        <time>2020-05-31T13:25:27Z</time>
      </trkpt>
      <trkpt lat="43.62254" lon="6.59167">
        <ele>521.8</ele>
        <time>2020-05-31T13:25:32Z</time>
      </trkpt>
      <trkpt lat="43.62253" lon="6.59174">
        <ele>522</ele>
        <time>2020-05-31T13:25:36Z</time>
      </trkpt>
      <trkpt lat="43.62251" lon="6.59181">
        <ele>522.4</ele>
        <time>2020-05-31T13:25:41Z</time>
      </trkpt>
      <trkpt lat="43.62251" lon="6.59187">
        <ele>522.8</ele>
        <time>2020-05-31T13:25:46Z</time>
      </trkpt>
      <trkpt lat="43.62252" lon="6.59193">
        <ele>523.2</ele>
        <time>2020-05-31T13:25:50Z</time>
      </trkpt>
      <trkpt lat="43.62251" lon="6.592">
        <ele>523.7</ele>
        <time>2020-05-31T13:25:54Z</time>
      </trkpt>
      <trkpt lat="43.62253" lon="6.59207">
        <ele>524.2</ele>
        <time>2020-05-31T13:25:58Z</time>
      </trkpt>
      <trkpt lat="43.62252" lon="6.59213">
        <ele>525</ele>
        <time>2020-05-31T13:26:03Z</time>
      </trkpt>
      <trkpt lat="43.62251" lon="6.5922">
        <ele>525.7</ele>
        <time>2020-05-31T13:26:09Z</time>
      </trkpt>
      <trkpt lat="43.6225" lon="6.59226">
        <ele>526.2</ele>
        <time>2020-05-31T13:26:14Z</time>
      </trkpt>
      <trkpt lat="43.62249" lon="6.59233">
        <ele>527.1</ele>
        <time>2020-05-31T13:26:19Z</time>
      </trkpt>
      <trkpt lat="43.62249" lon="6.59241">
        <ele>528.7</ele>
        <time>2020-05-31T13:26:25Z</time>
      </trkpt>
      <trkpt lat="43.62248" lon="6.59248">
        <ele>529.8</ele>
        <time>2020-05-31T13:26:31Z</time>
      </trkpt>
      <trkpt lat="43.62246" lon="6.59255">
        <ele>530.5</ele>
        <time>2020-05-31T13:26:37Z</time>
      </trkpt>
      <trkpt lat="43.62249" lon="6.59261">
        <ele>531.4</ele>
        <time>2020-05-31T13:26:42Z</time>
      </trkpt>
      <trkpt lat="43.62248" lon="6.59268">
        <ele>532.3</ele>
        <time>2020-05-31T13:26:47Z</time>
      </trkpt>
      <trkpt lat="43.62246" lon="6.59275">
        <ele>533</ele>
        <time>2020-05-31T13:26:52Z</time>
      </trkpt>
      <trkpt lat="43.62244" lon="6.59281">
        <ele>533.3</ele>
        <time>2020-05-31T13:26:56Z</time>
      </trkpt>
      <trkpt lat="43.62242" lon="6.59287">
        <ele>534</ele>
        <time>2020-05-31T13:27:02Z</time>
      </trkpt>
      <trkpt lat="43.6224" lon="6.59293">
        <ele>534.4</ele>
        <time>2020-05-31T13:27:07Z</time>
      </trkpt>
      <trkpt lat="43.6224" lon="6.593">
        <ele>535.1</ele>
        <time>2020-05-31T13:27:13Z</time>
      </trkpt>
      <trkpt lat="43.62241" lon="6.59307">
        <ele>535.5</ele>
        <time>2020-05-31T13:27:17Z</time>
      </trkpt>
      <trkpt lat="43.62242" lon="6.59313">
        <ele>536.1</ele>
        <time>2020-05-31T13:27:22Z</time>
      </trkpt>
      <trkpt lat="43.62246" lon="6.59317">
        <ele>536.9</ele>
        <time>2020-05-31T13:27:27Z</time>
      </trkpt>
      <trkpt lat="43.62248" lon="6.59323">
        <ele>538</ele>
        <time>2020-05-31T13:27:31Z</time>
      </trkpt>
      <trkpt lat="43.6225" lon="6.59329">
        <ele>539.3</ele>
        <time>2020-05-31T13:27:35Z</time>
      </trkpt>
      <trkpt lat="43.62253" lon="6.59335">
        <ele>540.9</ele>
        <time>2020-05-31T13:27:40Z</time>
      </trkpt>
      <trkpt lat="43.62255" lon="6.59342">
        <ele>543.5</ele>
        <time>2020-05-31T13:27:45Z</time>
      </trkpt>
      <trkpt lat="43.62255" lon="6.59348">
        <ele>546.6</ele>
        <time>2020-05-31T13:27:50Z</time>
      </trkpt>
      <trkpt lat="43.62254" lon="6.59355">
        <ele>549.4</ele>
        <time>2020-05-31T13:27:55Z</time>
      </trkpt>
      <trkpt lat="43.62254" lon="6.59362">
        <ele>552.1</ele>
        <time>2020-05-31T13:28:00Z</time>
      </trkpt>
      <trkpt lat="43.62254" lon="6.59369">
        <ele>555.2</ele>
        <time>2020-05-31T13:28:06Z</time>
      </trkpt>
      <trkpt lat="43.62252" lon="6.59375">
        <ele>558.5</ele>
        <time>2020-05-31T13:28:13Z</time>
      </trkpt>
      <trkpt lat="43.62249" lon="6.59379">
        <ele>560.7</ele>
        <time>2020-05-31T13:28:18Z</time>
      </trkpt>
      <trkpt lat="43.62243" lon="6.59377">
        <ele>562.6</ele>
        <time>2020-05-31T13:28:23Z</time>
      </trkpt>
      <trkpt lat="43.62239" lon="6.59375">
        <ele>564.3</ele>
        <time>2020-05-31T13:28:27Z</time>
      </trkpt>
      <trkpt lat="43.62236" lon="6.5937">
        <ele>567</ele>
        <time>2020-05-31T13:28:32Z</time>
      </trkpt>
      <trkpt lat="43.62232" lon="6.59365">
        <ele>568.7</ele>
        <time>2020-05-31T13:28:36Z</time>
      </trkpt>
      <trkpt lat="43.62227" lon="6.59362">
        <ele>570.3</ele>
        <time>2020-05-31T13:28:41Z</time>
      </trkpt>
      <trkpt lat="43.62223" lon="6.59362">
        <ele>572.2</ele>
        <time>2020-05-31T13:28:47Z</time>
      </trkpt>
      <trkpt lat="43.6222" lon="6.59367">
        <ele>575.6</ele>
        <time>2020-05-31T13:28:56Z</time>
      </trkpt>
      <trkpt lat="43.62223" lon="6.59372">
        <ele>577.6</ele>
        <time>2020-05-31T13:29:02Z</time>
      </trkpt>
      <trkpt lat="43.62226" lon="6.59377">
        <ele>578.7</ele>
        <time>2020-05-31T13:29:06Z</time>
      </trkpt>
      <trkpt lat="43.6223" lon="6.59382">
        <ele>579</ele>
        <time>2020-05-31T13:29:11Z</time>
      </trkpt>
      <trkpt lat="43.62234" lon="6.59387">
        <ele>579.5</ele>
        <time>2020-05-31T13:29:16Z</time>
      </trkpt>
      <trkpt lat="43.62237" lon="6.59393">
        <ele>579.9</ele>
        <time>2020-05-31T13:29:22Z</time>
      </trkpt>
      <trkpt lat="43.62239" lon="6.59399">
        <ele>579.3</ele>
        <time>2020-05-31T13:29:26Z</time>
      </trkpt>
      <trkpt lat="43.62242" lon="6.59405">
        <ele>578.7</ele>
        <time>2020-05-31T13:29:31Z</time>
      </trkpt>
      <trkpt lat="43.62243" lon="6.59411">
        <ele>578</ele>
        <time>2020-05-31T13:29:38Z</time>
      </trkpt>
      <trkpt lat="43.62243" lon="6.59418">
        <ele>577.7</ele>
        <time>2020-05-31T13:29:44Z</time>
      </trkpt>
      <trkpt lat="43.62245" lon="6.59425">
        <ele>578</ele>
        <time>2020-05-31T13:29:49Z</time>
      </trkpt>
      <trkpt lat="43.62247" lon="6.59431">
        <ele>578.1</ele>
        <time>2020-05-31T13:29:53Z</time>
      </trkpt>
      <trkpt lat="43.62248" lon="6.59437">
        <ele>578.3</ele>
        <time>2020-05-31T13:29:58Z</time>
      </trkpt>
      <trkpt lat="43.62251" lon="6.59442">
        <ele>578.4</ele>
        <time>2020-05-31T13:30:02Z</time>
      </trkpt>
      <trkpt lat="43.62254" lon="6.59448">
        <ele>578.7</ele>
        <time>2020-05-31T13:30:06Z</time>
      </trkpt>
      <trkpt lat="43.62257" lon="6.59454">
        <ele>579.2</ele>
        <time>2020-05-31T13:30:10Z</time>
      </trkpt>
      <trkpt lat="43.6226" lon="6.5946">
        <ele>579.8</ele>
        <time>2020-05-31T13:30:15Z</time>
      </trkpt>
      <trkpt lat="43.62262" lon="6.59467">
        <ele>580.4</ele>
        <time>2020-05-31T13:30:19Z</time>
      </trkpt>
      <trkpt lat="43.62263" lon="6.59473">
        <ele>580.8</ele>
        <time>2020-05-31T13:30:23Z</time>
      </trkpt>
      <trkpt lat="43.62265" lon="6.5948">
        <ele>581.2</ele>
        <time>2020-05-31T13:30:27Z</time>
      </trkpt>
      <trkpt lat="43.62267" lon="6.59487">
        <ele>581.5</ele>
        <time>2020-05-31T13:30:31Z</time>
      </trkpt>
      <trkpt lat="43.6227" lon="6.59494">
        <ele>581.8</ele>
        <time>2020-05-31T13:30:35Z</time>
      </trkpt>
      <trkpt lat="43.62273" lon="6.59499">
        <ele>582.2</ele>
        <time>2020-05-31T13:30:39Z</time>
      </trkpt>
      <trkpt lat="43.62275" lon="6.59507">
        <ele>582.7</ele>
        <time>2020-05-31T13:30:43Z</time>
      </trkpt>
      <trkpt lat="43.62275" lon="6.59515">
        <ele>583.8</ele>
        <time>2020-05-31T13:30:48Z</time>
      </trkpt>
      <trkpt lat="43.62275" lon="6.59523">
        <ele>584.5</ele>
        <time>2020-05-31T13:30:52Z</time>
      </trkpt>
      <trkpt lat="43.62271" lon="6.59529">
        <ele>584.4</ele>
        <time>2020-05-31T13:30:56Z</time>
      </trkpt>
      <trkpt lat="43.62267" lon="6.59534">
        <ele>583.9</ele>
        <time>2020-05-31T13:31:00Z</time>
      </trkpt>
      <trkpt lat="43.62264" lon="6.5954">
        <ele>583.4</ele>
        <time>2020-05-31T13:31:04Z</time>
      </trkpt>
      <trkpt lat="43.62263" lon="6.59546">
        <ele>583.1</ele>
        <time>2020-05-31T13:31:09Z</time>
      </trkpt>
      <trkpt lat="43.62261" lon="6.59554">
        <ele>582.9</ele>
        <time>2020-05-31T13:31:14Z</time>
      </trkpt>
      <trkpt lat="43.62261" lon="6.5956">
        <ele>582.8</ele>
        <time>2020-05-31T13:31:18Z</time>
      </trkpt>
      <trkpt lat="43.62261" lon="6.59567">
        <ele>582.7</ele>
        <time>2020-05-31T13:31:22Z</time>
      </trkpt>
      <trkpt lat="43.62262" lon="6.59574">
        <ele>582.8</ele>
        <time>2020-05-31T13:31:27Z</time>
      </trkpt>
      <trkpt lat="43.62264" lon="6.5958">
        <ele>582.9</ele>
        <time>2020-05-31T13:31:31Z</time>
      </trkpt>
      <trkpt lat="43.62266" lon="6.59587">
        <ele>582.8</ele>
        <time>2020-05-31T13:31:36Z</time>
      </trkpt>
      <trkpt lat="43.62267" lon="6.59594">
        <ele>582.6</ele>
        <time>2020-05-31T13:31:40Z</time>
      </trkpt>
      <trkpt lat="43.62269" lon="6.59601">
        <ele>582.8</ele>
        <time>2020-05-31T13:31:44Z</time>
      </trkpt>
      <trkpt lat="43.62269" lon="6.59609">
        <ele>583</ele>
        <time>2020-05-31T13:31:50Z</time>
      </trkpt>
      <trkpt lat="43.62265" lon="6.59614">
        <ele>583.3</ele>
        <time>2020-05-31T13:31:54Z</time>
      </trkpt>
      <trkpt lat="43.62262" lon="6.59621">
        <ele>583.7</ele>
        <time>2020-05-31T13:31:58Z</time>
      </trkpt>
      <trkpt lat="43.62259" lon="6.59628">
        <ele>584.2</ele>
        <time>2020-05-31T13:32:03Z</time>
      </trkpt>
      <trkpt lat="43.62256" lon="6.59633">
        <ele>584.6</ele>
        <time>2020-05-31T13:32:07Z</time>
      </trkpt>
      <trkpt lat="43.62255" lon="6.5964">
        <ele>585.2</ele>
        <time>2020-05-31T13:32:13Z</time>
      </trkpt>
      <trkpt lat="43.62253" lon="6.59647">
        <ele>585.7</ele>
        <time>2020-05-31T13:32:18Z</time>
      </trkpt>
      <trkpt lat="43.62252" lon="6.59653">
        <ele>586</ele>
        <time>2020-05-31T13:32:23Z</time>
      </trkpt>
      <trkpt lat="43.62253" lon="6.5966">
        <ele>586.5</ele>
        <time>2020-05-31T13:32:29Z</time>
      </trkpt>
      <trkpt lat="43.62256" lon="6.59666">
        <ele>587.2</ele>
        <time>2020-05-31T13:32:34Z</time>
      </trkpt>
      <trkpt lat="43.62258" lon="6.59673">
        <ele>588.1</ele>
        <time>2020-05-31T13:32:39Z</time>
      </trkpt>
      <trkpt lat="43.62261" lon="6.59679">
        <ele>589.4</ele>
        <time>2020-05-31T13:32:47Z</time>
      </trkpt>
      <trkpt lat="43.62262" lon="6.59685">
        <ele>590.2</ele>
        <time>2020-05-31T13:32:51Z</time>
      </trkpt>
      <trkpt lat="43.62264" lon="6.59691">
        <ele>591.2</ele>
        <time>2020-05-31T13:32:56Z</time>
      </trkpt>
      <trkpt lat="43.62265" lon="6.59698">
        <ele>592</ele>
        <time>2020-05-31T13:33:00Z</time>
      </trkpt>
      <trkpt lat="43.62266" lon="6.59705">
        <ele>592.8</ele>
        <time>2020-05-31T13:33:04Z</time>
      </trkpt>
      <trkpt lat="43.62266" lon="6.59713">
        <ele>593.4</ele>
        <time>2020-05-31T13:33:08Z</time>
      </trkpt>
      <trkpt lat="43.62265" lon="6.59719">
        <ele>593.9</ele>
        <time>2020-05-31T13:33:12Z</time>
      </trkpt>
      <trkpt lat="43.62264" lon="6.59726">
        <ele>594.7</ele>
        <time>2020-05-31T13:33:18Z</time>
      </trkpt>
      <trkpt lat="43.62263" lon="6.59734">
        <ele>595.3</ele>
        <time>2020-05-31T13:33:24Z</time>
      </trkpt>
      <trkpt lat="43.62266" lon="6.5974">
        <ele>595.8</ele>
        <time>2020-05-31T13:33:29Z</time>
      </trkpt>
      <trkpt lat="43.62269" lon="6.59745">
        <ele>596.5</ele>
        <time>2020-05-31T13:33:35Z</time>
      </trkpt>
      <trkpt lat="43.62273" lon="6.59749">
        <ele>597</ele>
        <time>2020-05-31T13:33:39Z</time>
      </trkpt>
      <trkpt lat="43.62277" lon="6.59753">
        <ele>597.7</ele>
        <time>2020-05-31T13:33:44Z</time>
      </trkpt>
      <trkpt lat="43.62281" lon="6.59757">
        <ele>598.6</ele>
        <time>2020-05-31T13:33:51Z</time>
      </trkpt>
      <trkpt lat="43.62288" lon="6.59761">
        <ele>599.3</ele>
        <time>2020-05-31T13:33:55Z</time>
      </trkpt>
      <trkpt lat="43.62293" lon="6.59765">
        <ele>600</ele>
        <time>2020-05-31T13:33:59Z</time>
      </trkpt>
      <trkpt lat="43.62298" lon="6.59769">
        <ele>600.7</ele>
        <time>2020-05-31T13:34:04Z</time>
      </trkpt>
      <trkpt lat="43.62302" lon="6.59773">
        <ele>601.2</ele>
        <time>2020-05-31T13:34:08Z</time>
      </trkpt>
      <trkpt lat="43.62306" lon="6.59778">
        <ele>601.9</ele>
        <time>2020-05-31T13:34:12Z</time>
      </trkpt>
      <trkpt lat="43.62309" lon="6.59782">
        <ele>602.8</ele>
        <time>2020-05-31T13:34:17Z</time>
      </trkpt>
      <trkpt lat="43.62313" lon="6.59787">
        <ele>603.6</ele>
        <time>2020-05-31T13:34:22Z</time>
      </trkpt>
      <trkpt lat="43.62314" lon="6.59794">
        <ele>604.4</ele>
        <time>2020-05-31T13:34:28Z</time>
      </trkpt>
      <trkpt lat="43.62317" lon="6.59799">
        <ele>605.1</ele>
        <time>2020-05-31T13:34:34Z</time>
      </trkpt>
      <trkpt lat="43.62321" lon="6.59806">
        <ele>605.7</ele>
        <time>2020-05-31T13:34:39Z</time>
      </trkpt>
      <trkpt lat="43.62323" lon="6.59812">
        <ele>606.4</ele>
        <time>2020-05-31T13:34:44Z</time>
      </trkpt>
      <trkpt lat="43.6232" lon="6.59817">
        <ele>607.4</ele>
        <time>2020-05-31T13:34:55Z</time>
      </trkpt>
      <trkpt lat="43.62314" lon="6.59816">
        <ele>607.6</ele>
        <time>2020-05-31T13:34:59Z</time>
      </trkpt>
      <trkpt lat="43.6231" lon="6.59813">
        <ele>607.8</ele>
        <time>2020-05-31T13:35:03Z</time>
      </trkpt>
      <trkpt lat="43.62305" lon="6.59809">
        <ele>608</ele>
        <time>2020-05-31T13:35:07Z</time>
      </trkpt>
      <trkpt lat="43.62301" lon="6.59805">
        <ele>608.3</ele>
        <time>2020-05-31T13:35:11Z</time>
      </trkpt>
      <trkpt lat="43.62297" lon="6.59802">
        <ele>608.8</ele>
        <time>2020-05-31T13:35:16Z</time>
      </trkpt>
      <trkpt lat="43.62293" lon="6.59797">
        <ele>609</ele>
        <time>2020-05-31T13:35:21Z</time>
      </trkpt>
      <trkpt lat="43.62291" lon="6.59791">
        <ele>609</ele>
        <time>2020-05-31T13:35:37Z</time>
      </trkpt>
      <trkpt lat="43.62288" lon="6.59787">
        <ele>608.2</ele>
        <time>2020-05-31T13:35:44Z</time>
      </trkpt>
      <trkpt lat="43.62282" lon="6.59786">
        <ele>607.5</ele>
        <time>2020-05-31T13:35:49Z</time>
      </trkpt>
      <trkpt lat="43.62277" lon="6.59782">
        <ele>606.7</ele>
        <time>2020-05-31T13:35:54Z</time>
      </trkpt>
      <trkpt lat="43.62273" lon="6.59781">
        <ele>606.1</ele>
        <time>2020-05-31T13:35:58Z</time>
      </trkpt>
      <trkpt lat="43.62268" lon="6.5978">
        <ele>605.5</ele>
        <time>2020-05-31T13:36:02Z</time>
      </trkpt>
      <trkpt lat="43.62263" lon="6.59779">
        <ele>605</ele>
        <time>2020-05-31T13:36:06Z</time>
      </trkpt>
      <trkpt lat="43.62258" lon="6.59776">
        <ele>604.5</ele>
        <time>2020-05-31T13:36:10Z</time>
      </trkpt>
      <trkpt lat="43.62254" lon="6.59772">
        <ele>604.3</ele>
        <time>2020-05-31T13:36:14Z</time>
      </trkpt>
      <trkpt lat="43.6225" lon="6.59767">
        <ele>604.1</ele>
        <time>2020-05-31T13:36:18Z</time>
      </trkpt>
      <trkpt lat="43.62246" lon="6.59763">
        <ele>604.3</ele>
        <time>2020-05-31T13:36:24Z</time>
      </trkpt>
      <trkpt lat="43.62241" lon="6.59761">
        <ele>604.9</ele>
        <time>2020-05-31T13:36:29Z</time>
      </trkpt>
      <trkpt lat="43.62237" lon="6.59757">
        <ele>605.5</ele>
        <time>2020-05-31T13:36:34Z</time>
      </trkpt>
      <trkpt lat="43.62233" lon="6.59754">
        <ele>606.1</ele>
        <time>2020-05-31T13:36:39Z</time>
      </trkpt>
      <trkpt lat="43.62228" lon="6.59751">
        <ele>606.7</ele>
        <time>2020-05-31T13:36:44Z</time>
      </trkpt>
      <trkpt lat="43.62225" lon="6.59746">
        <ele>607.3</ele>
        <time>2020-05-31T13:36:49Z</time>
      </trkpt>
      <trkpt lat="43.62221" lon="6.59741">
        <ele>608</ele>
        <time>2020-05-31T13:36:53Z</time>
      </trkpt>
      <trkpt lat="43.62217" lon="6.59734">
        <ele>608.8</ele>
        <time>2020-05-31T13:36:57Z</time>
      </trkpt>
      <trkpt lat="43.62214" lon="6.59728">
        <ele>609.7</ele>
        <time>2020-05-31T13:37:01Z</time>
      </trkpt>
      <trkpt lat="43.62212" lon="6.59723">
        <ele>610.7</ele>
        <time>2020-05-31T13:37:06Z</time>
      </trkpt>
      <trkpt lat="43.6221" lon="6.59715">
        <ele>611.6</ele>
        <time>2020-05-31T13:37:11Z</time>
      </trkpt>
      <trkpt lat="43.62209" lon="6.59708">
        <ele>612.4</ele>
        <time>2020-05-31T13:37:16Z</time>
      </trkpt>
      <trkpt lat="43.62207" lon="6.59701">
        <ele>612.9</ele>
        <time>2020-05-31T13:37:20Z</time>
      </trkpt>
      <trkpt lat="43.62206" lon="6.59694">
        <ele>613.5</ele>
        <time>2020-05-31T13:37:24Z</time>
      </trkpt>
      <trkpt lat="43.62204" lon="6.59688">
        <ele>614</ele>
        <time>2020-05-31T13:37:28Z</time>
      </trkpt>
      <trkpt lat="43.62203" lon="6.59682">
        <ele>614.5</ele>
        <time>2020-05-31T13:37:32Z</time>
      </trkpt>
      <trkpt lat="43.62203" lon="6.59675">
        <ele>615.2</ele>
        <time>2020-05-31T13:37:37Z</time>
      </trkpt>
      <trkpt lat="43.62203" lon="6.59668">
        <ele>615.7</ele>
        <time>2020-05-31T13:37:41Z</time>
      </trkpt>
      <trkpt lat="43.62202" lon="6.5966">
        <ele>616.4</ele>
        <time>2020-05-31T13:37:45Z</time>
      </trkpt>
      <trkpt lat="43.62201" lon="6.59653">
        <ele>617.2</ele>
        <time>2020-05-31T13:37:49Z</time>
      </trkpt>
      <trkpt lat="43.622" lon="6.59647">
        <ele>617.9</ele>
        <time>2020-05-31T13:37:53Z</time>
      </trkpt>
      <trkpt lat="43.62198" lon="6.5964">
        <ele>619.2</ele>
        <time>2020-05-31T13:37:59Z</time>
      </trkpt>
      <trkpt lat="43.62195" lon="6.59633">
        <ele>620.3</ele>
        <time>2020-05-31T13:38:04Z</time>
      </trkpt>
      <trkpt lat="43.62192" lon="6.59628">
        <ele>621</ele>
        <time>2020-05-31T13:38:08Z</time>
      </trkpt>
      <trkpt lat="43.62189" lon="6.59623">
        <ele>621.7</ele>
        <time>2020-05-31T13:38:12Z</time>
      </trkpt>
      <trkpt lat="43.62186" lon="6.59618">
        <ele>622.8</ele>
        <time>2020-05-31T13:38:19Z</time>
      </trkpt>
      <trkpt lat="43.62182" lon="6.59612">
        <ele>623.7</ele>
        <time>2020-05-31T13:38:25Z</time>
      </trkpt>
      <trkpt lat="43.62178" lon="6.5961">
        <ele>624.1</ele>
        <time>2020-05-31T13:38:29Z</time>
      </trkpt>
      <trkpt lat="43.62174" lon="6.59605">
        <ele>624.7</ele>
        <time>2020-05-31T13:38:33Z</time>
      </trkpt>
      <trkpt lat="43.6217" lon="6.59601">
        <ele>625.3</ele>
        <time>2020-05-31T13:38:37Z</time>
      </trkpt>
      <trkpt lat="43.62165" lon="6.59598">
        <ele>625.8</ele>
        <time>2020-05-31T13:38:42Z</time>
      </trkpt>
      <trkpt lat="43.62161" lon="6.59594">
        <ele>626.3</ele>
        <time>2020-05-31T13:38:47Z</time>
      </trkpt>
      <trkpt lat="43.62157" lon="6.5959">
        <ele>626.6</ele>
        <time>2020-05-31T13:38:51Z</time>
      </trkpt>
      <trkpt lat="43.62153" lon="6.59585">
        <ele>627.2</ele>
        <time>2020-05-31T13:38:57Z</time>
      </trkpt>
      <trkpt lat="43.62149" lon="6.59582">
        <ele>627.7</ele>
        <time>2020-05-31T13:39:01Z</time>
      </trkpt>
      <trkpt lat="43.62144" lon="6.59578">
        <ele>628.1</ele>
        <time>2020-05-31T13:39:05Z</time>
      </trkpt>
      <trkpt lat="43.62139" lon="6.59575">
        <ele>628.4</ele>
        <time>2020-05-31T13:39:10Z</time>
      </trkpt>
      <trkpt lat="43.62135" lon="6.59572">
        <ele>628.7</ele>
        <time>2020-05-31T13:39:15Z</time>
      </trkpt>
      <trkpt lat="43.62132" lon="6.59568">
        <ele>629</ele>
        <time>2020-05-31T13:39:19Z</time>
      </trkpt>
      <trkpt lat="43.62129" lon="6.59563">
        <ele>629.5</ele>
        <time>2020-05-31T13:39:25Z</time>
      </trkpt>
      <trkpt lat="43.62124" lon="6.59559">
        <ele>630</ele>
        <time>2020-05-31T13:39:30Z</time>
      </trkpt>
      <trkpt lat="43.62121" lon="6.59553">
        <ele>630.5</ele>
        <time>2020-05-31T13:39:35Z</time>
      </trkpt>
      <trkpt lat="43.62118" lon="6.59547">
        <ele>631</ele>
        <time>2020-05-31T13:39:40Z</time>
      </trkpt>
      <trkpt lat="43.62116" lon="6.59539">
        <ele>631.5</ele>
        <time>2020-05-31T13:39:44Z</time>
      </trkpt>
      <trkpt lat="43.62114" lon="6.59531">
        <ele>631.9</ele>
        <time>2020-05-31T13:39:48Z</time>
      </trkpt>
      <trkpt lat="43.62114" lon="6.59522">
        <ele>632.4</ele>
        <time>2020-05-31T13:39:52Z</time>
      </trkpt>
      <trkpt lat="43.62114" lon="6.59514">
        <ele>633</ele>
        <time>2020-05-31T13:39:56Z</time>
      </trkpt>
      <trkpt lat="43.62114" lon="6.59507">
        <ele>633.8</ele>
        <time>2020-05-31T13:40:00Z</time>
      </trkpt>
      <trkpt lat="43.62113" lon="6.595">
        <ele>634.6</ele>
        <time>2020-05-31T13:40:04Z</time>
      </trkpt>
      <trkpt lat="43.62113" lon="6.59492">
        <ele>635.6</ele>
        <time>2020-05-31T13:40:08Z</time>
      </trkpt>
      <trkpt lat="43.62112" lon="6.59485">
        <ele>636.7</ele>
        <time>2020-05-31T13:40:13Z</time>
      </trkpt>
      <trkpt lat="43.6211" lon="6.59479">
        <ele>638</ele>
        <time>2020-05-31T13:40:19Z</time>
      </trkpt>
      <trkpt lat="43.6211" lon="6.59472">
        <ele>638.9</ele>
        <time>2020-05-31T13:40:25Z</time>
      </trkpt>
      <trkpt lat="43.62107" lon="6.59467">
        <ele>639.3</ele>
        <time>2020-05-31T13:40:29Z</time>
      </trkpt>
      <trkpt lat="43.62104" lon="6.59461">
        <ele>640.2</ele>
        <time>2020-05-31T13:40:34Z</time>
      </trkpt>
      <trkpt lat="43.62104" lon="6.59454">
        <ele>640.9</ele>
        <time>2020-05-31T13:40:38Z</time>
      </trkpt>
      <trkpt lat="43.62102" lon="6.59448">
        <ele>641.9</ele>
        <time>2020-05-31T13:40:43Z</time>
      </trkpt>
      <trkpt lat="43.621" lon="6.59442">
        <ele>642.7</ele>
        <time>2020-05-31T13:40:47Z</time>
      </trkpt>
      <trkpt lat="43.62096" lon="6.59438">
        <ele>643.6</ele>
        <time>2020-05-31T13:40:53Z</time>
      </trkpt>
      <trkpt lat="43.62093" lon="6.59433">
        <ele>644.3</ele>
        <time>2020-05-31T13:40:57Z</time>
      </trkpt>
      <trkpt lat="43.62091" lon="6.59426">
        <ele>645.2</ele>
        <time>2020-05-31T13:41:02Z</time>
      </trkpt>
      <trkpt lat="43.62088" lon="6.5942">
        <ele>646</ele>
        <time>2020-05-31T13:41:07Z</time>
      </trkpt>
      <trkpt lat="43.62087" lon="6.59413">
        <ele>647</ele>
        <time>2020-05-31T13:41:12Z</time>
      </trkpt>
      <trkpt lat="43.62087" lon="6.59405">
        <ele>647.7</ele>
        <time>2020-05-31T13:41:16Z</time>
      </trkpt>
      <trkpt lat="43.62087" lon="6.59397">
        <ele>648.4</ele>
        <time>2020-05-31T13:41:20Z</time>
      </trkpt>
      <trkpt lat="43.62087" lon="6.5939">
        <ele>648.9</ele>
        <time>2020-05-31T13:41:24Z</time>
      </trkpt>
      <trkpt lat="43.62088" lon="6.59382">
        <ele>649.4</ele>
        <time>2020-05-31T13:41:28Z</time>
      </trkpt>
      <trkpt lat="43.62088" lon="6.59375">
        <ele>649.7</ele>
        <time>2020-05-31T13:41:32Z</time>
      </trkpt>
      <trkpt lat="43.62087" lon="6.59368">
        <ele>650</ele>
        <time>2020-05-31T13:41:36Z</time>
      </trkpt>
      <trkpt lat="43.62086" lon="6.5936">
        <ele>650.7</ele>
        <time>2020-05-31T13:41:41Z</time>
      </trkpt>
      <trkpt lat="43.62084" lon="6.59355">
        <ele>651.4</ele>
        <time>2020-05-31T13:41:46Z</time>
      </trkpt>
      <trkpt lat="43.62079" lon="6.59354">
        <ele>652</ele>
        <time>2020-05-31T13:41:53Z</time>
      </trkpt>
      <trkpt lat="43.62074" lon="6.59356">
        <ele>652.6</ele>
        <time>2020-05-31T13:41:59Z</time>
      </trkpt>
      <trkpt lat="43.6207" lon="6.59356">
        <ele>653.1</ele>
        <time>2020-05-31T13:42:05Z</time>
      </trkpt>
      <trkpt lat="43.62065" lon="6.59355">
        <ele>653.6</ele>
        <time>2020-05-31T13:42:09Z</time>
      </trkpt>
      <trkpt lat="43.6206" lon="6.59352">
        <ele>654.1</ele>
        <time>2020-05-31T13:42:13Z</time>
      </trkpt>
      <trkpt lat="43.62056" lon="6.5935">
        <ele>654.5</ele>
        <time>2020-05-31T13:42:17Z</time>
      </trkpt>
      <trkpt lat="43.62051" lon="6.59347">
        <ele>654.8</ele>
        <time>2020-05-31T13:42:21Z</time>
      </trkpt>
      <trkpt lat="43.62047" lon="6.59345">
        <ele>655.4</ele>
        <time>2020-05-31T13:42:25Z</time>
      </trkpt>
      <trkpt lat="43.62042" lon="6.59343">
        <ele>656.1</ele>
        <time>2020-05-31T13:42:29Z</time>
      </trkpt>
      <trkpt lat="43.62038" lon="6.59341">
        <ele>656.8</ele>
        <time>2020-05-31T13:42:34Z</time>
      </trkpt>
      <trkpt lat="43.62033" lon="6.5934">
        <ele>657.3</ele>
        <time>2020-05-31T13:42:38Z</time>
      </trkpt>
      <trkpt lat="43.62028" lon="6.59339">
        <ele>657.7</ele>
        <time>2020-05-31T13:42:42Z</time>
      </trkpt>
      <trkpt lat="43.62023" lon="6.59337">
        <ele>658.1</ele>
        <time>2020-05-31T13:42:49Z</time>
      </trkpt>
      <trkpt lat="43.6202" lon="6.59333">
        <ele>658.3</ele>
        <time>2020-05-31T13:42:53Z</time>
      </trkpt>
      <trkpt lat="43.62016" lon="6.59328">
        <ele>658.3</ele>
        <time>2020-05-31T13:42:57Z</time>
      </trkpt>
      <trkpt lat="43.62012" lon="6.59325">
        <ele>658.2</ele>
        <time>2020-05-31T13:43:02Z</time>
      </trkpt>
      <trkpt lat="43.62007" lon="6.59324">
        <ele>658.2</ele>
        <time>2020-05-31T13:43:07Z</time>
      </trkpt>
      <trkpt lat="43.62001" lon="6.59324">
        <ele>658</ele>
        <time>2020-05-31T13:43:15Z</time>
      </trkpt>
      <trkpt lat="43.61997" lon="6.59327">
        <ele>657.7</ele>
        <time>2020-05-31T13:43:19Z</time>
      </trkpt>
      <trkpt lat="43.61992" lon="6.59329">
        <ele>657.2</ele>
        <time>2020-05-31T13:43:24Z</time>
      </trkpt>
      <trkpt lat="43.61988" lon="6.59331">
        <ele>656.8</ele>
        <time>2020-05-31T13:43:28Z</time>
      </trkpt>
      <trkpt lat="43.61982" lon="6.59334">
        <ele>656.4</ele>
        <time>2020-05-31T13:43:32Z</time>
      </trkpt>
      <trkpt lat="43.61978" lon="6.59336">
        <ele>656.3</ele>
        <time>2020-05-31T13:43:36Z</time>
      </trkpt>
      <trkpt lat="43.61973" lon="6.59338">
        <ele>656.4</ele>
        <time>2020-05-31T13:43:40Z</time>
      </trkpt>
      <trkpt lat="43.61968" lon="6.5934">
        <ele>656.6</ele>
        <time>2020-05-31T13:43:44Z</time>
      </trkpt>
      <trkpt lat="43.61962" lon="6.5934">
        <ele>656.8</ele>
        <time>2020-05-31T13:43:48Z</time>
      </trkpt>
      <trkpt lat="43.61957" lon="6.59339">
        <ele>657</ele>
        <time>2020-05-31T13:43:52Z</time>
      </trkpt>
      <trkpt lat="43.61952" lon="6.59339">
        <ele>657</ele>
        <time>2020-05-31T13:43:56Z</time>
      </trkpt>
      <trkpt lat="43.61947" lon="6.59339">
        <ele>657</ele>
        <time>2020-05-31T13:44:00Z</time>
      </trkpt>
      <trkpt lat="43.61942" lon="6.59338">
        <ele>656.9</ele>
        <time>2020-05-31T13:44:04Z</time>
      </trkpt>
      <trkpt lat="43.61937" lon="6.59336">
        <ele>656.6</ele>
        <time>2020-05-31T13:44:08Z</time>
      </trkpt>
      <trkpt lat="43.61932" lon="6.59335">
        <ele>656.3</ele>
        <time>2020-05-31T13:44:14Z</time>
      </trkpt>
      <trkpt lat="43.61926" lon="6.59335">
        <ele>656.1</ele>
        <time>2020-05-31T13:44:19Z</time>
      </trkpt>
      <trkpt lat="43.61921" lon="6.59335">
        <ele>655.8</ele>
        <time>2020-05-31T13:44:23Z</time>
      </trkpt>
      <trkpt lat="43.61916" lon="6.59335">
        <ele>655.4</ele>
        <time>2020-05-31T13:44:27Z</time>
      </trkpt>
      <trkpt lat="43.6191" lon="6.59333">
        <ele>655</ele>
        <time>2020-05-31T13:44:31Z</time>
      </trkpt>
      <trkpt lat="43.61904" lon="6.59331">
        <ele>654.6</ele>
        <time>2020-05-31T13:44:35Z</time>
      </trkpt>
      <trkpt lat="43.61899" lon="6.59329">
        <ele>654.4</ele>
        <time>2020-05-31T13:44:39Z</time>
      </trkpt>
      <trkpt lat="43.61895" lon="6.59327">
        <ele>654.2</ele>
        <time>2020-05-31T13:44:44Z</time>
      </trkpt>
      <trkpt lat="43.6189" lon="6.59324">
        <ele>653.7</ele>
        <time>2020-05-31T13:44:48Z</time>
      </trkpt>
      <trkpt lat="43.61884" lon="6.59322">
        <ele>653</ele>
        <time>2020-05-31T13:44:52Z</time>
      </trkpt>
      <trkpt lat="43.6188" lon="6.59321">
        <ele>652.7</ele>
        <time>2020-05-31T13:44:56Z</time>
      </trkpt>
      <trkpt lat="43.61875" lon="6.59322">
        <ele>652.6</ele>
        <time>2020-05-31T13:45:00Z</time>
      </trkpt>
      <trkpt lat="43.6187" lon="6.59322">
        <ele>652.6</ele>
        <time>2020-05-31T13:45:04Z</time>
      </trkpt>
      <trkpt lat="43.61865" lon="6.59321">
        <ele>652.7</ele>
        <time>2020-05-31T13:45:09Z</time>
      </trkpt>
      <trkpt lat="43.61859" lon="6.59321">
        <ele>652.6</ele>
        <time>2020-05-31T13:45:14Z</time>
      </trkpt>
      <trkpt lat="43.61854" lon="6.59321">
        <ele>652.4</ele>
        <time>2020-05-31T13:45:19Z</time>
      </trkpt>
      <trkpt lat="43.61847" lon="6.5932">
        <ele>652.2</ele>
        <time>2020-05-31T13:45:23Z</time>
      </trkpt>
      <trkpt lat="43.61841" lon="6.59321">
        <ele>651.9</ele>
        <time>2020-05-31T13:45:28Z</time>
      </trkpt>
      <trkpt lat="43.61837" lon="6.59322">
        <ele>651.6</ele>
        <time>2020-05-31T13:45:32Z</time>
      </trkpt>
      <trkpt lat="43.61831" lon="6.59322">
        <ele>651.4</ele>
        <time>2020-05-31T13:45:36Z</time>
      </trkpt>
      <trkpt lat="43.61825" lon="6.59324">
        <ele>651.2</ele>
        <time>2020-05-31T13:45:40Z</time>
      </trkpt>
      <trkpt lat="43.61821" lon="6.59326">
        <ele>650.7</ele>
        <time>2020-05-31T13:45:44Z</time>
      </trkpt>
      <trkpt lat="43.61815" lon="6.5933">
        <ele>650.2</ele>
        <time>2020-05-31T13:45:48Z</time>
      </trkpt>
      <trkpt lat="43.61812" lon="6.59336">
        <ele>649.7</ele>
        <time>2020-05-31T13:45:53Z</time>
      </trkpt>
      <trkpt lat="43.61807" lon="6.59339">
        <ele>649.7</ele>
        <time>2020-05-31T13:45:57Z</time>
      </trkpt>
      <trkpt lat="43.61803" lon="6.59342">
        <ele>649.5</ele>
        <time>2020-05-31T13:46:01Z</time>
      </trkpt>
      <trkpt lat="43.61798" lon="6.59345">
        <ele>649.4</ele>
        <time>2020-05-31T13:46:05Z</time>
      </trkpt>
      <trkpt lat="43.61794" lon="6.59349">
        <ele>649.1</ele>
        <time>2020-05-31T13:46:09Z</time>
      </trkpt>
      <trkpt lat="43.6179" lon="6.59354">
        <ele>648.7</ele>
        <time>2020-05-31T13:46:13Z</time>
      </trkpt>
      <trkpt lat="43.61786" lon="6.59359">
        <ele>648</ele>
        <time>2020-05-31T13:46:17Z</time>
      </trkpt>
      <trkpt lat="43.61782" lon="6.59363">
        <ele>647.2</ele>
        <time>2020-05-31T13:46:22Z</time>
      </trkpt>
      <trkpt lat="43.61778" lon="6.59367">
        <ele>646.8</ele>
        <time>2020-05-31T13:46:26Z</time>
      </trkpt>
      <trkpt lat="43.61773" lon="6.59371">
        <ele>646.6</ele>
        <time>2020-05-31T13:46:31Z</time>
      </trkpt>
      <trkpt lat="43.61771" lon="6.59377">
        <ele>646.4</ele>
        <time>2020-05-31T13:46:35Z</time>
      </trkpt>
      <trkpt lat="43.61768" lon="6.59383">
        <ele>646.2</ele>
        <time>2020-05-31T13:46:39Z</time>
      </trkpt>
      <trkpt lat="43.61763" lon="6.59386">
        <ele>646.1</ele>
        <time>2020-05-31T13:46:43Z</time>
      </trkpt>
      <trkpt lat="43.61759" lon="6.59389">
        <ele>646.1</ele>
        <time>2020-05-31T13:46:48Z</time>
      </trkpt>
      <trkpt lat="43.61755" lon="6.59393">
        <ele>646.1</ele>
        <time>2020-05-31T13:46:52Z</time>
      </trkpt>
      <trkpt lat="43.61751" lon="6.59397">
        <ele>645.9</ele>
        <time>2020-05-31T13:46:56Z</time>
      </trkpt>
      <trkpt lat="43.61747" lon="6.59401">
        <ele>645.6</ele>
        <time>2020-05-31T13:47:00Z</time>
      </trkpt>
      <trkpt lat="43.61743" lon="6.59403">
        <ele>645.4</ele>
        <time>2020-05-31T13:47:05Z</time>
      </trkpt>
      <trkpt lat="43.61737" lon="6.59404">
        <ele>645.2</ele>
        <time>2020-05-31T13:47:09Z</time>
      </trkpt>
      <trkpt lat="43.61732" lon="6.59405">
        <ele>645.1</ele>
        <time>2020-05-31T13:47:13Z</time>
      </trkpt>
      <trkpt lat="43.61728" lon="6.59408">
        <ele>645.1</ele>
        <time>2020-05-31T13:47:17Z</time>
      </trkpt>
      <trkpt lat="43.61722" lon="6.59409">
        <ele>644.9</ele>
        <time>2020-05-31T13:47:22Z</time>
      </trkpt>
      <trkpt lat="43.61718" lon="6.59413">
        <ele>644.5</ele>
        <time>2020-05-31T13:47:26Z</time>
      </trkpt>
      <trkpt lat="43.61714" lon="6.59417">
        <ele>643.8</ele>
        <time>2020-05-31T13:47:31Z</time>
      </trkpt>
      <trkpt lat="43.61709" lon="6.59418">
        <ele>643.2</ele>
        <time>2020-05-31T13:47:35Z</time>
      </trkpt>
      <trkpt lat="43.61704" lon="6.59419">
        <ele>642.6</ele>
        <time>2020-05-31T13:47:39Z</time>
      </trkpt>
      <trkpt lat="43.61698" lon="6.59417">
        <ele>642.4</ele>
        <time>2020-05-31T13:47:43Z</time>
      </trkpt>
      <trkpt lat="43.61691" lon="6.59416">
        <ele>642.4</ele>
        <time>2020-05-31T13:47:47Z</time>
      </trkpt>
      <trkpt lat="43.61687" lon="6.59414">
        <ele>642.3</ele>
        <time>2020-05-31T13:47:51Z</time>
      </trkpt>
      <trkpt lat="43.61682" lon="6.5941">
        <ele>642.1</ele>
        <time>2020-05-31T13:47:55Z</time>
      </trkpt>
      <trkpt lat="43.61676" lon="6.59406">
        <ele>641.9</ele>
        <time>2020-05-31T13:48:00Z</time>
      </trkpt>
      <trkpt lat="43.61674" lon="6.594">
        <ele>641.8</ele>
        <time>2020-05-31T13:48:07Z</time>
      </trkpt>
      <trkpt lat="43.61673" lon="6.59393">
        <ele>642.5</ele>
        <time>2020-05-31T13:48:13Z</time>
      </trkpt>
      <trkpt lat="43.61671" lon="6.59388">
        <ele>643.3</ele>
        <time>2020-05-31T13:48:18Z</time>
      </trkpt>
      <trkpt lat="43.61668" lon="6.59383">
        <ele>644.2</ele>
        <time>2020-05-31T13:48:22Z</time>
      </trkpt>
      <trkpt lat="43.61664" lon="6.59379">
        <ele>646.2</ele>
        <time>2020-05-31T13:48:30Z</time>
      </trkpt>
      <trkpt lat="43.61661" lon="6.59373">
        <ele>647.9</ele>
        <time>2020-05-31T13:48:38Z</time>
      </trkpt>
      <trkpt lat="43.61656" lon="6.59367">
        <ele>648.3</ele>
        <time>2020-05-31T13:48:42Z</time>
      </trkpt>
      <trkpt lat="43.61652" lon="6.59363">
        <ele>648.4</ele>
        <time>2020-05-31T13:48:48Z</time>
      </trkpt>
      <trkpt lat="43.61649" lon="6.59357">
        <ele>648.5</ele>
        <time>2020-05-31T13:48:52Z</time>
      </trkpt>
      <trkpt lat="43.61646" lon="6.5935">
        <ele>649.3</ele>
        <time>2020-05-31T13:48:57Z</time>
      </trkpt>
      <trkpt lat="43.61642" lon="6.59344">
        <ele>650.4</ele>
        <time>2020-05-31T13:49:01Z</time>
      </trkpt>
      <trkpt lat="43.61639" lon="6.59339">
        <ele>652</ele>
        <time>2020-05-31T13:49:08Z</time>
      </trkpt>
      <trkpt lat="43.61636" lon="6.59334">
        <ele>652.6</ele>
        <time>2020-05-31T13:49:12Z</time>
      </trkpt>
      <trkpt lat="43.61634" lon="6.59326">
        <ele>653.1</ele>
        <time>2020-05-31T13:49:17Z</time>
      </trkpt>
      <trkpt lat="43.6163" lon="6.5932">
        <ele>653.3</ele>
        <time>2020-05-31T13:49:21Z</time>
      </trkpt>
      <trkpt lat="43.61626" lon="6.59315">
        <ele>653.5</ele>
        <time>2020-05-31T13:49:25Z</time>
      </trkpt>
      <trkpt lat="43.61621" lon="6.5931">
        <ele>653.4</ele>
        <time>2020-05-31T13:49:29Z</time>
      </trkpt>
      <trkpt lat="43.61617" lon="6.59306">
        <ele>653.3</ele>
        <time>2020-05-31T13:49:34Z</time>
      </trkpt>
      <trkpt lat="43.61614" lon="6.593">
        <ele>652.9</ele>
        <time>2020-05-31T13:49:39Z</time>
      </trkpt>
      <trkpt lat="43.61612" lon="6.59294">
        <ele>652.5</ele>
        <time>2020-05-31T13:49:43Z</time>
      </trkpt>
      <trkpt lat="43.6161" lon="6.59286">
        <ele>652.1</ele>
        <time>2020-05-31T13:49:47Z</time>
      </trkpt>
      <trkpt lat="43.61607" lon="6.59279">
        <ele>651.6</ele>
        <time>2020-05-31T13:49:51Z</time>
      </trkpt>
      <trkpt lat="43.61603" lon="6.59273">
        <ele>651.6</ele>
        <time>2020-05-31T13:49:55Z</time>
      </trkpt>
      <trkpt lat="43.616" lon="6.59267">
        <ele>651.8</ele>
        <time>2020-05-31T13:49:59Z</time>
      </trkpt>
      <trkpt lat="43.61597" lon="6.59262">
        <ele>652</ele>
        <time>2020-05-31T13:50:06Z</time>
      </trkpt>
      <trkpt lat="43.61595" lon="6.59255">
        <ele>652.4</ele>
        <time>2020-05-31T13:50:11Z</time>
      </trkpt>
      <trkpt lat="43.61594" lon="6.59248">
        <ele>652.8</ele>
        <time>2020-05-31T13:50:16Z</time>
      </trkpt>
      <trkpt lat="43.61592" lon="6.59239">
        <ele>652.8</ele>
        <time>2020-05-31T13:50:20Z</time>
      </trkpt>
      <trkpt lat="43.61588" lon="6.59232">
        <ele>652.8</ele>
        <time>2020-05-31T13:50:24Z</time>
      </trkpt>
      <trkpt lat="43.61586" lon="6.59227">
        <ele>653</ele>
        <time>2020-05-31T13:50:28Z</time>
      </trkpt>
      <trkpt lat="43.6158" lon="6.59222">
        <ele>653.1</ele>
        <time>2020-05-31T13:50:32Z</time>
      </trkpt>
      <trkpt lat="43.61575" lon="6.59221">
        <ele>653.3</ele>
        <time>2020-05-31T13:50:37Z</time>
      </trkpt>
      <trkpt lat="43.6157" lon="6.5922">
        <ele>653.2</ele>
        <time>2020-05-31T13:50:41Z</time>
      </trkpt>
      <trkpt lat="43.61564" lon="6.59218">
        <ele>653</ele>
        <time>2020-05-31T13:50:45Z</time>
      </trkpt>
      <trkpt lat="43.61559" lon="6.59215">
        <ele>652.7</ele>
        <time>2020-05-31T13:50:50Z</time>
      </trkpt>
      <trkpt lat="43.61552" lon="6.59212">
        <ele>652.3</ele>
        <time>2020-05-31T13:50:54Z</time>
      </trkpt>
      <trkpt lat="43.61548" lon="6.59209">
        <ele>651.5</ele>
        <time>2020-05-31T13:50:59Z</time>
      </trkpt>
      <trkpt lat="43.61543" lon="6.59207">
        <ele>650.7</ele>
        <time>2020-05-31T13:51:03Z</time>
      </trkpt>
      <trkpt lat="43.61538" lon="6.59206">
        <ele>649.6</ele>
        <time>2020-05-31T13:51:08Z</time>
      </trkpt>
      <trkpt lat="43.61533" lon="6.59206">
        <ele>648.5</ele>
        <time>2020-05-31T13:51:12Z</time>
      </trkpt>
      <trkpt lat="43.61528" lon="6.59207">
        <ele>647.1</ele>
        <time>2020-05-31T13:51:16Z</time>
      </trkpt>
      <trkpt lat="43.61523" lon="6.59207">
        <ele>645.4</ele>
        <time>2020-05-31T13:51:21Z</time>
      </trkpt>
      <trkpt lat="43.61517" lon="6.59209">
        <ele>643.9</ele>
        <time>2020-05-31T13:51:25Z</time>
      </trkpt>
      <trkpt lat="43.61511" lon="6.5921">
        <ele>641.9</ele>
        <time>2020-05-31T13:51:31Z</time>
      </trkpt>
      <trkpt lat="43.61507" lon="6.59209">
        <ele>641.2</ele>
        <time>2020-05-31T13:51:35Z</time>
      </trkpt>
      <trkpt lat="43.61502" lon="6.59209">
        <ele>640.9</ele>
        <time>2020-05-31T13:51:39Z</time>
      </trkpt>
      <trkpt lat="43.61496" lon="6.59207">
        <ele>641</ele>
        <time>2020-05-31T13:51:43Z</time>
      </trkpt>
      <trkpt lat="43.61491" lon="6.59201">
        <ele>641.6</ele>
        <time>2020-05-31T13:51:47Z</time>
      </trkpt>
      <trkpt lat="43.61487" lon="6.59195">
        <ele>641.9</ele>
        <time>2020-05-31T13:51:51Z</time>
      </trkpt>
      <trkpt lat="43.61484" lon="6.59188">
        <ele>642.4</ele>
        <time>2020-05-31T13:51:55Z</time>
      </trkpt>
      <trkpt lat="43.61482" lon="6.5918">
        <ele>642.8</ele>
        <time>2020-05-31T13:51:59Z</time>
      </trkpt>
      <trkpt lat="43.61479" lon="6.59174">
        <ele>643.3</ele>
        <time>2020-05-31T13:52:04Z</time>
      </trkpt>
      <trkpt lat="43.61478" lon="6.59167">
        <ele>644</ele>
        <time>2020-05-31T13:52:09Z</time>
      </trkpt>
      <trkpt lat="43.61475" lon="6.59161">
        <ele>644.3</ele>
        <time>2020-05-31T13:52:14Z</time>
      </trkpt>
      <trkpt lat="43.61473" lon="6.59156">
        <ele>644.5</ele>
        <time>2020-05-31T13:52:18Z</time>
      </trkpt>
      <trkpt lat="43.6147" lon="6.5915">
        <ele>644.6</ele>
        <time>2020-05-31T13:52:23Z</time>
      </trkpt>
      <trkpt lat="43.61467" lon="6.59145">
        <ele>644.5</ele>
        <time>2020-05-31T13:52:27Z</time>
      </trkpt>
      <trkpt lat="43.61463" lon="6.59139">
        <ele>644.2</ele>
        <time>2020-05-31T13:52:31Z</time>
      </trkpt>
      <trkpt lat="43.6146" lon="6.59133">
        <ele>643.8</ele>
        <time>2020-05-31T13:52:36Z</time>
      </trkpt>
      <trkpt lat="43.61457" lon="6.59127">
        <ele>643.3</ele>
        <time>2020-05-31T13:52:40Z</time>
      </trkpt>
      <trkpt lat="43.61453" lon="6.59122">
        <ele>642.6</ele>
        <time>2020-05-31T13:52:45Z</time>
      </trkpt>
      <trkpt lat="43.6145" lon="6.59115">
        <ele>641.8</ele>
        <time>2020-05-31T13:52:49Z</time>
      </trkpt>
      <trkpt lat="43.61446" lon="6.59112">
        <ele>640.6</ele>
        <time>2020-05-31T13:52:55Z</time>
      </trkpt>
      <trkpt lat="43.61442" lon="6.59105">
        <ele>639.9</ele>
        <time>2020-05-31T13:52:59Z</time>
      </trkpt>
      <trkpt lat="43.61438" lon="6.59101">
        <ele>639.1</ele>
        <time>2020-05-31T13:53:04Z</time>
      </trkpt>
      <trkpt lat="43.61434" lon="6.59094">
        <ele>638.7</ele>
        <time>2020-05-31T13:53:08Z</time>
      </trkpt>
      <trkpt lat="43.61431" lon="6.59089">
        <ele>638.3</ele>
        <time>2020-05-31T13:53:13Z</time>
      </trkpt>
      <trkpt lat="43.61427" lon="6.59085">
        <ele>638</ele>
        <time>2020-05-31T13:53:18Z</time>
      </trkpt>
      <trkpt lat="43.61424" lon="6.5908">
        <ele>637.6</ele>
        <time>2020-05-31T13:53:22Z</time>
      </trkpt>
      <trkpt lat="43.61422" lon="6.59072">
        <ele>637</ele>
        <time>2020-05-31T13:53:26Z</time>
      </trkpt>
      <trkpt lat="43.61419" lon="6.59064">
        <ele>636.5</ele>
        <time>2020-05-31T13:53:30Z</time>
      </trkpt>
      <trkpt lat="43.61414" lon="6.5906">
        <ele>635.9</ele>
        <time>2020-05-31T13:53:34Z</time>
      </trkpt>
      <trkpt lat="43.61412" lon="6.59055">
        <ele>635.1</ele>
        <time>2020-05-31T13:53:39Z</time>
      </trkpt>
      <trkpt lat="43.61409" lon="6.59049">
        <ele>634.5</ele>
        <time>2020-05-31T13:53:43Z</time>
      </trkpt>
      <trkpt lat="43.61406" lon="6.59044">
        <ele>633.8</ele>
        <time>2020-05-31T13:53:47Z</time>
      </trkpt>
      <trkpt lat="43.61403" lon="6.59036">
        <ele>633.3</ele>
        <time>2020-05-31T13:53:51Z</time>
      </trkpt>
      <trkpt lat="43.614" lon="6.59031">
        <ele>633</ele>
        <time>2020-05-31T13:53:55Z</time>
      </trkpt>
      <trkpt lat="43.61397" lon="6.59026">
        <ele>632.8</ele>
        <time>2020-05-31T13:54:01Z</time>
      </trkpt>
      <trkpt lat="43.61393" lon="6.59018">
        <ele>632.6</ele>
        <time>2020-05-31T13:54:05Z</time>
      </trkpt>
      <trkpt lat="43.61391" lon="6.59012">
        <ele>632.3</ele>
        <time>2020-05-31T13:54:09Z</time>
      </trkpt>
      <trkpt lat="43.61388" lon="6.59006">
        <ele>632.1</ele>
        <time>2020-05-31T13:54:13Z</time>
      </trkpt>
      <trkpt lat="43.61386" lon="6.58998">
        <ele>632</ele>
        <time>2020-05-31T13:54:17Z</time>
      </trkpt>
      <trkpt lat="43.61383" lon="6.58991">
        <ele>631.8</ele>
        <time>2020-05-31T13:54:21Z</time>
      </trkpt>
      <trkpt lat="43.61382" lon="6.58984">
        <ele>631.6</ele>
        <time>2020-05-31T13:54:25Z</time>
      </trkpt>
      <trkpt lat="43.6138" lon="6.58978">
        <ele>631.2</ele>
        <time>2020-05-31T13:54:29Z</time>
      </trkpt>
      <trkpt lat="43.61376" lon="6.58973">
        <ele>630.5</ele>
        <time>2020-05-31T13:54:34Z</time>
      </trkpt>
      <trkpt lat="43.61374" lon="6.58966">
        <ele>629.7</ele>
        <time>2020-05-31T13:54:40Z</time>
      </trkpt>
      <trkpt lat="43.61372" lon="6.58959">
        <ele>629</ele>
        <time>2020-05-31T13:54:45Z</time>
      </trkpt>
      <trkpt lat="43.61369" lon="6.58952">
        <ele>628.5</ele>
        <time>2020-05-31T13:54:49Z</time>
      </trkpt>
      <trkpt lat="43.61366" lon="6.58944">
        <ele>627.9</ele>
        <time>2020-05-31T13:54:53Z</time>
      </trkpt>
      <trkpt lat="43.61364" lon="6.58937">
        <ele>627.3</ele>
        <time>2020-05-31T13:54:57Z</time>
      </trkpt>
      <trkpt lat="43.6136" lon="6.58931">
        <ele>626.6</ele>
        <time>2020-05-31T13:55:01Z</time>
      </trkpt>
      <trkpt lat="43.61358" lon="6.58925">
        <ele>625.7</ele>
        <time>2020-05-31T13:55:06Z</time>
      </trkpt>
      <trkpt lat="43.61355" lon="6.5892">
        <ele>625.2</ele>
        <time>2020-05-31T13:55:11Z</time>
      </trkpt>
      <trkpt lat="43.61351" lon="6.58915">
        <ele>625</ele>
        <time>2020-05-31T13:55:15Z</time>
      </trkpt>
      <trkpt lat="43.61347" lon="6.58909">
        <ele>624.6</ele>
        <time>2020-05-31T13:55:19Z</time>
      </trkpt>
      <trkpt lat="43.61343" lon="6.58905">
        <ele>623.8</ele>
        <time>2020-05-31T13:55:23Z</time>
      </trkpt>
      <trkpt lat="43.61338" lon="6.589">
        <ele>622.8</ele>
        <time>2020-05-31T13:55:27Z</time>
      </trkpt>
      <trkpt lat="43.61333" lon="6.58896">
        <ele>621.6</ele>
        <time>2020-05-31T13:55:31Z</time>
      </trkpt>
      <trkpt lat="43.61329" lon="6.58893">
        <ele>620</ele>
        <time>2020-05-31T13:55:36Z</time>
      </trkpt>
      <trkpt lat="43.61324" lon="6.5889">
        <ele>617.8</ele>
        <time>2020-05-31T13:55:46Z</time>
      </trkpt>
      <trkpt lat="43.61319" lon="6.5889">
        <ele>617.4</ele>
        <time>2020-05-31T13:55:50Z</time>
      </trkpt>
      <trkpt lat="43.61314" lon="6.5889">
        <ele>616.7</ele>
        <time>2020-05-31T13:55:56Z</time>
      </trkpt>
      <trkpt lat="43.61309" lon="6.58889">
        <ele>616.2</ele>
        <time>2020-05-31T13:56:00Z</time>
      </trkpt>
      <trkpt lat="43.61304" lon="6.58889">
        <ele>615.5</ele>
        <time>2020-05-31T13:56:06Z</time>
      </trkpt>
      <trkpt lat="43.61299" lon="6.58886">
        <ele>615.2</ele>
        <time>2020-05-31T13:56:10Z</time>
      </trkpt>
      <trkpt lat="43.61292" lon="6.58882">
        <ele>615.1</ele>
        <time>2020-05-31T13:56:14Z</time>
      </trkpt>
      <trkpt lat="43.61287" lon="6.5888">
        <ele>615</ele>
        <time>2020-05-31T13:56:18Z</time>
      </trkpt>
      <trkpt lat="43.61283" lon="6.58876">
        <ele>615</ele>
        <time>2020-05-31T13:56:22Z</time>
      </trkpt>
      <trkpt lat="43.61279" lon="6.58873">
        <ele>614.7</ele>
        <time>2020-05-31T13:56:26Z</time>
      </trkpt>
      <trkpt lat="43.61275" lon="6.58868">
        <ele>614.8</ele>
        <time>2020-05-31T13:56:32Z</time>
      </trkpt>
      <trkpt lat="43.61272" lon="6.58862">
        <ele>614.8</ele>
        <time>2020-05-31T13:56:36Z</time>
      </trkpt>
      <trkpt lat="43.61267" lon="6.58856">
        <ele>614.4</ele>
        <time>2020-05-31T13:56:40Z</time>
      </trkpt>
      <trkpt lat="43.61263" lon="6.58851">
        <ele>613.5</ele>
        <time>2020-05-31T13:56:44Z</time>
      </trkpt>
      <trkpt lat="43.61261" lon="6.58846">
        <ele>610.4</ele>
        <time>2020-05-31T13:56:58Z</time>
      </trkpt>
      <trkpt lat="43.61256" lon="6.58841">
        <ele>608.9</ele>
        <time>2020-05-31T13:57:02Z</time>
      </trkpt>
      <trkpt lat="43.61252" lon="6.58837">
        <ele>606.9</ele>
        <time>2020-05-31T13:57:07Z</time>
      </trkpt>
      <trkpt lat="43.61247" lon="6.58834">
        <ele>604.9</ele>
        <time>2020-05-31T13:57:12Z</time>
      </trkpt>
      <trkpt lat="43.61242" lon="6.5883">
        <ele>603.5</ele>
        <time>2020-05-31T13:57:16Z</time>
      </trkpt>
      <trkpt lat="43.61237" lon="6.58828">
        <ele>601.8</ele>
        <time>2020-05-31T13:57:22Z</time>
      </trkpt>
      <trkpt lat="43.61231" lon="6.58823">
        <ele>600.9</ele>
        <time>2020-05-31T13:57:26Z</time>
      </trkpt>
      <trkpt lat="43.61228" lon="6.58818">
        <ele>599.7</ele>
        <time>2020-05-31T13:57:30Z</time>
      </trkpt>
      <trkpt lat="43.61224" lon="6.58814">
        <ele>598.3</ele>
        <time>2020-05-31T13:57:35Z</time>
      </trkpt>
      <trkpt lat="43.61218" lon="6.58812">
        <ele>597</ele>
        <time>2020-05-31T13:57:40Z</time>
      </trkpt>
      <trkpt lat="43.61213" lon="6.58812">
        <ele>595.7</ele>
        <time>2020-05-31T13:57:45Z</time>
      </trkpt>
      <trkpt lat="43.61208" lon="6.58809">
        <ele>594.7</ele>
        <time>2020-05-31T13:57:50Z</time>
      </trkpt>
      <trkpt lat="43.61205" lon="6.58803">
        <ele>594.2</ele>
        <time>2020-05-31T13:57:54Z</time>
      </trkpt>
      <trkpt lat="43.61204" lon="6.58796">
        <ele>592.1</ele>
        <time>2020-05-31T13:58:09Z</time>
      </trkpt>
      <trkpt lat="43.61199" lon="6.58791">
        <ele>592</ele>
        <time>2020-05-31T13:58:13Z</time>
      </trkpt>
      <trkpt lat="43.61195" lon="6.58784">
        <ele>592.1</ele>
        <time>2020-05-31T13:58:17Z</time>
      </trkpt>
      <trkpt lat="43.61194" lon="6.58778">
        <ele>593.7</ele>
        <time>2020-05-31T13:58:29Z</time>
      </trkpt>
      <trkpt lat="43.61195" lon="6.58771">
        <ele>593.8</ele>
        <time>2020-05-31T13:58:34Z</time>
      </trkpt>
      <trkpt lat="43.61198" lon="6.58761">
        <ele>593.7</ele>
        <time>2020-05-31T13:58:38Z</time>
      </trkpt>
      <trkpt lat="43.61202" lon="6.58753">
        <ele>593.5</ele>
        <time>2020-05-31T13:58:42Z</time>
      </trkpt>
      <trkpt lat="43.61205" lon="6.58747">
        <ele>593.7</ele>
        <time>2020-05-31T13:58:46Z</time>
      </trkpt>
      <trkpt lat="43.61207" lon="6.58741">
        <ele>594.6</ele>
        <time>2020-05-31T13:58:51Z</time>
      </trkpt>
      <trkpt lat="43.61211" lon="6.58735">
        <ele>595.8</ele>
        <time>2020-05-31T13:58:55Z</time>
      </trkpt>
      <trkpt lat="43.61215" lon="6.58729">
        <ele>597</ele>
        <time>2020-05-31T13:58:59Z</time>
      </trkpt>
      <trkpt lat="43.6122" lon="6.58723">
        <ele>598.6</ele>
        <time>2020-05-31T13:59:03Z</time>
      </trkpt>
      <trkpt lat="43.61222" lon="6.58718">
        <ele>600</ele>
        <time>2020-05-31T13:59:07Z</time>
      </trkpt>
      <trkpt lat="43.61224" lon="6.58711">
        <ele>600.8</ele>
        <time>2020-05-31T13:59:12Z</time>
      </trkpt>
      <trkpt lat="43.61227" lon="6.58705">
        <ele>601.3</ele>
        <time>2020-05-31T13:59:16Z</time>
      </trkpt>
      <trkpt lat="43.61229" lon="6.58699">
        <ele>601.8</ele>
        <time>2020-05-31T13:59:20Z</time>
      </trkpt>
      <trkpt lat="43.61231" lon="6.58693">
        <ele>602.7</ele>
        <time>2020-05-31T13:59:25Z</time>
      </trkpt>
      <trkpt lat="43.61232" lon="6.58686">
        <ele>603.3</ele>
        <time>2020-05-31T13:59:30Z</time>
      </trkpt>
      <trkpt lat="43.61232" lon="6.58678">
        <ele>604.2</ele>
        <time>2020-05-31T13:59:34Z</time>
      </trkpt>
      <trkpt lat="43.61232" lon="6.58669">
        <ele>605</ele>
        <time>2020-05-31T13:59:38Z</time>
      </trkpt>
      <trkpt lat="43.61231" lon="6.58662">
        <ele>605.7</ele>
        <time>2020-05-31T13:59:43Z</time>
      </trkpt>
      <trkpt lat="43.61232" lon="6.58655">
        <ele>606.1</ele>
        <time>2020-05-31T13:59:48Z</time>
      </trkpt>
      <trkpt lat="43.61232" lon="6.58647">
        <ele>606.3</ele>
        <time>2020-05-31T13:59:52Z</time>
      </trkpt>
      <trkpt lat="43.61232" lon="6.58639">
        <ele>606.3</ele>
        <time>2020-05-31T13:59:56Z</time>
      </trkpt>
      <trkpt lat="43.61233" lon="6.58633">
        <ele>606</ele>
        <time>2020-05-31T14:00:00Z</time>
      </trkpt>
      <trkpt lat="43.61233" lon="6.58626">
        <ele>605.2</ele>
        <time>2020-05-31T14:00:04Z</time>
      </trkpt>
      <trkpt lat="43.61233" lon="6.58618">
        <ele>604.2</ele>
        <time>2020-05-31T14:00:08Z</time>
      </trkpt>
      <trkpt lat="43.61233" lon="6.5861">
        <ele>603.2</ele>
        <time>2020-05-31T14:00:12Z</time>
      </trkpt>
      <trkpt lat="43.61234" lon="6.58603">
        <ele>601.9</ele>
        <time>2020-05-31T14:00:16Z</time>
      </trkpt>
      <trkpt lat="43.61235" lon="6.58594">
        <ele>600.7</ele>
        <time>2020-05-31T14:00:20Z</time>
      </trkpt>
      <trkpt lat="43.61235" lon="6.58586">
        <ele>599.7</ele>
        <time>2020-05-31T14:00:24Z</time>
      </trkpt>
      <trkpt lat="43.61236" lon="6.5858">
        <ele>598.7</ele>
        <time>2020-05-31T14:00:28Z</time>
      </trkpt>
      <trkpt lat="43.61237" lon="6.58572">
        <ele>598.3</ele>
        <time>2020-05-31T14:00:33Z</time>
      </trkpt>
      <trkpt lat="43.61238" lon="6.58564">
        <ele>598.5</ele>
        <time>2020-05-31T14:00:37Z</time>
      </trkpt>
      <trkpt lat="43.61237" lon="6.58558">
        <ele>598.7</ele>
        <time>2020-05-31T14:00:43Z</time>
      </trkpt>
      <trkpt lat="43.61237" lon="6.58551">
        <ele>598.7</ele>
        <time>2020-05-31T14:00:48Z</time>
      </trkpt>
      <trkpt lat="43.61236" lon="6.58545">
        <ele>598.4</ele>
        <time>2020-05-31T14:00:52Z</time>
      </trkpt>
      <trkpt lat="43.61234" lon="6.58539">
        <ele>598</ele>
        <time>2020-05-31T14:00:58Z</time>
      </trkpt>
      <trkpt lat="43.61232" lon="6.58532">
        <ele>597.9</ele>
        <time>2020-05-31T14:01:02Z</time>
      </trkpt>
      <trkpt lat="43.6123" lon="6.58524">
        <ele>597.7</ele>
        <time>2020-05-31T14:01:06Z</time>
      </trkpt>
      <trkpt lat="43.61229" lon="6.58515">
        <ele>597.7</ele>
        <time>2020-05-31T14:01:10Z</time>
      </trkpt>
      <trkpt lat="43.61229" lon="6.58507">
        <ele>597.6</ele>
        <time>2020-05-31T14:01:14Z</time>
      </trkpt>
      <trkpt lat="43.61227" lon="6.585">
        <ele>597.4</ele>
        <time>2020-05-31T14:01:19Z</time>
      </trkpt>
      <trkpt lat="43.61227" lon="6.58492">
        <ele>596.9</ele>
        <time>2020-05-31T14:01:23Z</time>
      </trkpt>
      <trkpt lat="43.61225" lon="6.58484">
        <ele>596.3</ele>
        <time>2020-05-31T14:01:27Z</time>
      </trkpt>
      <trkpt lat="43.61223" lon="6.58478">
        <ele>595.7</ele>
        <time>2020-05-31T14:01:31Z</time>
      </trkpt>
      <trkpt lat="43.61221" lon="6.58471">
        <ele>594.7</ele>
        <time>2020-05-31T14:01:36Z</time>
      </trkpt>
      <trkpt lat="43.61219" lon="6.58465">
        <ele>593.6</ele>
        <time>2020-05-31T14:01:41Z</time>
      </trkpt>
      <trkpt lat="43.61216" lon="6.58459">
        <ele>592.7</ele>
        <time>2020-05-31T14:01:45Z</time>
      </trkpt>
      <trkpt lat="43.61213" lon="6.58452">
        <ele>591.9</ele>
        <time>2020-05-31T14:01:49Z</time>
      </trkpt>
      <trkpt lat="43.6121" lon="6.58443">
        <ele>591.3</ele>
        <time>2020-05-31T14:01:53Z</time>
      </trkpt>
      <trkpt lat="43.6121" lon="6.58437">
        <ele>590.7</ele>
        <time>2020-05-31T14:01:57Z</time>
      </trkpt>
      <trkpt lat="43.61209" lon="6.5843">
        <ele>590</ele>
        <time>2020-05-31T14:02:02Z</time>
      </trkpt>
      <trkpt lat="43.61209" lon="6.58422">
        <ele>588.9</ele>
        <time>2020-05-31T14:02:06Z</time>
      </trkpt>
      <trkpt lat="43.6121" lon="6.58414">
        <ele>587.6</ele>
        <time>2020-05-31T14:02:10Z</time>
      </trkpt>
      <trkpt lat="43.61209" lon="6.58407">
        <ele>586.3</ele>
        <time>2020-05-31T14:02:14Z</time>
      </trkpt>
      <trkpt lat="43.6121" lon="6.584">
        <ele>585.3</ele>
        <time>2020-05-31T14:02:18Z</time>
      </trkpt>
      <trkpt lat="43.61211" lon="6.58394">
        <ele>584.3</ele>
        <time>2020-05-31T14:02:22Z</time>
      </trkpt>
      <trkpt lat="43.61211" lon="6.58388">
        <ele>583.2</ele>
        <time>2020-05-31T14:02:26Z</time>
      </trkpt>
      <trkpt lat="43.6121" lon="6.58379">
        <ele>582.5</ele>
        <time>2020-05-31T14:02:30Z</time>
      </trkpt>
      <trkpt lat="43.61209" lon="6.58371">
        <ele>581.9</ele>
        <time>2020-05-31T14:02:34Z</time>
      </trkpt>
      <trkpt lat="43.61209" lon="6.58364">
        <ele>581</ele>
        <time>2020-05-31T14:02:38Z</time>
      </trkpt>
      <trkpt lat="43.61208" lon="6.58358">
        <ele>580.6</ele>
        <time>2020-05-31T14:02:42Z</time>
      </trkpt>
      <trkpt lat="43.61207" lon="6.5835">
        <ele>580.5</ele>
        <time>2020-05-31T14:02:46Z</time>
      </trkpt>
      <trkpt lat="43.61205" lon="6.58344">
        <ele>580.2</ele>
        <time>2020-05-31T14:02:51Z</time>
      </trkpt>
      <trkpt lat="43.61203" lon="6.58337">
        <ele>579.6</ele>
        <time>2020-05-31T14:02:56Z</time>
      </trkpt>
      <trkpt lat="43.612" lon="6.58331">
        <ele>579.1</ele>
        <time>2020-05-31T14:03:00Z</time>
      </trkpt>
      <trkpt lat="43.61198" lon="6.58325">
        <ele>578.6</ele>
        <time>2020-05-31T14:03:04Z</time>
      </trkpt>
      <trkpt lat="43.61195" lon="6.58317">
        <ele>578.2</ele>
        <time>2020-05-31T14:03:08Z</time>
      </trkpt>
      <trkpt lat="43.61194" lon="6.5831">
        <ele>577.7</ele>
        <time>2020-05-31T14:03:12Z</time>
      </trkpt>
      <trkpt lat="43.61193" lon="6.58302">
        <ele>576.9</ele>
        <time>2020-05-31T14:03:16Z</time>
      </trkpt>
      <trkpt lat="43.61193" lon="6.58293">
        <ele>576.4</ele>
        <time>2020-05-31T14:03:20Z</time>
      </trkpt>
      <trkpt lat="43.61193" lon="6.58287">
        <ele>575.8</ele>
        <time>2020-05-31T14:03:25Z</time>
      </trkpt>
      <trkpt lat="43.61194" lon="6.5828">
        <ele>575.5</ele>
        <time>2020-05-31T14:03:29Z</time>
      </trkpt>
      <trkpt lat="43.61193" lon="6.58272">
        <ele>575.2</ele>
        <time>2020-05-31T14:03:33Z</time>
      </trkpt>
      <trkpt lat="43.61193" lon="6.58265">
        <ele>575.1</ele>
        <time>2020-05-31T14:03:37Z</time>
      </trkpt>
      <trkpt lat="43.61194" lon="6.58259">
        <ele>575.4</ele>
        <time>2020-05-31T14:03:41Z</time>
      </trkpt>
      <trkpt lat="43.61194" lon="6.5825">
        <ele>575.8</ele>
        <time>2020-05-31T14:03:45Z</time>
      </trkpt>
      <trkpt lat="43.61193" lon="6.58244">
        <ele>576.1</ele>
        <time>2020-05-31T14:03:49Z</time>
      </trkpt>
      <trkpt lat="43.61192" lon="6.58237">
        <ele>576.3</ele>
        <time>2020-05-31T14:03:55Z</time>
      </trkpt>
      <trkpt lat="43.61191" lon="6.5823">
        <ele>576.5</ele>
        <time>2020-05-31T14:03:59Z</time>
      </trkpt>
      <trkpt lat="43.61189" lon="6.58223">
        <ele>576.8</ele>
        <time>2020-05-31T14:04:03Z</time>
      </trkpt>
      <trkpt lat="43.61188" lon="6.58216">
        <ele>577.2</ele>
        <time>2020-05-31T14:04:07Z</time>
      </trkpt>
      <trkpt lat="43.61187" lon="6.58208">
        <ele>577.5</ele>
        <time>2020-05-31T14:04:11Z</time>
      </trkpt>
      <trkpt lat="43.61186" lon="6.58201">
        <ele>577.6</ele>
        <time>2020-05-31T14:04:15Z</time>
      </trkpt>
      <trkpt lat="43.61183" lon="6.58195">
        <ele>577.6</ele>
        <time>2020-05-31T14:04:20Z</time>
      </trkpt>
      <trkpt lat="43.61181" lon="6.58188">
        <ele>577.6</ele>
        <time>2020-05-31T14:04:25Z</time>
      </trkpt>
      <trkpt lat="43.61179" lon="6.58181">
        <ele>577.6</ele>
        <time>2020-05-31T14:04:29Z</time>
      </trkpt>
      <trkpt lat="43.61177" lon="6.58174">
        <ele>577.6</ele>
        <time>2020-05-31T14:04:33Z</time>
      </trkpt>
      <trkpt lat="43.61176" lon="6.58168">
        <ele>577.6</ele>
        <time>2020-05-31T14:04:37Z</time>
      </trkpt>
      <trkpt lat="43.61174" lon="6.58161">
        <ele>577.3</ele>
        <time>2020-05-31T14:04:41Z</time>
      </trkpt>
      <trkpt lat="43.61171" lon="6.58153">
        <ele>577.2</ele>
        <time>2020-05-31T14:04:45Z</time>
      </trkpt>
      <trkpt lat="43.61169" lon="6.58147">
        <ele>577.1</ele>
        <time>2020-05-31T14:04:49Z</time>
      </trkpt>
      <trkpt lat="43.61167" lon="6.58142">
        <ele>576.8</ele>
        <time>2020-05-31T14:04:54Z</time>
      </trkpt>
      <trkpt lat="43.61165" lon="6.58135">
        <ele>576.6</ele>
        <time>2020-05-31T14:04:58Z</time>
      </trkpt>
      <trkpt lat="43.61163" lon="6.58128">
        <ele>576.2</ele>
        <time>2020-05-31T14:05:02Z</time>
      </trkpt>
      <trkpt lat="43.6116" lon="6.58121">
        <ele>575.7</ele>
        <time>2020-05-31T14:05:06Z</time>
      </trkpt>
      <trkpt lat="43.61157" lon="6.58114">
        <ele>575</ele>
        <time>2020-05-31T14:05:10Z</time>
      </trkpt>
      <trkpt lat="43.61154" lon="6.58105">
        <ele>574.3</ele>
        <time>2020-05-31T14:05:14Z</time>
      </trkpt>
      <trkpt lat="43.61155" lon="6.58096">
        <ele>573.8</ele>
        <time>2020-05-31T14:05:18Z</time>
      </trkpt>
      <trkpt lat="43.61156" lon="6.5809">
        <ele>573.2</ele>
        <time>2020-05-31T14:05:22Z</time>
      </trkpt>
      <trkpt lat="43.61156" lon="6.58084">
        <ele>572.4</ele>
        <time>2020-05-31T14:05:27Z</time>
      </trkpt>
      <trkpt lat="43.61157" lon="6.58077">
        <ele>571.6</ele>
        <time>2020-05-31T14:05:33Z</time>
      </trkpt>
      <trkpt lat="43.61157" lon="6.58069">
        <ele>571.1</ele>
        <time>2020-05-31T14:05:37Z</time>
      </trkpt>
      <trkpt lat="43.61158" lon="6.58061">
        <ele>570.8</ele>
        <time>2020-05-31T14:05:41Z</time>
      </trkpt>
      <trkpt lat="43.61157" lon="6.58054">
        <ele>570.4</ele>
        <time>2020-05-31T14:05:45Z</time>
      </trkpt>
      <trkpt lat="43.61157" lon="6.58047">
        <ele>569.7</ele>
        <time>2020-05-31T14:05:50Z</time>
      </trkpt>
      <trkpt lat="43.61156" lon="6.5804">
        <ele>568.8</ele>
        <time>2020-05-31T14:05:55Z</time>
      </trkpt>
      <trkpt lat="43.61155" lon="6.58032">
        <ele>567.7</ele>
        <time>2020-05-31T14:06:00Z</time>
      </trkpt>
      <trkpt lat="43.61156" lon="6.58023">
        <ele>566.9</ele>
        <time>2020-05-31T14:06:04Z</time>
      </trkpt>
      <trkpt lat="43.61156" lon="6.58015">
        <ele>565.7</ele>
        <time>2020-05-31T14:06:08Z</time>
      </trkpt>
      <trkpt lat="43.61157" lon="6.58007">
        <ele>564.7</ele>
        <time>2020-05-31T14:06:12Z</time>
      </trkpt>
      <trkpt lat="43.61158" lon="6.57998">
        <ele>563.9</ele>
        <time>2020-05-31T14:06:16Z</time>
      </trkpt>
      <trkpt lat="43.61159" lon="6.57991">
        <ele>563.5</ele>
        <time>2020-05-31T14:06:20Z</time>
      </trkpt>
      <trkpt lat="43.61162" lon="6.57985">
        <ele>563.4</ele>
        <time>2020-05-31T14:06:24Z</time>
      </trkpt>
      <trkpt lat="43.61164" lon="6.57977">
        <ele>563.6</ele>
        <time>2020-05-31T14:06:28Z</time>
      </trkpt>
      <trkpt lat="43.61165" lon="6.5797">
        <ele>564</ele>
        <time>2020-05-31T14:06:34Z</time>
      </trkpt>
      <trkpt lat="43.61165" lon="6.57964">
        <ele>564.2</ele>
        <time>2020-05-31T14:06:38Z</time>
      </trkpt>
      <trkpt lat="43.61165" lon="6.57954">
        <ele>564.4</ele>
        <time>2020-05-31T14:06:42Z</time>
      </trkpt>
      <trkpt lat="43.61165" lon="6.57948">
        <ele>564.5</ele>
        <time>2020-05-31T14:06:46Z</time>
      </trkpt>
      <trkpt lat="43.61164" lon="6.57941">
        <ele>564.9</ele>
        <time>2020-05-31T14:06:50Z</time>
      </trkpt>
      <trkpt lat="43.61166" lon="6.57931">
        <ele>565.5</ele>
        <time>2020-05-31T14:06:54Z</time>
      </trkpt>
      <trkpt lat="43.61168" lon="6.57923">
        <ele>566</ele>
        <time>2020-05-31T14:06:58Z</time>
      </trkpt>
      <trkpt lat="43.61168" lon="6.57916">
        <ele>566.2</ele>
        <time>2020-05-31T14:07:02Z</time>
      </trkpt>
      <trkpt lat="43.6117" lon="6.5791">
        <ele>566</ele>
        <time>2020-05-31T14:07:06Z</time>
      </trkpt>
      <trkpt lat="43.61172" lon="6.57901">
        <ele>565.3</ele>
        <time>2020-05-31T14:07:10Z</time>
      </trkpt>
      <trkpt lat="43.61174" lon="6.57894">
        <ele>564.6</ele>
        <time>2020-05-31T14:07:14Z</time>
      </trkpt>
      <trkpt lat="43.61176" lon="6.57887">
        <ele>563.8</ele>
        <time>2020-05-31T14:07:19Z</time>
      </trkpt>
      <trkpt lat="43.61178" lon="6.57878">
        <ele>563.4</ele>
        <time>2020-05-31T14:07:23Z</time>
      </trkpt>
      <trkpt lat="43.6118" lon="6.57869">
        <ele>563.2</ele>
        <time>2020-05-31T14:07:27Z</time>
      </trkpt>
      <trkpt lat="43.6118" lon="6.57861">
        <ele>563.2</ele>
        <time>2020-05-31T14:07:32Z</time>
      </trkpt>
      <trkpt lat="43.6118" lon="6.57854">
        <ele>563.1</ele>
        <time>2020-05-31T14:07:36Z</time>
      </trkpt>
      <trkpt lat="43.61181" lon="6.57846">
        <ele>563.2</ele>
        <time>2020-05-31T14:07:40Z</time>
      </trkpt>
      <trkpt lat="43.61181" lon="6.57835">
        <ele>563.8</ele>
        <time>2020-05-31T14:07:44Z</time>
      </trkpt>
      <trkpt lat="43.61181" lon="6.57828">
        <ele>564.6</ele>
        <time>2020-05-31T14:07:48Z</time>
      </trkpt>
      <trkpt lat="43.61182" lon="6.57822">
        <ele>565</ele>
        <time>2020-05-31T14:07:54Z</time>
      </trkpt>
      <trkpt lat="43.61182" lon="6.57814">
        <ele>565.3</ele>
        <time>2020-05-31T14:07:58Z</time>
      </trkpt>
      <trkpt lat="43.61186" lon="6.57804">
        <ele>565.9</ele>
        <time>2020-05-31T14:08:02Z</time>
      </trkpt>
      <trkpt lat="43.61188" lon="6.57796">
        <ele>566.4</ele>
        <time>2020-05-31T14:08:06Z</time>
      </trkpt>
      <trkpt lat="43.61188" lon="6.57789">
        <ele>566.6</ele>
        <time>2020-05-31T14:08:12Z</time>
      </trkpt>
      <trkpt lat="43.6119" lon="6.57783">
        <ele>566.6</ele>
        <time>2020-05-31T14:08:16Z</time>
      </trkpt>
      <trkpt lat="43.61192" lon="6.57774">
        <ele>566.6</ele>
        <time>2020-05-31T14:08:20Z</time>
      </trkpt>
      <trkpt lat="43.61196" lon="6.57765">
        <ele>566.6</ele>
        <time>2020-05-31T14:08:24Z</time>
      </trkpt>
      <trkpt lat="43.61199" lon="6.5776">
        <ele>566.5</ele>
        <time>2020-05-31T14:08:28Z</time>
      </trkpt>
      <trkpt lat="43.612" lon="6.57754">
        <ele>566.1</ele>
        <time>2020-05-31T14:08:33Z</time>
      </trkpt>
      <trkpt lat="43.61201" lon="6.57746">
        <ele>566</ele>
        <time>2020-05-31T14:08:37Z</time>
      </trkpt>
      <trkpt lat="43.61202" lon="6.57738">
        <ele>566.1</ele>
        <time>2020-05-31T14:08:41Z</time>
      </trkpt>
      <trkpt lat="43.61204" lon="6.57729">
        <ele>566.1</ele>
        <time>2020-05-31T14:08:45Z</time>
      </trkpt>
      <trkpt lat="43.61204" lon="6.57722">
        <ele>565.5</ele>
        <time>2020-05-31T14:08:50Z</time>
      </trkpt>
      <trkpt lat="43.61204" lon="6.57713">
        <ele>564.7</ele>
        <time>2020-05-31T14:08:54Z</time>
      </trkpt>
      <trkpt lat="43.61205" lon="6.57703">
        <ele>563.7</ele>
        <time>2020-05-31T14:08:58Z</time>
      </trkpt>
      <trkpt lat="43.61208" lon="6.57694">
        <ele>562.7</ele>
        <time>2020-05-31T14:09:02Z</time>
      </trkpt>
      <trkpt lat="43.61212" lon="6.57687">
        <ele>561.8</ele>
        <time>2020-05-31T14:09:06Z</time>
      </trkpt>
      <trkpt lat="43.61215" lon="6.5768">
        <ele>560.8</ele>
        <time>2020-05-31T14:09:10Z</time>
      </trkpt>
      <trkpt lat="43.61215" lon="6.57673">
        <ele>559.5</ele>
        <time>2020-05-31T14:09:15Z</time>
      </trkpt>
      <trkpt lat="43.61216" lon="6.57665">
        <ele>558.5</ele>
        <time>2020-05-31T14:09:19Z</time>
      </trkpt>
      <trkpt lat="43.61217" lon="6.57658">
        <ele>557.4</ele>
        <time>2020-05-31T14:09:23Z</time>
      </trkpt>
      <trkpt lat="43.61219" lon="6.57649">
        <ele>556.5</ele>
        <time>2020-05-31T14:09:27Z</time>
      </trkpt>
      <trkpt lat="43.61221" lon="6.57642">
        <ele>555.9</ele>
        <time>2020-05-31T14:09:32Z</time>
      </trkpt>
      <trkpt lat="43.61223" lon="6.57635">
        <ele>555</ele>
        <time>2020-05-31T14:09:37Z</time>
      </trkpt>
      <trkpt lat="43.61225" lon="6.57626">
        <ele>554.3</ele>
        <time>2020-05-31T14:09:41Z</time>
      </trkpt>
      <trkpt lat="43.61228" lon="6.57618">
        <ele>553.9</ele>
        <time>2020-05-31T14:09:45Z</time>
      </trkpt>
      <trkpt lat="43.6123" lon="6.57612">
        <ele>553.3</ele>
        <time>2020-05-31T14:09:50Z</time>
      </trkpt>
      <trkpt lat="43.61231" lon="6.57606">
        <ele>552.9</ele>
        <time>2020-05-31T14:09:54Z</time>
      </trkpt>
      <trkpt lat="43.61233" lon="6.57598">
        <ele>552.9</ele>
        <time>2020-05-31T14:09:58Z</time>
      </trkpt>
      <trkpt lat="43.61235" lon="6.5759">
        <ele>552.7</ele>
        <time>2020-05-31T14:10:02Z</time>
      </trkpt>
      <trkpt lat="43.61237" lon="6.57584">
        <ele>552.4</ele>
        <time>2020-05-31T14:10:06Z</time>
      </trkpt>
      <trkpt lat="43.61238" lon="6.57575">
        <ele>551.5</ele>
        <time>2020-05-31T14:10:12Z</time>
      </trkpt>
      <trkpt lat="43.6124" lon="6.57568">
        <ele>551.1</ele>
        <time>2020-05-31T14:10:16Z</time>
      </trkpt>
      <trkpt lat="43.61239" lon="6.57558">
        <ele>550.9</ele>
        <time>2020-05-31T14:10:20Z</time>
      </trkpt>
      <trkpt lat="43.61241" lon="6.5755">
        <ele>550.4</ele>
        <time>2020-05-31T14:10:24Z</time>
      </trkpt>
      <trkpt lat="43.61243" lon="6.57541">
        <ele>549.9</ele>
        <time>2020-05-31T14:10:28Z</time>
      </trkpt>
      <trkpt lat="43.61243" lon="6.57533">
        <ele>549.4</ele>
        <time>2020-05-31T14:10:32Z</time>
      </trkpt>
      <trkpt lat="43.61243" lon="6.57526">
        <ele>548.7</ele>
        <time>2020-05-31T14:10:40Z</time>
      </trkpt>
      <trkpt lat="43.61243" lon="6.57518">
        <ele>548.9</ele>
        <time>2020-05-31T14:10:44Z</time>
      </trkpt>
      <trkpt lat="43.61243" lon="6.57508">
        <ele>548.9</ele>
        <time>2020-05-31T14:10:48Z</time>
      </trkpt>
      <trkpt lat="43.61245" lon="6.57501">
        <ele>548</ele>
        <time>2020-05-31T14:10:52Z</time>
      </trkpt>
      <trkpt lat="43.61247" lon="6.57494">
        <ele>546.9</ele>
        <time>2020-05-31T14:10:56Z</time>
      </trkpt>
      <trkpt lat="43.61248" lon="6.57486">
        <ele>546</ele>
        <time>2020-05-31T14:11:00Z</time>
      </trkpt>
      <trkpt lat="43.6125" lon="6.57478">
        <ele>544.8</ele>
        <time>2020-05-31T14:11:04Z</time>
      </trkpt>
      <trkpt lat="43.61251" lon="6.57468">
        <ele>543.7</ele>
        <time>2020-05-31T14:11:08Z</time>
      </trkpt>
      <trkpt lat="43.61251" lon="6.57459">
        <ele>542.4</ele>
        <time>2020-05-31T14:11:12Z</time>
      </trkpt>
      <trkpt lat="43.61252" lon="6.5745">
        <ele>541.1</ele>
        <time>2020-05-31T14:11:16Z</time>
      </trkpt>
      <trkpt lat="43.61252" lon="6.57442">
        <ele>539.8</ele>
        <time>2020-05-31T14:11:20Z</time>
      </trkpt>
      <trkpt lat="43.61252" lon="6.57434">
        <ele>538.6</ele>
        <time>2020-05-31T14:11:24Z</time>
      </trkpt>
      <trkpt lat="43.61254" lon="6.57424">
        <ele>537</ele>
        <time>2020-05-31T14:11:28Z</time>
      </trkpt>
      <trkpt lat="43.61257" lon="6.57412">
        <ele>535.8</ele>
        <time>2020-05-31T14:11:32Z</time>
      </trkpt>
      <trkpt lat="43.61258" lon="6.57405">
        <ele>533.2</ele>
        <time>2020-05-31T14:11:43Z</time>
      </trkpt>
      <trkpt lat="43.61257" lon="6.57399">
        <ele>532.9</ele>
        <time>2020-05-31T14:11:47Z</time>
      </trkpt>
      <trkpt lat="43.61256" lon="6.57389">
        <ele>533</ele>
        <time>2020-05-31T14:11:51Z</time>
      </trkpt>
      <trkpt lat="43.61256" lon="6.57377">
        <ele>533.4</ele>
        <time>2020-05-31T14:11:55Z</time>
      </trkpt>
      <trkpt lat="43.61254" lon="6.57367">
        <ele>534.1</ele>
        <time>2020-05-31T14:11:59Z</time>
      </trkpt>
      <trkpt lat="43.61249" lon="6.57357">
        <ele>534.8</ele>
        <time>2020-05-31T14:12:03Z</time>
      </trkpt>
      <trkpt lat="43.61247" lon="6.57348">
        <ele>535</ele>
        <time>2020-05-31T14:12:07Z</time>
      </trkpt>
      <trkpt lat="43.61246" lon="6.57342">
        <ele>534.1</ele>
        <time>2020-05-31T14:12:15Z</time>
      </trkpt>
      <trkpt lat="43.61243" lon="6.57336">
        <ele>533.5</ele>
        <time>2020-05-31T14:12:20Z</time>
      </trkpt>
      <trkpt lat="43.61243" lon="6.57324">
        <ele>532.7</ele>
        <time>2020-05-31T14:12:24Z</time>
      </trkpt>
      <trkpt lat="43.61243" lon="6.57314">
        <ele>532</ele>
        <time>2020-05-31T14:12:28Z</time>
      </trkpt>
      <trkpt lat="43.61243" lon="6.57305">
        <ele>531.3</ele>
        <time>2020-05-31T14:12:32Z</time>
      </trkpt>
      <trkpt lat="43.61241" lon="6.57298">
        <ele>530.9</ele>
        <time>2020-05-31T14:12:36Z</time>
      </trkpt>
      <trkpt lat="43.61239" lon="6.57292">
        <ele>530.5</ele>
        <time>2020-05-31T14:12:40Z</time>
      </trkpt>
      <trkpt lat="43.61234" lon="6.57287">
        <ele>530.2</ele>
        <time>2020-05-31T14:12:46Z</time>
      </trkpt>
      <trkpt lat="43.61231" lon="6.5728">
        <ele>530.1</ele>
        <time>2020-05-31T14:12:50Z</time>
      </trkpt>
      <trkpt lat="43.61227" lon="6.57271">
        <ele>529.7</ele>
        <time>2020-05-31T14:12:54Z</time>
      </trkpt>
      <trkpt lat="43.61225" lon="6.57262">
        <ele>529.3</ele>
        <time>2020-05-31T14:12:58Z</time>
      </trkpt>
      <trkpt lat="43.61224" lon="6.57256">
        <ele>528.9</ele>
        <time>2020-05-31T14:13:02Z</time>
      </trkpt>
      <trkpt lat="43.61223" lon="6.57249">
        <ele>528.9</ele>
        <time>2020-05-31T14:13:08Z</time>
      </trkpt>
      <trkpt lat="43.61223" lon="6.57241">
        <ele>529.3</ele>
        <time>2020-05-31T14:13:13Z</time>
      </trkpt>
      <trkpt lat="43.61224" lon="6.57233">
        <ele>529.7</ele>
        <time>2020-05-31T14:13:17Z</time>
      </trkpt>
      <trkpt lat="43.61226" lon="6.57225">
        <ele>530.3</ele>
        <time>2020-05-31T14:13:21Z</time>
      </trkpt>
      <trkpt lat="43.61228" lon="6.57218">
        <ele>530.9</ele>
        <time>2020-05-31T14:13:25Z</time>
      </trkpt>
      <trkpt lat="43.61229" lon="6.57212">
        <ele>531.5</ele>
        <time>2020-05-31T14:13:29Z</time>
      </trkpt>
      <trkpt lat="43.6123" lon="6.57204">
        <ele>531.7</ele>
        <time>2020-05-31T14:13:34Z</time>
      </trkpt>
      <trkpt lat="43.6123" lon="6.57195">
        <ele>531.5</ele>
        <time>2020-05-31T14:13:38Z</time>
      </trkpt>
      <trkpt lat="43.61232" lon="6.57185">
        <ele>531.2</ele>
        <time>2020-05-31T14:13:42Z</time>
      </trkpt>
      <trkpt lat="43.61233" lon="6.57178">
        <ele>530.8</ele>
        <time>2020-05-31T14:13:46Z</time>
      </trkpt>
      <trkpt lat="43.61231" lon="6.57171">
        <ele>531</ele>
        <time>2020-05-31T14:13:51Z</time>
      </trkpt>
      <trkpt lat="43.61232" lon="6.57163">
        <ele>531.8</ele>
        <time>2020-05-31T14:13:55Z</time>
      </trkpt>
      <trkpt lat="43.61232" lon="6.57151">
        <ele>532.4</ele>
        <time>2020-05-31T14:13:59Z</time>
      </trkpt>
      <trkpt lat="43.61232" lon="6.57143">
        <ele>533</ele>
        <time>2020-05-31T14:14:03Z</time>
      </trkpt>
      <trkpt lat="43.6123" lon="6.57136">
        <ele>533.6</ele>
        <time>2020-05-31T14:14:09Z</time>
      </trkpt>
      <trkpt lat="43.61232" lon="6.57128">
        <ele>534</ele>
        <time>2020-05-31T14:14:13Z</time>
      </trkpt>
      <trkpt lat="43.61235" lon="6.57116">
        <ele>534.5</ele>
        <time>2020-05-31T14:14:17Z</time>
      </trkpt>
      <trkpt lat="43.61237" lon="6.57103">
        <ele>535.4</ele>
        <time>2020-05-31T14:14:21Z</time>
      </trkpt>
      <trkpt lat="43.61239" lon="6.57097">
        <ele>536.4</ele>
        <time>2020-05-31T14:14:25Z</time>
      </trkpt>
      <trkpt lat="43.61236" lon="6.57093">
        <ele>536.9</ele>
        <time>2020-05-31T14:14:31Z</time>
      </trkpt>
      <trkpt lat="43.61237" lon="6.57085">
        <ele>537</ele>
        <time>2020-05-31T14:14:36Z</time>
      </trkpt>
      <trkpt lat="43.61238" lon="6.57077">
        <ele>536.9</ele>
        <time>2020-05-31T14:14:40Z</time>
      </trkpt>
      <trkpt lat="43.61237" lon="6.57067">
        <ele>536.6</ele>
        <time>2020-05-31T14:14:44Z</time>
      </trkpt>
      <trkpt lat="43.61236" lon="6.5706">
        <ele>536.1</ele>
        <time>2020-05-31T14:14:48Z</time>
      </trkpt>
      <trkpt lat="43.61233" lon="6.57054">
        <ele>535.2</ele>
        <time>2020-05-31T14:14:56Z</time>
      </trkpt>
      <trkpt lat="43.6123" lon="6.57046">
        <ele>535</ele>
        <time>2020-05-31T14:15:00Z</time>
      </trkpt>
      <trkpt lat="43.61228" lon="6.57034">
        <ele>535.1</ele>
        <time>2020-05-31T14:15:04Z</time>
      </trkpt>
      <trkpt lat="43.61227" lon="6.57023">
        <ele>534.6</ele>
        <time>2020-05-31T14:15:08Z</time>
      </trkpt>
      <trkpt lat="43.61226" lon="6.57017">
        <ele>533</ele>
        <time>2020-05-31T14:15:13Z</time>
      </trkpt>
      <trkpt lat="43.61226" lon="6.57009">
        <ele>531.5</ele>
        <time>2020-05-31T14:15:18Z</time>
      </trkpt>
      <trkpt lat="43.61226" lon="6.56998">
        <ele>530.7</ele>
        <time>2020-05-31T14:15:22Z</time>
      </trkpt>
      <trkpt lat="43.61225" lon="6.56989">
        <ele>529.9</ele>
        <time>2020-05-31T14:15:26Z</time>
      </trkpt>
      <trkpt lat="43.61222" lon="6.56983">
        <ele>528.4</ele>
        <time>2020-05-31T14:15:33Z</time>
      </trkpt>
      <trkpt lat="43.61222" lon="6.56976">
        <ele>527.7</ele>
        <time>2020-05-31T14:15:37Z</time>
      </trkpt>
      <trkpt lat="43.61221" lon="6.56965">
        <ele>527</ele>
        <time>2020-05-31T14:15:41Z</time>
      </trkpt>
      <trkpt lat="43.61222" lon="6.56955">
        <ele>526.4</ele>
        <time>2020-05-31T14:15:45Z</time>
      </trkpt>
      <trkpt lat="43.6122" lon="6.56949">
        <ele>525.4</ele>
        <time>2020-05-31T14:15:51Z</time>
      </trkpt>
      <trkpt lat="43.61218" lon="6.56943">
        <ele>524.8</ele>
        <time>2020-05-31T14:15:56Z</time>
      </trkpt>
      <trkpt lat="43.61217" lon="6.56935">
        <ele>524.6</ele>
        <time>2020-05-31T14:16:00Z</time>
      </trkpt>
      <trkpt lat="43.61215" lon="6.56928">
        <ele>524.6</ele>
        <time>2020-05-31T14:16:04Z</time>
      </trkpt>
      <trkpt lat="43.61213" lon="6.56922">
        <ele>524.7</ele>
        <time>2020-05-31T14:16:08Z</time>
      </trkpt>
      <trkpt lat="43.61211" lon="6.56917">
        <ele>524.5</ele>
        <time>2020-05-31T14:16:12Z</time>
      </trkpt>
      <trkpt lat="43.6121" lon="6.56911">
        <ele>523.5</ele>
        <time>2020-05-31T14:16:18Z</time>
      </trkpt>
      <trkpt lat="43.6121" lon="6.56903">
        <ele>522.8</ele>
        <time>2020-05-31T14:16:30Z</time>
      </trkpt>
      <trkpt lat="43.61208" lon="6.56896">
        <ele>522.9</ele>
        <time>2020-05-31T14:16:35Z</time>
      </trkpt>
      <trkpt lat="43.61207" lon="6.5689">
        <ele>523.1</ele>
        <time>2020-05-31T14:16:39Z</time>
      </trkpt>
      <trkpt lat="43.61207" lon="6.56883">
        <ele>523.6</ele>
        <time>2020-05-31T14:16:44Z</time>
      </trkpt>
      <trkpt lat="43.61204" lon="6.56876">
        <ele>524</ele>
        <time>2020-05-31T14:16:48Z</time>
      </trkpt>
      <trkpt lat="43.61202" lon="6.56869">
        <ele>524.5</ele>
        <time>2020-05-31T14:16:52Z</time>
      </trkpt>
      <trkpt lat="43.612" lon="6.56863">
        <ele>524.9</ele>
        <time>2020-05-31T14:16:56Z</time>
      </trkpt>
      <trkpt lat="43.61198" lon="6.56857">
        <ele>525.3</ele>
        <time>2020-05-31T14:17:00Z</time>
      </trkpt>
      <trkpt lat="43.61195" lon="6.56851">
        <ele>526</ele>
        <time>2020-05-31T14:17:05Z</time>
      </trkpt>
      <trkpt lat="43.61193" lon="6.56845">
        <ele>526.4</ele>
        <time>2020-05-31T14:17:09Z</time>
      </trkpt>
      <trkpt lat="43.61191" lon="6.56838">
        <ele>527</ele>
        <time>2020-05-31T14:17:14Z</time>
      </trkpt>
      <trkpt lat="43.61189" lon="6.56831">
        <ele>527.8</ele>
        <time>2020-05-31T14:17:19Z</time>
      </trkpt>
      <trkpt lat="43.61187" lon="6.56824">
        <ele>528.8</ele>
        <time>2020-05-31T14:17:24Z</time>
      </trkpt>
      <trkpt lat="43.61184" lon="6.56817">
        <ele>529.7</ele>
        <time>2020-05-31T14:17:28Z</time>
      </trkpt>
      <trkpt lat="43.61182" lon="6.56811">
        <ele>530.4</ele>
        <time>2020-05-31T14:17:32Z</time>
      </trkpt>
      <trkpt lat="43.6118" lon="6.56804">
        <ele>531.6</ele>
        <time>2020-05-31T14:17:37Z</time>
      </trkpt>
      <trkpt lat="43.61177" lon="6.56795">
        <ele>532.6</ele>
        <time>2020-05-31T14:17:41Z</time>
      </trkpt>
      <trkpt lat="43.61175" lon="6.56788">
        <ele>533.6</ele>
        <time>2020-05-31T14:17:45Z</time>
      </trkpt>
      <trkpt lat="43.61172" lon="6.56782">
        <ele>534.4</ele>
        <time>2020-05-31T14:17:49Z</time>
      </trkpt>
      <trkpt lat="43.6117" lon="6.56776">
        <ele>535</ele>
        <time>2020-05-31T14:17:53Z</time>
      </trkpt>
      <trkpt lat="43.61167" lon="6.5677">
        <ele>535.7</ele>
        <time>2020-05-31T14:17:57Z</time>
      </trkpt>
      <trkpt lat="43.61165" lon="6.56764">
        <ele>536.3</ele>
        <time>2020-05-31T14:18:01Z</time>
      </trkpt>
      <trkpt lat="43.61166" lon="6.56756">
        <ele>537.2</ele>
        <time>2020-05-31T14:18:07Z</time>
      </trkpt>
      <trkpt lat="43.61165" lon="6.56748">
        <ele>537.9</ele>
        <time>2020-05-31T14:18:11Z</time>
      </trkpt>
      <trkpt lat="43.61165" lon="6.56741">
        <ele>538.5</ele>
        <time>2020-05-31T14:18:16Z</time>
      </trkpt>
      <trkpt lat="43.61164" lon="6.56733">
        <ele>539.2</ele>
        <time>2020-05-31T14:18:20Z</time>
      </trkpt>
      <trkpt lat="43.61162" lon="6.56724">
        <ele>539.9</ele>
        <time>2020-05-31T14:18:24Z</time>
      </trkpt>
      <trkpt lat="43.61159" lon="6.56718">
        <ele>540.7</ele>
        <time>2020-05-31T14:18:28Z</time>
      </trkpt>
      <trkpt lat="43.61158" lon="6.5671">
        <ele>541.3</ele>
        <time>2020-05-31T14:18:32Z</time>
      </trkpt>
      <trkpt lat="43.61156" lon="6.56703">
        <ele>542</ele>
        <time>2020-05-31T14:18:37Z</time>
      </trkpt>
      <trkpt lat="43.61154" lon="6.56696">
        <ele>542.7</ele>
        <time>2020-05-31T14:18:41Z</time>
      </trkpt>
      <trkpt lat="43.6115" lon="6.56689">
        <ele>542.9</ele>
        <time>2020-05-31T14:18:45Z</time>
      </trkpt>
      <trkpt lat="43.61149" lon="6.56682">
        <ele>542.6</ele>
        <time>2020-05-31T14:18:49Z</time>
      </trkpt>
      <trkpt lat="43.61148" lon="6.56676">
        <ele>542.2</ele>
        <time>2020-05-31T14:18:53Z</time>
      </trkpt>
      <trkpt lat="43.61145" lon="6.56668">
        <ele>541.8</ele>
        <time>2020-05-31T14:18:57Z</time>
      </trkpt>
      <trkpt lat="43.61142" lon="6.56661">
        <ele>541</ele>
        <time>2020-05-31T14:19:01Z</time>
      </trkpt>
      <trkpt lat="43.6114" lon="6.56655">
        <ele>539.8</ele>
        <time>2020-05-31T14:19:06Z</time>
      </trkpt>
      <trkpt lat="43.61137" lon="6.56649">
        <ele>538.9</ele>
        <time>2020-05-31T14:19:10Z</time>
      </trkpt>
      <trkpt lat="43.61132" lon="6.56642">
        <ele>537.9</ele>
        <time>2020-05-31T14:19:14Z</time>
      </trkpt>
      <trkpt lat="43.61131" lon="6.56636">
        <ele>536.6</ele>
        <time>2020-05-31T14:19:18Z</time>
      </trkpt>
      <trkpt lat="43.61129" lon="6.5663">
        <ele>535.7</ele>
        <time>2020-05-31T14:19:22Z</time>
      </trkpt>
      <trkpt lat="43.61126" lon="6.56624">
        <ele>535</ele>
        <time>2020-05-31T14:19:26Z</time>
      </trkpt>
      <trkpt lat="43.61123" lon="6.56618">
        <ele>534.2</ele>
        <time>2020-05-31T14:19:31Z</time>
      </trkpt>
      <trkpt lat="43.61119" lon="6.56612">
        <ele>533.7</ele>
        <time>2020-05-31T14:19:35Z</time>
      </trkpt>
      <trkpt lat="43.61115" lon="6.56606">
        <ele>533.2</ele>
        <time>2020-05-31T14:19:39Z</time>
      </trkpt>
      <trkpt lat="43.61111" lon="6.56601">
        <ele>532.3</ele>
        <time>2020-05-31T14:19:44Z</time>
      </trkpt>
      <trkpt lat="43.61108" lon="6.56594">
        <ele>531.7</ele>
        <time>2020-05-31T14:19:48Z</time>
      </trkpt>
      <trkpt lat="43.61105" lon="6.56584">
        <ele>531</ele>
        <time>2020-05-31T14:19:52Z</time>
      </trkpt>
      <trkpt lat="43.61103" lon="6.56577">
        <ele>530.4</ele>
        <time>2020-05-31T14:19:56Z</time>
      </trkpt>
      <trkpt lat="43.611" lon="6.5657">
        <ele>530.2</ele>
        <time>2020-05-31T14:20:00Z</time>
      </trkpt>
      <trkpt lat="43.61098" lon="6.56563">
        <ele>530</ele>
        <time>2020-05-31T14:20:04Z</time>
      </trkpt>
      <trkpt lat="43.61095" lon="6.56556">
        <ele>529.7</ele>
        <time>2020-05-31T14:20:08Z</time>
      </trkpt>
      <trkpt lat="43.61091" lon="6.56551">
        <ele>529.4</ele>
        <time>2020-05-31T14:20:12Z</time>
      </trkpt>
      <trkpt lat="43.61088" lon="6.56545">
        <ele>529.1</ele>
        <time>2020-05-31T14:20:16Z</time>
      </trkpt>
      <trkpt lat="43.61085" lon="6.56539">
        <ele>528.4</ele>
        <time>2020-05-31T14:20:20Z</time>
      </trkpt>
      <trkpt lat="43.61083" lon="6.56533">
        <ele>527.5</ele>
        <time>2020-05-31T14:20:25Z</time>
      </trkpt>
      <trkpt lat="43.61082" lon="6.56525">
        <ele>526.7</ele>
        <time>2020-05-31T14:20:29Z</time>
      </trkpt>
      <trkpt lat="43.61079" lon="6.56517">
        <ele>526.1</ele>
        <time>2020-05-31T14:20:33Z</time>
      </trkpt>
      <trkpt lat="43.61077" lon="6.5651">
        <ele>525.6</ele>
        <time>2020-05-31T14:20:37Z</time>
      </trkpt>
      <trkpt lat="43.61075" lon="6.56503">
        <ele>525</ele>
        <time>2020-05-31T14:20:43Z</time>
      </trkpt>
      <trkpt lat="43.61072" lon="6.56497">
        <ele>524.5</ele>
        <time>2020-05-31T14:20:47Z</time>
      </trkpt>
      <trkpt lat="43.61069" lon="6.56491">
        <ele>523.9</ele>
        <time>2020-05-31T14:20:51Z</time>
      </trkpt>
      <trkpt lat="43.61067" lon="6.56483">
        <ele>522.9</ele>
        <time>2020-05-31T14:20:56Z</time>
      </trkpt>
      <trkpt lat="43.61064" lon="6.56476">
        <ele>522.4</ele>
        <time>2020-05-31T14:21:00Z</time>
      </trkpt>
      <trkpt lat="43.6106" lon="6.56469">
        <ele>522</ele>
        <time>2020-05-31T14:21:04Z</time>
      </trkpt>
      <trkpt lat="43.61058" lon="6.56463">
        <ele>521.8</ele>
        <time>2020-05-31T14:21:08Z</time>
      </trkpt>
      <trkpt lat="43.61057" lon="6.56456">
        <ele>521.7</ele>
        <time>2020-05-31T14:21:12Z</time>
      </trkpt>
      <trkpt lat="43.61053" lon="6.56449">
        <ele>522</ele>
        <time>2020-05-31T14:21:16Z</time>
      </trkpt>
      <trkpt lat="43.6105" lon="6.56443">
        <ele>522.6</ele>
        <time>2020-05-31T14:21:20Z</time>
      </trkpt>
      <trkpt lat="43.61045" lon="6.56438">
        <ele>523.4</ele>
        <time>2020-05-31T14:21:25Z</time>
      </trkpt>
      <trkpt lat="43.6104" lon="6.56434">
        <ele>524</ele>
        <time>2020-05-31T14:21:29Z</time>
      </trkpt>
      <trkpt lat="43.61035" lon="6.56432">
        <ele>524.7</ele>
        <time>2020-05-31T14:21:33Z</time>
      </trkpt>
      <trkpt lat="43.6103" lon="6.56431">
        <ele>525.4</ele>
        <time>2020-05-31T14:21:37Z</time>
      </trkpt>
      <trkpt lat="43.61024" lon="6.56429">
        <ele>526.1</ele>
        <time>2020-05-31T14:21:41Z</time>
      </trkpt>
      <trkpt lat="43.61019" lon="6.56427">
        <ele>526.8</ele>
        <time>2020-05-31T14:21:45Z</time>
      </trkpt>
      <trkpt lat="43.61014" lon="6.56426">
        <ele>527.9</ele>
        <time>2020-05-31T14:21:50Z</time>
      </trkpt>
      <trkpt lat="43.61008" lon="6.56428">
        <ele>528.9</ele>
        <time>2020-05-31T14:21:54Z</time>
      </trkpt>
      <trkpt lat="43.61002" lon="6.5643">
        <ele>529.8</ele>
        <time>2020-05-31T14:21:58Z</time>
      </trkpt>
      <trkpt lat="43.60997" lon="6.56432">
        <ele>530.6</ele>
        <time>2020-05-31T14:22:03Z</time>
      </trkpt>
      <trkpt lat="43.60992" lon="6.56435">
        <ele>531.1</ele>
        <time>2020-05-31T14:22:07Z</time>
      </trkpt>
      <trkpt lat="43.60987" lon="6.56439">
        <ele>531.2</ele>
        <time>2020-05-31T14:22:11Z</time>
      </trkpt>
      <trkpt lat="43.60983" lon="6.56444">
        <ele>530.7</ele>
        <time>2020-05-31T14:22:15Z</time>
      </trkpt>
      <trkpt lat="43.60979" lon="6.5645">
        <ele>529.1</ele>
        <time>2020-05-31T14:22:21Z</time>
      </trkpt>
      <trkpt lat="43.60975" lon="6.56455">
        <ele>528.3</ele>
        <time>2020-05-31T14:22:26Z</time>
      </trkpt>
      <trkpt lat="43.6097" lon="6.56461">
        <ele>527.5</ele>
        <time>2020-05-31T14:22:30Z</time>
      </trkpt>
      <trkpt lat="43.60966" lon="6.56465">
        <ele>527</ele>
        <time>2020-05-31T14:22:34Z</time>
      </trkpt>
      <trkpt lat="43.60962" lon="6.56468">
        <ele>526.9</ele>
        <time>2020-05-31T14:22:38Z</time>
      </trkpt>
      <trkpt lat="43.60957" lon="6.56472">
        <ele>526.9</ele>
        <time>2020-05-31T14:22:42Z</time>
      </trkpt>
      <trkpt lat="43.60952" lon="6.56475">
        <ele>526.4</ele>
        <time>2020-05-31T14:22:48Z</time>
      </trkpt>
      <trkpt lat="43.60946" lon="6.56476">
        <ele>526.4</ele>
        <time>2020-05-31T14:22:52Z</time>
      </trkpt>
      <trkpt lat="43.60941" lon="6.56476">
        <ele>526.5</ele>
        <time>2020-05-31T14:22:56Z</time>
      </trkpt>
      <trkpt lat="43.60936" lon="6.56478">
        <ele>526.7</ele>
        <time>2020-05-31T14:23:00Z</time>
      </trkpt>
      <trkpt lat="43.60931" lon="6.56481">
        <ele>526.8</ele>
        <time>2020-05-31T14:23:04Z</time>
      </trkpt>
      <trkpt lat="43.60926" lon="6.56484">
        <ele>527</ele>
        <time>2020-05-31T14:23:08Z</time>
      </trkpt>
      <trkpt lat="43.60922" lon="6.56486">
        <ele>527.2</ele>
        <time>2020-05-31T14:23:12Z</time>
      </trkpt>
      <trkpt lat="43.60918" lon="6.5649">
        <ele>527.5</ele>
        <time>2020-05-31T14:23:16Z</time>
      </trkpt>
      <trkpt lat="43.60912" lon="6.56493">
        <ele>527.8</ele>
        <time>2020-05-31T14:23:20Z</time>
      </trkpt>
      <trkpt lat="43.60909" lon="6.56496">
        <ele>527.9</ele>
        <time>2020-05-31T14:23:24Z</time>
      </trkpt>
      <trkpt lat="43.60904" lon="6.56503">
        <ele>528</ele>
        <time>2020-05-31T14:23:28Z</time>
      </trkpt>
      <trkpt lat="43.60899" lon="6.5651">
        <ele>527.8</ele>
        <time>2020-05-31T14:23:32Z</time>
      </trkpt>
      <trkpt lat="43.60894" lon="6.56516">
        <ele>527.3</ele>
        <time>2020-05-31T14:23:36Z</time>
      </trkpt>
      <trkpt lat="43.60889" lon="6.56522">
        <ele>526.9</ele>
        <time>2020-05-31T14:23:40Z</time>
      </trkpt>
      <trkpt lat="43.60886" lon="6.56528">
        <ele>526.6</ele>
        <time>2020-05-31T14:23:44Z</time>
      </trkpt>
      <trkpt lat="43.60882" lon="6.56534">
        <ele>526.1</ele>
        <time>2020-05-31T14:23:50Z</time>
      </trkpt>
      <trkpt lat="43.60878" lon="6.56539">
        <ele>525.8</ele>
        <time>2020-05-31T14:23:54Z</time>
      </trkpt>
      <trkpt lat="43.60874" lon="6.56544">
        <ele>525.5</ele>
        <time>2020-05-31T14:23:58Z</time>
      </trkpt>
      <trkpt lat="43.60871" lon="6.56549">
        <ele>525</ele>
        <time>2020-05-31T14:24:03Z</time>
      </trkpt>
      <trkpt lat="43.60866" lon="6.56555">
        <ele>524.6</ele>
        <time>2020-05-31T14:24:07Z</time>
      </trkpt>
      <trkpt lat="43.60863" lon="6.5656">
        <ele>524.2</ele>
        <time>2020-05-31T14:24:11Z</time>
      </trkpt>
      <trkpt lat="43.60858" lon="6.56564">
        <ele>523.8</ele>
        <time>2020-05-31T14:24:15Z</time>
      </trkpt>
      <trkpt lat="43.60854" lon="6.56568">
        <ele>523.5</ele>
        <time>2020-05-31T14:24:19Z</time>
      </trkpt>
      <trkpt lat="43.6085" lon="6.56574">
        <ele>523.2</ele>
        <time>2020-05-31T14:24:24Z</time>
      </trkpt>
      <trkpt lat="43.60846" lon="6.56579">
        <ele>522.9</ele>
        <time>2020-05-31T14:24:28Z</time>
      </trkpt>
      <trkpt lat="43.60842" lon="6.56583">
        <ele>522.8</ele>
        <time>2020-05-31T14:24:32Z</time>
      </trkpt>
      <trkpt lat="43.60837" lon="6.56587">
        <ele>522.8</ele>
        <time>2020-05-31T14:24:36Z</time>
      </trkpt>
      <trkpt lat="43.60832" lon="6.56593">
        <ele>522.6</ele>
        <time>2020-05-31T14:24:40Z</time>
      </trkpt>
      <trkpt lat="43.60828" lon="6.56597">
        <ele>522.5</ele>
        <time>2020-05-31T14:24:45Z</time>
      </trkpt>
      <trkpt lat="43.60824" lon="6.566">
        <ele>522.4</ele>
        <time>2020-05-31T14:24:50Z</time>
      </trkpt>
      <trkpt lat="43.60818" lon="6.56604">
        <ele>522.4</ele>
        <time>2020-05-31T14:24:54Z</time>
      </trkpt>
      <trkpt lat="43.60813" lon="6.56606">
        <ele>522.6</ele>
        <time>2020-05-31T14:24:58Z</time>
      </trkpt>
      <trkpt lat="43.60807" lon="6.5661">
        <ele>522.7</ele>
        <time>2020-05-31T14:25:02Z</time>
      </trkpt>
      <trkpt lat="43.60802" lon="6.56612">
        <ele>522.7</ele>
        <time>2020-05-31T14:25:06Z</time>
      </trkpt>
      <trkpt lat="43.60797" lon="6.56615">
        <ele>522.8</ele>
        <time>2020-05-31T14:25:13Z</time>
      </trkpt>
      <trkpt lat="43.6079" lon="6.56617">
        <ele>522.9</ele>
        <time>2020-05-31T14:25:17Z</time>
      </trkpt>
      <trkpt lat="43.60785" lon="6.56619">
        <ele>523.1</ele>
        <time>2020-05-31T14:25:21Z</time>
      </trkpt>
      <trkpt lat="43.6078" lon="6.56621">
        <ele>523.6</ele>
        <time>2020-05-31T14:25:26Z</time>
      </trkpt>
      <trkpt lat="43.60775" lon="6.56625">
        <ele>524.3</ele>
        <time>2020-05-31T14:25:30Z</time>
      </trkpt>
      <trkpt lat="43.60771" lon="6.56627">
        <ele>525</ele>
        <time>2020-05-31T14:25:34Z</time>
      </trkpt>
      <trkpt lat="43.60765" lon="6.56629">
        <ele>525.9</ele>
        <time>2020-05-31T14:25:40Z</time>
      </trkpt>
      <trkpt lat="43.60761" lon="6.56631">
        <ele>526.4</ele>
        <time>2020-05-31T14:25:44Z</time>
      </trkpt>
      <trkpt lat="43.60757" lon="6.56634">
        <ele>526.9</ele>
        <time>2020-05-31T14:25:48Z</time>
      </trkpt>
      <trkpt lat="43.60752" lon="6.56638">
        <ele>527.3</ele>
        <time>2020-05-31T14:25:52Z</time>
      </trkpt>
      <trkpt lat="43.60747" lon="6.56644">
        <ele>527.5</ele>
        <time>2020-05-31T14:25:56Z</time>
      </trkpt>
      <trkpt lat="43.60743" lon="6.56649">
        <ele>527.5</ele>
        <time>2020-05-31T14:26:00Z</time>
      </trkpt>
      <trkpt lat="43.60739" lon="6.56654">
        <ele>527.5</ele>
        <time>2020-05-31T14:26:05Z</time>
      </trkpt>
      <trkpt lat="43.60735" lon="6.56657">
        <ele>527.6</ele>
        <time>2020-05-31T14:26:09Z</time>
      </trkpt>
      <trkpt lat="43.60729" lon="6.56662">
        <ele>527.6</ele>
        <time>2020-05-31T14:26:13Z</time>
      </trkpt>
      <trkpt lat="43.60725" lon="6.56665">
        <ele>527.4</ele>
        <time>2020-05-31T14:26:17Z</time>
      </trkpt>
      <trkpt lat="43.6072" lon="6.56668">
        <ele>527.2</ele>
        <time>2020-05-31T14:26:21Z</time>
      </trkpt>
      <trkpt lat="43.60715" lon="6.56672">
        <ele>527</ele>
        <time>2020-05-31T14:26:25Z</time>
      </trkpt>
      <trkpt lat="43.60711" lon="6.56676">
        <ele>526.8</ele>
        <time>2020-05-31T14:26:29Z</time>
      </trkpt>
      <trkpt lat="43.60706" lon="6.5668">
        <ele>526.6</ele>
        <time>2020-05-31T14:26:34Z</time>
      </trkpt>
      <trkpt lat="43.60701" lon="6.56684">
        <ele>526.4</ele>
        <time>2020-05-31T14:26:38Z</time>
      </trkpt>
      <trkpt lat="43.60696" lon="6.56687">
        <ele>526.3</ele>
        <time>2020-05-31T14:26:42Z</time>
      </trkpt>
      <trkpt lat="43.60693" lon="6.56692">
        <ele>526</ele>
        <time>2020-05-31T14:26:47Z</time>
      </trkpt>
      <trkpt lat="43.60687" lon="6.56699">
        <ele>525.5</ele>
        <time>2020-05-31T14:26:51Z</time>
      </trkpt>
      <trkpt lat="43.60681" lon="6.56703">
        <ele>525.1</ele>
        <time>2020-05-31T14:26:55Z</time>
      </trkpt>
      <trkpt lat="43.60678" lon="6.56707">
        <ele>524.5</ele>
        <time>2020-05-31T14:26:59Z</time>
      </trkpt>
      <trkpt lat="43.60673" lon="6.56712">
        <ele>524</ele>
        <time>2020-05-31T14:27:03Z</time>
      </trkpt>
      <trkpt lat="43.60669" lon="6.56718">
        <ele>523.4</ele>
        <time>2020-05-31T14:27:07Z</time>
      </trkpt>
      <trkpt lat="43.60666" lon="6.56723">
        <ele>522.5</ele>
        <time>2020-05-31T14:27:12Z</time>
      </trkpt>
      <trkpt lat="43.60662" lon="6.56727">
        <ele>521.8</ele>
        <time>2020-05-31T14:27:16Z</time>
      </trkpt>
      <trkpt lat="43.60657" lon="6.56731">
        <ele>521.1</ele>
        <time>2020-05-31T14:27:20Z</time>
      </trkpt>
      <trkpt lat="43.60653" lon="6.56737">
        <ele>520.5</ele>
        <time>2020-05-31T14:27:24Z</time>
      </trkpt>
      <trkpt lat="43.60648" lon="6.56741">
        <ele>519.8</ele>
        <time>2020-05-31T14:27:28Z</time>
      </trkpt>
      <trkpt lat="43.60641" lon="6.56745">
        <ele>519.1</ele>
        <time>2020-05-31T14:27:32Z</time>
      </trkpt>
      <trkpt lat="43.60635" lon="6.56749">
        <ele>518.3</ele>
        <time>2020-05-31T14:27:36Z</time>
      </trkpt>
      <trkpt lat="43.60632" lon="6.56754">
        <ele>517.4</ele>
        <time>2020-05-31T14:27:40Z</time>
      </trkpt>
      <trkpt lat="43.60628" lon="6.56759">
        <ele>516.4</ele>
        <time>2020-05-31T14:27:45Z</time>
      </trkpt>
      <trkpt lat="43.60624" lon="6.56763">
        <ele>515.8</ele>
        <time>2020-05-31T14:27:49Z</time>
      </trkpt>
      <trkpt lat="43.6062" lon="6.56768">
        <ele>515.4</ele>
        <time>2020-05-31T14:27:53Z</time>
      </trkpt>
      <trkpt lat="43.60615" lon="6.56773">
        <ele>515</ele>
        <time>2020-05-31T14:27:57Z</time>
      </trkpt>
      <trkpt lat="43.6061" lon="6.56776">
        <ele>514.3</ele>
        <time>2020-05-31T14:28:02Z</time>
      </trkpt>
      <trkpt lat="43.60605" lon="6.5678">
        <ele>513.7</ele>
        <time>2020-05-31T14:28:06Z</time>
      </trkpt>
      <trkpt lat="43.60601" lon="6.56787">
        <ele>512.9</ele>
        <time>2020-05-31T14:28:10Z</time>
      </trkpt>
      <trkpt lat="43.60597" lon="6.56792">
        <ele>512.1</ele>
        <time>2020-05-31T14:28:14Z</time>
      </trkpt>
      <trkpt lat="43.60593" lon="6.56797">
        <ele>511.3</ele>
        <time>2020-05-31T14:28:18Z</time>
      </trkpt>
      <trkpt lat="43.6059" lon="6.56803">
        <ele>510</ele>
        <time>2020-05-31T14:28:22Z</time>
      </trkpt>
      <trkpt lat="43.60587" lon="6.56809">
        <ele>507.7</ele>
        <time>2020-05-31T14:28:38Z</time>
      </trkpt>
      <trkpt lat="43.60582" lon="6.56812">
        <ele>507.4</ele>
        <time>2020-05-31T14:28:43Z</time>
      </trkpt>
      <trkpt lat="43.60579" lon="6.56817">
        <ele>507.2</ele>
        <time>2020-05-31T14:28:48Z</time>
      </trkpt>
      <trkpt lat="43.60575" lon="6.56823">
        <ele>507.1</ele>
        <time>2020-05-31T14:28:52Z</time>
      </trkpt>
      <trkpt lat="43.60572" lon="6.56829">
        <ele>506.8</ele>
        <time>2020-05-31T14:28:56Z</time>
      </trkpt>
      <trkpt lat="43.60567" lon="6.56834">
        <ele>506.1</ele>
        <time>2020-05-31T14:29:00Z</time>
      </trkpt>
      <trkpt lat="43.60563" lon="6.56838">
        <ele>505.3</ele>
        <time>2020-05-31T14:29:04Z</time>
      </trkpt>
      <trkpt lat="43.60558" lon="6.56843">
        <ele>504.4</ele>
        <time>2020-05-31T14:29:08Z</time>
      </trkpt>
      <trkpt lat="43.60553" lon="6.56848">
        <ele>503.3</ele>
        <time>2020-05-31T14:29:12Z</time>
      </trkpt>
      <trkpt lat="43.60548" lon="6.56852">
        <ele>501.9</ele>
        <time>2020-05-31T14:29:16Z</time>
      </trkpt>
      <trkpt lat="43.60544" lon="6.56856">
        <ele>500.5</ele>
        <time>2020-05-31T14:29:20Z</time>
      </trkpt>
      <trkpt lat="43.6054" lon="6.5686">
        <ele>498.9</ele>
        <time>2020-05-31T14:29:25Z</time>
      </trkpt>
      <trkpt lat="43.60535" lon="6.56865">
        <ele>497.3</ele>
        <time>2020-05-31T14:29:29Z</time>
      </trkpt>
      <trkpt lat="43.60531" lon="6.5687">
        <ele>495.8</ele>
        <time>2020-05-31T14:29:33Z</time>
      </trkpt>
      <trkpt lat="43.60527" lon="6.56873">
        <ele>494.5</ele>
        <time>2020-05-31T14:29:37Z</time>
      </trkpt>
      <trkpt lat="43.60523" lon="6.56877">
        <ele>493</ele>
        <time>2020-05-31T14:29:42Z</time>
      </trkpt>
      <trkpt lat="43.60518" lon="6.56882">
        <ele>491.4</ele>
        <time>2020-05-31T14:29:48Z</time>
      </trkpt>
      <trkpt lat="43.60513" lon="6.56886">
        <ele>490.6</ele>
        <time>2020-05-31T14:29:53Z</time>
      </trkpt>
    </trkseg>
  </trk>
</gpx>